<?xml version="1.0" encoding="UTF-8" standalone="no" ?>
<gpx xmlns="http://www.topografix.com/GPX/1/1" creator="www.cicloide.com" version="1.1" xmlns:xsi="http://www.w3.org/2001/XMLSchema-instance" xsi:schemaLocation="http://www.topografix.com/GPX/1/1 http://www.topografix.com/GPX/1/1/gpx.xsd">
  <wpt lat="41.6558994" lon="2.4803307">
    <ele>266.4</ele>
    <time>2013-04-01T02:14:55Z</time>
    <name>JUNGLA</name>
    <cmt>JUNGLA</cmt>
    <desc>12804_82705</desc>
  </wpt>
  <trk>
    <name>www.cicloide.com 12804</name>
    <desc>www.cicloide.com 12804</desc>
    <trkseg>
      <trkpt lat="41.610607222" lon="2.539911145">
        <ele>112.61</ele>
        <time>2013-03-31T08:11:48Z</time>
      </trkpt>
      <trkpt lat="41.610811154" lon="2.539834451">
        <ele>112.61</ele>
        <time>2013-03-31T08:11:56Z</time>
      </trkpt>
      <trkpt lat="41.611004356" lon="2.539716769">
        <ele>113.57</ele>
        <time>2013-03-31T08:12:05Z</time>
      </trkpt>
      <trkpt lat="41.611186244" lon="2.539602189">
        <ele>114.53</ele>
        <time>2013-03-31T08:12:13Z</time>
      </trkpt>
      <trkpt lat="41.611310380" lon="2.539473191">
        <ele>115.01</ele>
        <time>2013-03-31T08:12:19Z</time>
      </trkpt>
      <trkpt lat="41.611433175" lon="2.539283928">
        <ele>115.50</ele>
        <time>2013-03-31T08:12:26Z</time>
      </trkpt>
      <trkpt lat="41.611581953" lon="2.539076056">
        <ele>116.46</ele>
        <time>2013-03-31T08:12:34Z</time>
      </trkpt>
      <trkpt lat="41.611689912" lon="2.538885955">
        <ele>117.42</ele>
        <time>2013-03-31T08:12:41Z</time>
      </trkpt>
      <trkpt lat="41.611699384" lon="2.538715886">
        <ele>117.90</ele>
        <time>2013-03-31T08:12:46Z</time>
      </trkpt>
      <trkpt lat="41.611898035" lon="2.538454287">
        <ele>118.86</ele>
        <time>2013-03-31T08:12:55Z</time>
      </trkpt>
      <trkpt lat="41.612090316" lon="2.538248344">
        <ele>119.82</ele>
        <time>2013-03-31T08:13:03Z</time>
      </trkpt>
      <trkpt lat="41.612342946" lon="2.538076431">
        <ele>120.30</ele>
        <time>2013-03-31T08:13:11Z</time>
      </trkpt>
      <trkpt lat="41.612523660" lon="2.537931172">
        <ele>120.78</ele>
        <time>2013-03-31T08:13:17Z</time>
      </trkpt>
      <trkpt lat="41.612710074" lon="2.537753392">
        <ele>121.74</ele>
        <time>2013-03-31T08:13:25Z</time>
      </trkpt>
      <trkpt lat="41.612897242" lon="2.537570750">
        <ele>124.15</ele>
        <time>2013-03-31T08:13:33Z</time>
      </trkpt>
      <trkpt lat="41.613129923" lon="2.537350809">
        <ele>125.11</ele>
        <time>2013-03-31T08:13:42Z</time>
      </trkpt>
      <trkpt lat="41.613303848" lon="2.537154757">
        <ele>127.03</ele>
        <time>2013-03-31T08:13:50Z</time>
      </trkpt>
      <trkpt lat="41.613459751" lon="2.536949149">
        <ele>128.47</ele>
        <time>2013-03-31T08:13:59Z</time>
      </trkpt>
      <trkpt lat="41.613597466" lon="2.536696686">
        <ele>129.92</ele>
        <time>2013-03-31T08:14:09Z</time>
      </trkpt>
      <trkpt lat="41.613750352" lon="2.536425699">
        <ele>131.84</ele>
        <time>2013-03-31T08:14:19Z</time>
      </trkpt>
      <trkpt lat="41.613895610" lon="2.536123699">
        <ele>134.72</ele>
        <time>2013-03-31T08:14:29Z</time>
      </trkpt>
      <trkpt lat="41.614020668" lon="2.535813065">
        <ele>137.13</ele>
        <time>2013-03-31T08:14:39Z</time>
      </trkpt>
      <trkpt lat="41.614164166" lon="2.535440322">
        <ele>140.01</ele>
        <time>2013-03-31T08:14:51Z</time>
      </trkpt>
      <trkpt lat="41.614257625" lon="2.535161791">
        <ele>140.97</ele>
        <time>2013-03-31T08:15:00Z</time>
      </trkpt>
      <trkpt lat="41.614387879" lon="2.534810841">
        <ele>142.89</ele>
        <time>2013-03-31T08:15:11Z</time>
      </trkpt>
      <trkpt lat="41.614519727" lon="2.534452180">
        <ele>144.82</ele>
        <time>2013-03-31T08:15:22Z</time>
      </trkpt>
      <trkpt lat="41.614620393" lon="2.534175661">
        <ele>146.26</ele>
        <time>2013-03-31T08:15:31Z</time>
      </trkpt>
      <trkpt lat="41.614719048" lon="2.533884306">
        <ele>147.22</ele>
        <time>2013-03-31T08:15:40Z</time>
      </trkpt>
      <trkpt lat="41.614808567" lon="2.533571661">
        <ele>147.70</ele>
        <time>2013-03-31T08:15:49Z</time>
      </trkpt>
      <trkpt lat="41.614901019" lon="2.533259519">
        <ele>148.66</ele>
        <time>2013-03-31T08:15:58Z</time>
      </trkpt>
      <trkpt lat="41.615000848" lon="2.532912592">
        <ele>150.10</ele>
        <time>2013-03-31T08:16:08Z</time>
      </trkpt>
      <trkpt lat="41.615101179" lon="2.532554936">
        <ele>151.06</ele>
        <time>2013-03-31T08:16:18Z</time>
      </trkpt>
      <trkpt lat="41.615184998" lon="2.532222593">
        <ele>151.54</ele>
        <time>2013-03-31T08:16:27Z</time>
      </trkpt>
      <trkpt lat="41.615222465" lon="2.531964012">
        <ele>152.99</ele>
        <time>2013-03-31T08:16:34Z</time>
      </trkpt>
      <trkpt lat="41.615226153" lon="2.531682212">
        <ele>153.47</ele>
        <time>2013-03-31T08:16:42Z</time>
      </trkpt>
      <trkpt lat="41.615130264" lon="2.531414997">
        <ele>155.87</ele>
        <time>2013-03-31T08:16:51Z</time>
      </trkpt>
      <trkpt lat="41.615130851" lon="2.531097658">
        <ele>156.35</ele>
        <time>2013-03-31T08:17:00Z</time>
      </trkpt>
      <trkpt lat="41.615167899" lon="2.530719718">
        <ele>157.79</ele>
        <time>2013-03-31T08:17:10Z</time>
      </trkpt>
      <trkpt lat="41.615184914" lon="2.530319482">
        <ele>159.24</ele>
        <time>2013-03-31T08:17:21Z</time>
      </trkpt>
      <trkpt lat="41.615194637" lon="2.530031229">
        <ele>160.20</ele>
        <time>2013-03-31T08:17:29Z</time>
      </trkpt>
      <trkpt lat="41.615197571" lon="2.529729648">
        <ele>161.16</ele>
        <time>2013-03-31T08:17:37Z</time>
      </trkpt>
      <trkpt lat="41.615209641" lon="2.529398898">
        <ele>161.64</ele>
        <time>2013-03-31T08:17:46Z</time>
      </trkpt>
      <trkpt lat="41.615221962" lon="2.529086253">
        <ele>163.56</ele>
        <time>2013-03-31T08:17:55Z</time>
      </trkpt>
      <trkpt lat="41.615290610" lon="2.528669840">
        <ele>164.04</ele>
        <time>2013-03-31T08:18:06Z</time>
      </trkpt>
      <trkpt lat="41.615362695" lon="2.528286032">
        <ele>165.00</ele>
        <time>2013-03-31T08:18:16Z</time>
      </trkpt>
      <trkpt lat="41.615432684" lon="2.527905494">
        <ele>166.45</ele>
        <time>2013-03-31T08:18:26Z</time>
      </trkpt>
      <trkpt lat="41.615500828" lon="2.527577510">
        <ele>167.89</ele>
        <time>2013-03-31T08:18:35Z</time>
      </trkpt>
      <trkpt lat="41.615576936" lon="2.527222285">
        <ele>169.33</ele>
        <time>2013-03-31T08:18:45Z</time>
      </trkpt>
      <trkpt lat="41.615609709" lon="2.526903186">
        <ele>170.77</ele>
        <time>2013-03-31T08:18:54Z</time>
      </trkpt>
      <trkpt lat="41.615604261" lon="2.526622309">
        <ele>171.73</ele>
        <time>2013-03-31T08:19:02Z</time>
      </trkpt>
      <trkpt lat="41.615579534" lon="2.526361883">
        <ele>172.69</ele>
        <time>2013-03-31T08:19:09Z</time>
      </trkpt>
      <trkpt lat="41.615556149" lon="2.526078239">
        <ele>173.17</ele>
        <time>2013-03-31T08:19:17Z</time>
      </trkpt>
      <trkpt lat="41.615544917" lon="2.525814796">
        <ele>174.14</ele>
        <time>2013-03-31T08:19:24Z</time>
      </trkpt>
      <trkpt lat="41.615538631" lon="2.525422188">
        <ele>175.10</ele>
        <time>2013-03-31T08:19:34Z</time>
      </trkpt>
      <trkpt lat="41.615550701" lon="2.525137538">
        <ele>175.58</ele>
        <time>2013-03-31T08:19:42Z</time>
      </trkpt>
      <trkpt lat="41.615573332" lon="2.524781140">
        <ele>177.02</ele>
        <time>2013-03-31T08:19:52Z</time>
      </trkpt>
      <trkpt lat="41.615593113" lon="2.524515936">
        <ele>178.46</ele>
        <time>2013-03-31T08:19:59Z</time>
      </trkpt>
      <trkpt lat="41.615613230" lon="2.524194323">
        <ele>179.42</ele>
        <time>2013-03-31T08:20:08Z</time>
      </trkpt>
      <trkpt lat="41.615634184" lon="2.523984775">
        <ele>180.87</ele>
        <time>2013-03-31T08:20:14Z</time>
      </trkpt>
      <trkpt lat="41.615651200" lon="2.523694258">
        <ele>182.31</ele>
        <time>2013-03-31T08:20:23Z</time>
      </trkpt>
      <trkpt lat="41.615691265" lon="2.523255633">
        <ele>183.27</ele>
        <time>2013-03-31T08:20:35Z</time>
      </trkpt>
      <trkpt lat="41.615744155" lon="2.522863863">
        <ele>184.71</ele>
        <time>2013-03-31T08:20:46Z</time>
      </trkpt>
      <trkpt lat="41.615774665" lon="2.522599498">
        <ele>185.67</ele>
        <time>2013-03-31T08:20:54Z</time>
      </trkpt>
      <trkpt lat="41.615810121" lon="2.522316693">
        <ele>187.11</ele>
        <time>2013-03-31T08:21:02Z</time>
      </trkpt>
      <trkpt lat="41.615871476" lon="2.522001533">
        <ele>188.08</ele>
        <time>2013-03-31T08:21:11Z</time>
      </trkpt>
      <trkpt lat="41.615919085" lon="2.521680255">
        <ele>189.04</ele>
        <time>2013-03-31T08:21:20Z</time>
      </trkpt>
      <trkpt lat="41.615955547" lon="2.521391582">
        <ele>189.52</ele>
        <time>2013-03-31T08:21:28Z</time>
      </trkpt>
      <trkpt lat="41.616009610" lon="2.521048846">
        <ele>190.48</ele>
        <time>2013-03-31T08:21:37Z</time>
      </trkpt>
      <trkpt lat="41.616059650" lon="2.520781295">
        <ele>190.48</ele>
        <time>2013-03-31T08:21:44Z</time>
      </trkpt>
      <trkpt lat="41.616135841" lon="2.520506621">
        <ele>190.96</ele>
        <time>2013-03-31T08:21:52Z</time>
      </trkpt>
      <trkpt lat="41.616227791" lon="2.520252733">
        <ele>191.92</ele>
        <time>2013-03-31T08:22:00Z</time>
      </trkpt>
      <trkpt lat="41.616296690" lon="2.520025751">
        <ele>192.88</ele>
        <time>2013-03-31T08:22:06Z</time>
      </trkpt>
      <trkpt lat="41.616392831" lon="2.519739844">
        <ele>193.84</ele>
        <time>2013-03-31T08:22:14Z</time>
      </trkpt>
      <trkpt lat="41.616436249" lon="2.519505402">
        <ele>194.80</ele>
        <time>2013-03-31T08:22:21Z</time>
      </trkpt>
      <trkpt lat="41.616487378" lon="2.519216897">
        <ele>195.77</ele>
        <time>2013-03-31T08:22:29Z</time>
      </trkpt>
      <trkpt lat="41.616561474" lon="2.518874915">
        <ele>196.25</ele>
        <time>2013-03-31T08:22:38Z</time>
      </trkpt>
      <trkpt lat="41.616571533" lon="2.518638713">
        <ele>196.73</ele>
        <time>2013-03-31T08:22:44Z</time>
      </trkpt>
      <trkpt lat="41.616590560" lon="2.518336378">
        <ele>198.17</ele>
        <time>2013-03-31T08:22:53Z</time>
      </trkpt>
      <trkpt lat="41.616606988" lon="2.518051226">
        <ele>199.13</ele>
        <time>2013-03-31T08:23:01Z</time>
      </trkpt>
      <trkpt lat="41.616557200" lon="2.517763727">
        <ele>201.53</ele>
        <time>2013-03-31T08:23:10Z</time>
      </trkpt>
      <trkpt lat="41.616434740" lon="2.517538170">
        <ele>202.01</ele>
        <time>2013-03-31T08:23:18Z</time>
      </trkpt>
      <trkpt lat="41.616431220" lon="2.517301129">
        <ele>202.49</ele>
        <time>2013-03-31T08:23:24Z</time>
      </trkpt>
      <trkpt lat="41.616441278" lon="2.516953029">
        <ele>202.49</ele>
        <time>2013-03-31T08:23:33Z</time>
      </trkpt>
      <trkpt lat="41.616538424" lon="2.516674498">
        <ele>202.98</ele>
        <time>2013-03-31T08:23:41Z</time>
      </trkpt>
      <trkpt lat="41.616472542" lon="2.516365793">
        <ele>203.46</ele>
        <time>2013-03-31T08:23:49Z</time>
      </trkpt>
      <trkpt lat="41.616370032" lon="2.516074941">
        <ele>203.94</ele>
        <time>2013-03-31T08:23:58Z</time>
      </trkpt>
      <trkpt lat="41.616362320" lon="2.515819125">
        <ele>204.42</ele>
        <time>2013-03-31T08:24:05Z</time>
      </trkpt>
      <trkpt lat="41.616441529" lon="2.515406568">
        <ele>205.38</ele>
        <time>2013-03-31T08:24:17Z</time>
      </trkpt>
      <trkpt lat="41.616511937" lon="2.515119655">
        <ele>206.34</ele>
        <time>2013-03-31T08:24:26Z</time>
      </trkpt>
      <trkpt lat="41.616565162" lon="2.515027622">
        <ele>207.30</ele>
        <time>2013-03-31T08:24:30Z</time>
      </trkpt>
      <trkpt lat="41.616656609" lon="2.514751606">
        <ele>208.74</ele>
        <time>2013-03-31T08:24:39Z</time>
      </trkpt>
      <trkpt lat="41.616775045" lon="2.514698465">
        <ele>210.19</ele>
        <time>2013-03-31T08:24:45Z</time>
      </trkpt>
      <trkpt lat="41.616793318" lon="2.514684634">
        <ele>210.19</ele>
        <time>2013-03-31T08:24:46Z</time>
      </trkpt>
      <trkpt lat="41.616847214" lon="2.514634259">
        <ele>208.74</ele>
        <time>2013-03-31T08:24:49Z</time>
      </trkpt>
      <trkpt lat="41.616875041" lon="2.514360087">
        <ele>210.19</ele>
        <time>2013-03-31T08:24:57Z</time>
      </trkpt>
      <trkpt lat="41.616881076" lon="2.514035037">
        <ele>210.67</ele>
        <time>2013-03-31T08:25:06Z</time>
      </trkpt>
      <trkpt lat="41.616885603" lon="2.513710993">
        <ele>212.59</ele>
        <time>2013-03-31T08:25:15Z</time>
      </trkpt>
      <trkpt lat="41.616881496" lon="2.513393570">
        <ele>213.55</ele>
        <time>2013-03-31T08:25:24Z</time>
      </trkpt>
      <trkpt lat="41.616866911" lon="2.513102215">
        <ele>214.03</ele>
        <time>2013-03-31T08:25:33Z</time>
      </trkpt>
      <trkpt lat="41.616858026" lon="2.512845729">
        <ele>214.99</ele>
        <time>2013-03-31T08:25:41Z</time>
      </trkpt>
      <trkpt lat="41.616812512" lon="2.512578849">
        <ele>215.47</ele>
        <time>2013-03-31T08:25:49Z</time>
      </trkpt>
      <trkpt lat="41.616743110" lon="2.512382461">
        <ele>216.43</ele>
        <time>2013-03-31T08:25:56Z</time>
      </trkpt>
      <trkpt lat="41.616641270" lon="2.512181211">
        <ele>216.91</ele>
        <time>2013-03-31T08:26:04Z</time>
      </trkpt>
      <trkpt lat="41.616520235" lon="2.511968982">
        <ele>218.36</ele>
        <time>2013-03-31T08:26:12Z</time>
      </trkpt>
      <trkpt lat="41.616433483" lon="2.511786256">
        <ele>218.84</ele>
        <time>2013-03-31T08:26:19Z</time>
      </trkpt>
      <trkpt lat="41.616364835" lon="2.511569081">
        <ele>219.80</ele>
        <time>2013-03-31T08:26:26Z</time>
      </trkpt>
      <trkpt lat="41.616369529" lon="2.511299687">
        <ele>220.28</ele>
        <time>2013-03-31T08:26:33Z</time>
      </trkpt>
      <trkpt lat="41.616408169" lon="2.511046721">
        <ele>220.76</ele>
        <time>2013-03-31T08:26:41Z</time>
      </trkpt>
      <trkpt lat="41.616470531" lon="2.510808423">
        <ele>222.68</ele>
        <time>2013-03-31T08:26:50Z</time>
      </trkpt>
      <trkpt lat="41.616579496" lon="2.510624692">
        <ele>223.64</ele>
        <time>2013-03-31T08:26:58Z</time>
      </trkpt>
      <trkpt lat="41.616595002" lon="2.510610107">
        <ele>224.61</ele>
        <time>2013-03-31T08:26:59Z</time>
      </trkpt>
      <trkpt lat="41.616648898" lon="2.510536095">
        <ele>225.57</ele>
        <time>2013-03-31T08:27:03Z</time>
      </trkpt>
      <trkpt lat="41.616725089" lon="2.510366110">
        <ele>227.97</ele>
        <time>2013-03-31T08:27:11Z</time>
      </trkpt>
      <trkpt lat="41.616754174" lon="2.510281704">
        <ele>228.93</ele>
        <time>2013-03-31T08:27:14Z</time>
      </trkpt>
      <trkpt lat="41.616758784" lon="2.510132171">
        <ele>230.37</ele>
        <time>2013-03-31T08:27:21Z</time>
      </trkpt>
      <trkpt lat="41.616777476" lon="2.509961348">
        <ele>232.30</ele>
        <time>2013-03-31T08:27:30Z</time>
      </trkpt>
      <trkpt lat="41.616818464" lon="2.509796057">
        <ele>233.26</ele>
        <time>2013-03-31T08:27:38Z</time>
      </trkpt>
      <trkpt lat="41.616844280" lon="2.509741323">
        <ele>233.74</ele>
        <time>2013-03-31T08:27:41Z</time>
      </trkpt>
      <trkpt lat="41.616859870" lon="2.509723805">
        <ele>233.74</ele>
        <time>2013-03-31T08:27:43Z</time>
      </trkpt>
      <trkpt lat="41.616927931" lon="2.509560358">
        <ele>234.22</ele>
        <time>2013-03-31T08:27:51Z</time>
      </trkpt>
      <trkpt lat="41.616855847" lon="2.509521298">
        <ele>234.70</ele>
        <time>2013-03-31T08:27:57Z</time>
      </trkpt>
      <trkpt lat="41.616792312" lon="2.509583240">
        <ele>235.66</ele>
        <time>2013-03-31T08:28:02Z</time>
      </trkpt>
      <trkpt lat="41.616652418" lon="2.509797398">
        <ele>237.10</ele>
        <time>2013-03-31T08:28:14Z</time>
      </trkpt>
      <trkpt lat="41.616543789" lon="2.509840816">
        <ele>238.06</ele>
        <time>2013-03-31T08:28:21Z</time>
      </trkpt>
      <trkpt lat="41.616463322" lon="2.509814330">
        <ele>239.02</ele>
        <time>2013-03-31T08:28:26Z</time>
      </trkpt>
      <trkpt lat="41.616357878" lon="2.509661444">
        <ele>240.95</ele>
        <time>2013-03-31T08:28:37Z</time>
      </trkpt>
      <trkpt lat="41.616342958" lon="2.509475365">
        <ele>243.83</ele>
        <time>2013-03-31T08:28:47Z</time>
      </trkpt>
      <trkpt lat="41.616325943" lon="2.509323569">
        <ele>245.75</ele>
        <time>2013-03-31T08:28:55Z</time>
      </trkpt>
      <trkpt lat="41.616303312" lon="2.509134725">
        <ele>247.20</ele>
        <time>2013-03-31T08:29:04Z</time>
      </trkpt>
      <trkpt lat="41.616282776" lon="2.508951748">
        <ele>249.60</ele>
        <time>2013-03-31T08:29:14Z</time>
      </trkpt>
      <trkpt lat="41.616248578" lon="2.508805819">
        <ele>252.00</ele>
        <time>2013-03-31T08:29:22Z</time>
      </trkpt>
      <trkpt lat="41.616212871" lon="2.508628206">
        <ele>254.41</ele>
        <time>2013-03-31T08:29:32Z</time>
      </trkpt>
      <trkpt lat="41.616177499" lon="2.508445313">
        <ele>256.33</ele>
        <time>2013-03-31T08:29:42Z</time>
      </trkpt>
      <trkpt lat="41.616128968" lon="2.508289829">
        <ele>257.77</ele>
        <time>2013-03-31T08:29:51Z</time>
      </trkpt>
      <trkpt lat="41.616085131" lon="2.508158317">
        <ele>259.21</ele>
        <time>2013-03-31T08:29:58Z</time>
      </trkpt>
      <trkpt lat="41.616043976" lon="2.508033343">
        <ele>261.14</ele>
        <time>2013-03-31T08:30:06Z</time>
      </trkpt>
      <trkpt lat="41.615992176" lon="2.507887665">
        <ele>261.62</ele>
        <time>2013-03-31T08:30:14Z</time>
      </trkpt>
      <trkpt lat="41.615940208" lon="2.507765625">
        <ele>263.06</ele>
        <time>2013-03-31T08:30:21Z</time>
      </trkpt>
      <trkpt lat="41.615888659" lon="2.507625647">
        <ele>264.98</ele>
        <time>2013-03-31T08:30:29Z</time>
      </trkpt>
      <trkpt lat="41.615849516" lon="2.507451890">
        <ele>266.90</ele>
        <time>2013-03-31T08:30:38Z</time>
      </trkpt>
      <trkpt lat="41.615811210" lon="2.507304117">
        <ele>267.38</ele>
        <time>2013-03-31T08:30:46Z</time>
      </trkpt>
      <trkpt lat="41.615760500" lon="2.507141173">
        <ele>268.83</ele>
        <time>2013-03-31T08:30:55Z</time>
      </trkpt>
      <trkpt lat="41.615731415" lon="2.506941684">
        <ele>271.23</ele>
        <time>2013-03-31T08:31:06Z</time>
      </trkpt>
      <trkpt lat="41.615742646" lon="2.506787038">
        <ele>273.63</ele>
        <time>2013-03-31T08:31:14Z</time>
      </trkpt>
      <trkpt lat="41.615750525" lon="2.506634068">
        <ele>275.56</ele>
        <time>2013-03-31T08:31:22Z</time>
      </trkpt>
      <trkpt lat="41.615790926" lon="2.506433657">
        <ele>278.44</ele>
        <time>2013-03-31T08:31:33Z</time>
      </trkpt>
      <trkpt lat="41.615804086" lon="2.506379677">
        <ele>279.40</ele>
        <time>2013-03-31T08:31:36Z</time>
      </trkpt>
      <trkpt lat="41.615856137" lon="2.506223019">
        <ele>281.32</ele>
        <time>2013-03-31T08:31:45Z</time>
      </trkpt>
      <trkpt lat="41.615914140" lon="2.506042389">
        <ele>283.73</ele>
        <time>2013-03-31T08:31:56Z</time>
      </trkpt>
      <trkpt lat="41.615971305" lon="2.505883888">
        <ele>285.17</ele>
        <time>2013-03-31T08:32:06Z</time>
      </trkpt>
      <trkpt lat="41.616003072" lon="2.505806439">
        <ele>287.09</ele>
        <time>2013-03-31T08:32:11Z</time>
      </trkpt>
      <trkpt lat="41.616051017" lon="2.505681297">
        <ele>288.05</ele>
        <time>2013-03-31T08:32:20Z</time>
      </trkpt>
      <trkpt lat="41.616102901" lon="2.505520700">
        <ele>289.97</ele>
        <time>2013-03-31T08:32:29Z</time>
      </trkpt>
      <trkpt lat="41.616147073" lon="2.505348787">
        <ele>291.42</ele>
        <time>2013-03-31T08:32:38Z</time>
      </trkpt>
      <trkpt lat="41.616184373" lon="2.505167905">
        <ele>294.78</ele>
        <time>2013-03-31T08:32:48Z</time>
      </trkpt>
      <trkpt lat="41.616173644" lon="2.504963638">
        <ele>295.74</ele>
        <time>2013-03-31T08:32:57Z</time>
      </trkpt>
      <trkpt lat="41.616100554" lon="2.504888537">
        <ele>296.70</ele>
        <time>2013-03-31T08:33:04Z</time>
      </trkpt>
      <trkpt lat="41.616080437" lon="2.504874287">
        <ele>296.70</ele>
        <time>2013-03-31T08:33:06Z</time>
      </trkpt>
      <trkpt lat="41.615984967" lon="2.504851153">
        <ele>297.18</ele>
        <time>2013-03-31T08:33:13Z</time>
      </trkpt>
      <trkpt lat="41.615795536" lon="2.504849225">
        <ele>298.15</ele>
        <time>2013-03-31T08:33:25Z</time>
      </trkpt>
      <trkpt lat="41.615704341" lon="2.504837239">
        <ele>299.11</ele>
        <time>2013-03-31T08:33:32Z</time>
      </trkpt>
      <trkpt lat="41.615650948" lon="2.504850483">
        <ele>300.07</ele>
        <time>2013-03-31T08:33:36Z</time>
      </trkpt>
      <trkpt lat="41.615581798" lon="2.504844699">
        <ele>300.55</ele>
        <time>2013-03-31T08:33:41Z</time>
      </trkpt>
      <trkpt lat="41.615538212" lon="2.504843861">
        <ele>301.51</ele>
        <time>2013-03-31T08:33:45Z</time>
      </trkpt>
      <trkpt lat="41.615456069" lon="2.504834809">
        <ele>301.99</ele>
        <time>2013-03-31T08:33:51Z</time>
      </trkpt>
      <trkpt lat="41.615413321" lon="2.504796671">
        <ele>302.47</ele>
        <time>2013-03-31T08:33:55Z</time>
      </trkpt>
      <trkpt lat="41.615377195" lon="2.504665326">
        <ele>303.91</ele>
        <time>2013-03-31T08:34:03Z</time>
      </trkpt>
      <trkpt lat="41.615370993" lon="2.504500706">
        <ele>305.84</ele>
        <time>2013-03-31T08:34:12Z</time>
      </trkpt>
      <trkpt lat="41.615379375" lon="2.504358046">
        <ele>307.76</ele>
        <time>2013-03-31T08:34:21Z</time>
      </trkpt>
      <trkpt lat="41.615387086" lon="2.504237849">
        <ele>309.20</ele>
        <time>2013-03-31T08:34:29Z</time>
      </trkpt>
      <trkpt lat="41.615386332" lon="2.504204406">
        <ele>309.68</ele>
        <time>2013-03-31T08:34:32Z</time>
      </trkpt>
      <trkpt lat="41.615401587" lon="2.504103236">
        <ele>311.12</ele>
        <time>2013-03-31T08:34:40Z</time>
      </trkpt>
      <trkpt lat="41.615404520" lon="2.504059818">
        <ele>311.60</ele>
        <time>2013-03-31T08:34:43Z</time>
      </trkpt>
      <trkpt lat="41.615420697" lon="2.503952026">
        <ele>314.01</ele>
        <time>2013-03-31T08:34:51Z</time>
      </trkpt>
      <trkpt lat="41.615442742" lon="2.503810540">
        <ele>315.93</ele>
        <time>2013-03-31T08:35:00Z</time>
      </trkpt>
      <trkpt lat="41.615442826" lon="2.503663186">
        <ele>317.37</ele>
        <time>2013-03-31T08:35:08Z</time>
      </trkpt>
      <trkpt lat="41.615437210" lon="2.503508372">
        <ele>318.81</ele>
        <time>2013-03-31T08:35:17Z</time>
      </trkpt>
      <trkpt lat="41.615399072" lon="2.503280720">
        <ele>319.30</ele>
        <time>2013-03-31T08:35:28Z</time>
      </trkpt>
      <trkpt lat="41.615310224" lon="2.503062790">
        <ele>319.30</ele>
        <time>2013-03-31T08:35:35Z</time>
      </trkpt>
      <trkpt lat="41.615178209" lon="2.502757857">
        <ele>319.78</ele>
        <time>2013-03-31T08:35:45Z</time>
      </trkpt>
      <trkpt lat="41.615103107" lon="2.502409672">
        <ele>320.26</ele>
        <time>2013-03-31T08:35:55Z</time>
      </trkpt>
      <trkpt lat="41.615038986" lon="2.502170202">
        <ele>321.70</ele>
        <time>2013-03-31T08:36:03Z</time>
      </trkpt>
      <trkpt lat="41.614979977" lon="2.501948668">
        <ele>323.14</ele>
        <time>2013-03-31T08:36:28Z</time>
      </trkpt>
      <trkpt lat="41.614961537" lon="2.501713220">
        <ele>324.10</ele>
        <time>2013-03-31T08:36:36Z</time>
      </trkpt>
      <trkpt lat="41.614980564" lon="2.501520855">
        <ele>324.10</ele>
        <time>2013-03-31T08:36:40Z</time>
      </trkpt>
      <trkpt lat="41.614975870" lon="2.501485065">
        <ele>324.10</ele>
        <time>2013-03-31T08:36:41Z</time>
      </trkpt>
      <trkpt lat="41.614945695" lon="2.501438713">
        <ele>324.10</ele>
        <time>2013-03-31T08:36:43Z</time>
      </trkpt>
      <trkpt lat="41.614795743" lon="2.501449274">
        <ele>324.10</ele>
        <time>2013-03-31T08:36:51Z</time>
      </trkpt>
      <trkpt lat="41.614688790" lon="2.501408287">
        <ele>324.10</ele>
        <time>2013-03-31T08:36:59Z</time>
      </trkpt>
      <trkpt lat="41.614548393" lon="2.501319438">
        <ele>325.06</ele>
        <time>2013-03-31T08:37:10Z</time>
      </trkpt>
      <trkpt lat="41.614459964" lon="2.501256239">
        <ele>325.54</ele>
        <time>2013-03-31T08:37:17Z</time>
      </trkpt>
      <trkpt lat="41.614359884" lon="2.501187340">
        <ele>326.99</ele>
        <time>2013-03-31T08:37:25Z</time>
      </trkpt>
      <trkpt lat="41.614298696" lon="2.501123805">
        <ele>327.47</ele>
        <time>2013-03-31T08:37:31Z</time>
      </trkpt>
      <trkpt lat="41.614251422" lon="2.500944600">
        <ele>328.91</ele>
        <time>2013-03-31T08:37:42Z</time>
      </trkpt>
      <trkpt lat="41.614209680" lon="2.500818201">
        <ele>330.35</ele>
        <time>2013-03-31T08:37:50Z</time>
      </trkpt>
      <trkpt lat="41.614152935" lon="2.500658190">
        <ele>332.75</ele>
        <time>2013-03-31T08:38:00Z</time>
      </trkpt>
      <trkpt lat="41.614094177" lon="2.500553165">
        <ele>335.16</ele>
        <time>2013-03-31T08:38:09Z</time>
      </trkpt>
      <trkpt lat="41.614069283" lon="2.500518296">
        <ele>336.12</ele>
        <time>2013-03-31T08:38:12Z</time>
      </trkpt>
      <trkpt lat="41.613997199" lon="2.500401620">
        <ele>338.04</ele>
        <time>2013-03-31T08:38:21Z</time>
      </trkpt>
      <trkpt lat="41.613937520" lon="2.500296762">
        <ele>340.44</ele>
        <time>2013-03-31T08:38:29Z</time>
      </trkpt>
      <trkpt lat="41.613867698" lon="2.500173297">
        <ele>342.37</ele>
        <time>2013-03-31T08:38:38Z</time>
      </trkpt>
      <trkpt lat="41.613815312" lon="2.500053436">
        <ele>344.29</ele>
        <time>2013-03-31T08:38:47Z</time>
      </trkpt>
      <trkpt lat="41.613828974" lon="2.500024015">
        <ele>344.29</ele>
        <time>2013-03-31T08:38:49Z</time>
      </trkpt>
      <trkpt lat="41.613853449" lon="2.500013538">
        <ele>344.77</ele>
        <time>2013-03-31T08:38:51Z</time>
      </trkpt>
      <trkpt lat="41.613933915" lon="2.500087969">
        <ele>346.69</ele>
        <time>2013-03-31T08:39:00Z</time>
      </trkpt>
      <trkpt lat="41.614018405" lon="2.500178410">
        <ele>348.62</ele>
        <time>2013-03-31T08:39:09Z</time>
      </trkpt>
      <trkpt lat="41.614141954" lon="2.500251752">
        <ele>351.02</ele>
        <time>2013-03-31T08:39:20Z</time>
      </trkpt>
      <trkpt lat="41.614175817" lon="2.500252590">
        <ele>351.02</ele>
        <time>2013-03-31T08:39:23Z</time>
      </trkpt>
      <trkpt lat="41.614302216" lon="2.500332805">
        <ele>353.42</ele>
        <time>2013-03-31T08:39:34Z</time>
      </trkpt>
      <trkpt lat="41.614412774" lon="2.500413858">
        <ele>355.34</ele>
        <time>2013-03-31T08:39:44Z</time>
      </trkpt>
      <trkpt lat="41.614514698" lon="2.500506058">
        <ele>357.75</ele>
        <time>2013-03-31T08:39:54Z</time>
      </trkpt>
      <trkpt lat="41.614597846" lon="2.500578562">
        <ele>359.19</ele>
        <time>2013-03-31T08:40:02Z</time>
      </trkpt>
      <trkpt lat="41.614610167" lon="2.500582501">
        <ele>360.15</ele>
        <time>2013-03-31T08:40:03Z</time>
      </trkpt>
      <trkpt lat="41.614671942" lon="2.500588201">
        <ele>360.63</ele>
        <time>2013-03-31T08:40:08Z</time>
      </trkpt>
      <trkpt lat="41.614801191" lon="2.500535060">
        <ele>361.11</ele>
        <time>2013-03-31T08:40:18Z</time>
      </trkpt>
      <trkpt lat="41.614950724" lon="2.500510249">
        <ele>361.59</ele>
        <time>2013-03-31T08:40:26Z</time>
      </trkpt>
      <trkpt lat="41.615090786" lon="2.500615275">
        <ele>361.59</ele>
        <time>2013-03-31T08:40:34Z</time>
      </trkpt>
      <trkpt lat="41.615129175" lon="2.500625752">
        <ele>362.07</ele>
        <time>2013-03-31T08:40:36Z</time>
      </trkpt>
      <trkpt lat="41.615265381" lon="2.500552159">
        <ele>363.52</ele>
        <time>2013-03-31T08:40:45Z</time>
      </trkpt>
      <trkpt lat="41.615411477" lon="2.500478147">
        <ele>364.48</ele>
        <time>2013-03-31T08:40:53Z</time>
      </trkpt>
      <trkpt lat="41.615572997" lon="2.500453839">
        <ele>365.92</ele>
        <time>2013-03-31T08:41:02Z</time>
      </trkpt>
      <trkpt lat="41.615749100" lon="2.500426430">
        <ele>368.32</ele>
        <time>2013-03-31T08:41:13Z</time>
      </trkpt>
      <trkpt lat="41.615780030" lon="2.500305396">
        <ele>369.76</ele>
        <time>2013-03-31T08:41:20Z</time>
      </trkpt>
      <trkpt lat="41.615772151" lon="2.500288800">
        <ele>370.24</ele>
        <time>2013-03-31T08:41:21Z</time>
      </trkpt>
      <trkpt lat="41.615664695" lon="2.500226690">
        <ele>372.17</ele>
        <time>2013-03-31T08:41:29Z</time>
      </trkpt>
      <trkpt lat="41.615541229" lon="2.500233814">
        <ele>374.57</ele>
        <time>2013-03-31T08:41:38Z</time>
      </trkpt>
      <trkpt lat="41.615417931" lon="2.500246052">
        <ele>376.01</ele>
        <time>2013-03-31T08:41:47Z</time>
      </trkpt>
      <trkpt lat="41.615308967" lon="2.500245297">
        <ele>377.94</ele>
        <time>2013-03-31T08:41:55Z</time>
      </trkpt>
      <trkpt lat="41.615244845" lon="2.500227444">
        <ele>378.90</ele>
        <time>2013-03-31T08:42:00Z</time>
      </trkpt>
      <trkpt lat="41.615163289" lon="2.500109175">
        <ele>379.38</ele>
        <time>2013-03-31T08:42:09Z</time>
      </trkpt>
      <trkpt lat="41.615096485" lon="2.499990991">
        <ele>381.30</ele>
        <time>2013-03-31T08:42:17Z</time>
      </trkpt>
      <trkpt lat="41.615015684" lon="2.499971544">
        <ele>382.26</ele>
        <time>2013-03-31T08:42:22Z</time>
      </trkpt>
      <trkpt lat="41.614956927" lon="2.499984034">
        <ele>382.74</ele>
        <time>2013-03-31T08:42:26Z</time>
      </trkpt>
      <trkpt lat="41.614800939" lon="2.499986297">
        <ele>385.63</ele>
        <time>2013-03-31T08:42:39Z</time>
      </trkpt>
      <trkpt lat="41.614717372" lon="2.499919158">
        <ele>387.55</ele>
        <time>2013-03-31T08:42:48Z</time>
      </trkpt>
      <trkpt lat="41.614660124" lon="2.499781443">
        <ele>389.95</ele>
        <time>2013-03-31T08:42:58Z</time>
      </trkpt>
      <trkpt lat="41.614609916" lon="2.499657810">
        <ele>392.36</ele>
        <time>2013-03-31T08:43:07Z</time>
      </trkpt>
      <trkpt lat="41.614600612" lon="2.499616906">
        <ele>392.84</ele>
        <time>2013-03-31T08:43:10Z</time>
      </trkpt>
      <trkpt lat="41.614566330" lon="2.499458572">
        <ele>395.24</ele>
        <time>2013-03-31T08:43:20Z</time>
      </trkpt>
      <trkpt lat="41.614574125" lon="2.499326976">
        <ele>396.68</ele>
        <time>2013-03-31T08:43:28Z</time>
      </trkpt>
      <trkpt lat="41.614601702" lon="2.499160260">
        <ele>398.60</ele>
        <time>2013-03-31T08:43:38Z</time>
      </trkpt>
      <trkpt lat="41.614644030" lon="2.498980720">
        <ele>399.57</ele>
        <time>2013-03-31T08:43:49Z</time>
      </trkpt>
      <trkpt lat="41.614653753" lon="2.498810986">
        <ele>401.01</ele>
        <time>2013-03-31T08:43:58Z</time>
      </trkpt>
      <trkpt lat="41.614669260" lon="2.498673942">
        <ele>401.97</ele>
        <time>2013-03-31T08:44:06Z</time>
      </trkpt>
      <trkpt lat="41.614690047" lon="2.498484846">
        <ele>403.89</ele>
        <time>2013-03-31T08:44:17Z</time>
      </trkpt>
      <trkpt lat="41.614704212" lon="2.498343276">
        <ele>404.85</ele>
        <time>2013-03-31T08:44:25Z</time>
      </trkpt>
      <trkpt lat="41.614721731" lon="2.498162897">
        <ele>405.81</ele>
        <time>2013-03-31T08:44:35Z</time>
      </trkpt>
      <trkpt lat="41.614714522" lon="2.498006826">
        <ele>407.26</ele>
        <time>2013-03-31T08:44:44Z</time>
      </trkpt>
      <trkpt lat="41.614659872" lon="2.497797949">
        <ele>407.74</ele>
        <time>2013-03-31T08:44:52Z</time>
      </trkpt>
      <trkpt lat="41.614572449" lon="2.497566106">
        <ele>406.29</ele>
        <time>2013-03-31T08:44:56Z</time>
      </trkpt>
      <trkpt lat="41.614426268" lon="2.497447251">
        <ele>404.37</ele>
        <time>2013-03-31T08:44:59Z</time>
      </trkpt>
      <trkpt lat="41.614274053" lon="2.497519083">
        <ele>403.41</ele>
        <time>2013-03-31T08:45:02Z</time>
      </trkpt>
      <trkpt lat="41.614178248" lon="2.497669287">
        <ele>404.85</ele>
        <time>2013-03-31T08:45:07Z</time>
      </trkpt>
      <trkpt lat="41.613972891" lon="2.497803398">
        <ele>407.26</ele>
        <time>2013-03-31T08:45:18Z</time>
      </trkpt>
      <trkpt lat="41.613799721" lon="2.497795938">
        <ele>409.66</ele>
        <time>2013-03-31T08:45:27Z</time>
      </trkpt>
      <trkpt lat="41.613680614" lon="2.497633999">
        <ele>411.10</ele>
        <time>2013-03-31T08:45:36Z</time>
      </trkpt>
      <trkpt lat="41.613539463" lon="2.497387739">
        <ele>413.02</ele>
        <time>2013-03-31T08:45:48Z</time>
      </trkpt>
      <trkpt lat="41.613379788" lon="2.497324959">
        <ele>414.47</ele>
        <time>2013-03-31T08:45:58Z</time>
      </trkpt>
      <trkpt lat="41.613364952" lon="2.497318924">
        <ele>414.47</ele>
        <time>2013-03-31T08:46:04Z</time>
      </trkpt>
      <trkpt lat="41.613374423" lon="2.497313140">
        <ele>414.47</ele>
        <time>2013-03-31T08:46:20Z</time>
      </trkpt>
      <trkpt lat="41.613375681" lon="2.497317080">
        <ele>414.47</ele>
        <time>2013-03-31T08:46:40Z</time>
      </trkpt>
      <trkpt lat="41.613375597" lon="2.497323198">
        <ele>414.47</ele>
        <time>2013-03-31T08:46:55Z</time>
      </trkpt>
      <trkpt lat="41.613372579" lon="2.497327305">
        <ele>414.47</ele>
        <time>2013-03-31T08:47:14Z</time>
      </trkpt>
      <trkpt lat="41.613373501" lon="2.497321187">
        <ele>414.47</ele>
        <time>2013-03-31T08:47:28Z</time>
      </trkpt>
      <trkpt lat="41.613362605" lon="2.497314481">
        <ele>414.47</ele>
        <time>2013-03-31T08:47:53Z</time>
      </trkpt>
      <trkpt lat="41.613356654" lon="2.497322360">
        <ele>414.47</ele>
        <time>2013-03-31T08:48:09Z</time>
      </trkpt>
      <trkpt lat="41.613350032" lon="2.497316996">
        <ele>414.47</ele>
        <time>2013-03-31T08:48:23Z</time>
      </trkpt>
      <trkpt lat="41.613362773" lon="2.497320851">
        <ele>414.47</ele>
        <time>2013-03-31T08:48:39Z</time>
      </trkpt>
      <trkpt lat="41.613365958" lon="2.497325294">
        <ele>414.47</ele>
        <time>2013-03-31T08:48:42Z</time>
      </trkpt>
      <trkpt lat="41.613371154" lon="2.497320851">
        <ele>414.47</ele>
        <time>2013-03-31T08:48:53Z</time>
      </trkpt>
      <trkpt lat="41.613359504" lon="2.497321438">
        <ele>414.47</ele>
        <time>2013-03-31T08:48:59Z</time>
      </trkpt>
      <trkpt lat="41.613250790" lon="2.497388912">
        <ele>414.95</ele>
        <time>2013-03-31T08:49:07Z</time>
      </trkpt>
      <trkpt lat="41.613091618" lon="2.497367958">
        <ele>416.39</ele>
        <time>2013-03-31T08:49:17Z</time>
      </trkpt>
      <trkpt lat="41.613018109" lon="2.497273410">
        <ele>417.35</ele>
        <time>2013-03-31T08:49:23Z</time>
      </trkpt>
      <trkpt lat="41.612946779" lon="2.497089176">
        <ele>418.31</ele>
        <time>2013-03-31T08:49:32Z</time>
      </trkpt>
      <trkpt lat="41.612876455" lon="2.496926483">
        <ele>420.23</ele>
        <time>2013-03-31T08:49:40Z</time>
      </trkpt>
      <trkpt lat="41.612827923" lon="2.496765802">
        <ele>421.68</ele>
        <time>2013-03-31T08:49:48Z</time>
      </trkpt>
      <trkpt lat="41.612772854" lon="2.496545693">
        <ele>423.12</ele>
        <time>2013-03-31T08:49:58Z</time>
      </trkpt>
      <trkpt lat="41.612698674" lon="2.496367410">
        <ele>425.04</ele>
        <time>2013-03-31T08:50:06Z</time>
      </trkpt>
      <trkpt lat="41.612619549" lon="2.496154845">
        <ele>426.00</ele>
        <time>2013-03-31T08:50:15Z</time>
      </trkpt>
      <trkpt lat="41.612583591" lon="2.495986452">
        <ele>427.44</ele>
        <time>2013-03-31T08:50:22Z</time>
      </trkpt>
      <trkpt lat="41.612590967" lon="2.495814037">
        <ele>429.37</ele>
        <time>2013-03-31T08:50:30Z</time>
      </trkpt>
      <trkpt lat="41.612679312" lon="2.495803392">
        <ele>429.37</ele>
        <time>2013-03-31T08:50:36Z</time>
      </trkpt>
      <trkpt lat="41.612857344" lon="2.495817725">
        <ele>430.81</ele>
        <time>2013-03-31T08:50:46Z</time>
      </trkpt>
      <trkpt lat="41.613016935" lon="2.495849492">
        <ele>432.25</ele>
        <time>2013-03-31T08:50:55Z</time>
      </trkpt>
      <trkpt lat="41.613225812" lon="2.495914284">
        <ele>433.69</ele>
        <time>2013-03-31T08:51:06Z</time>
      </trkpt>
      <trkpt lat="41.613384733" lon="2.495916128">
        <ele>434.65</ele>
        <time>2013-03-31T08:51:14Z</time>
      </trkpt>
      <trkpt lat="41.613567710" lon="2.495862065">
        <ele>435.61</ele>
        <time>2013-03-31T08:51:23Z</time>
      </trkpt>
      <trkpt lat="41.613729565" lon="2.495814121">
        <ele>436.10</ele>
        <time>2013-03-31T08:51:31Z</time>
      </trkpt>
      <trkpt lat="41.613917403" lon="2.495752346">
        <ele>437.54</ele>
        <time>2013-03-31T08:51:40Z</time>
      </trkpt>
      <trkpt lat="41.614087975" lon="2.495702306">
        <ele>438.02</ele>
        <time>2013-03-31T08:51:48Z</time>
      </trkpt>
      <trkpt lat="41.614281764" lon="2.495654697">
        <ele>439.94</ele>
        <time>2013-03-31T08:51:57Z</time>
      </trkpt>
      <trkpt lat="41.614436997" lon="2.495633407">
        <ele>440.90</ele>
        <time>2013-03-31T08:52:05Z</time>
      </trkpt>
      <trkpt lat="41.614579238" lon="2.495602813">
        <ele>442.82</ele>
        <time>2013-03-31T08:52:13Z</time>
      </trkpt>
      <trkpt lat="41.614724329" lon="2.495539446">
        <ele>444.27</ele>
        <time>2013-03-31T08:52:22Z</time>
      </trkpt>
      <trkpt lat="41.614855422" lon="2.495464679">
        <ele>446.19</ele>
        <time>2013-03-31T08:52:31Z</time>
      </trkpt>
      <trkpt lat="41.614985258" lon="2.495398462">
        <ele>447.63</ele>
        <time>2013-03-31T08:52:39Z</time>
      </trkpt>
      <trkpt lat="41.615143089" lon="2.495434504">
        <ele>449.55</ele>
        <time>2013-03-31T08:52:47Z</time>
      </trkpt>
      <trkpt lat="41.615216430" lon="2.495556712">
        <ele>450.52</ele>
        <time>2013-03-31T08:52:55Z</time>
      </trkpt>
      <trkpt lat="41.615317851" lon="2.495690907">
        <ele>452.92</ele>
        <time>2013-03-31T08:53:04Z</time>
      </trkpt>
      <trkpt lat="41.615426649" lon="2.495853767">
        <ele>454.84</ele>
        <time>2013-03-31T08:53:14Z</time>
      </trkpt>
      <trkpt lat="41.615472833" lon="2.495976227">
        <ele>456.76</ele>
        <time>2013-03-31T08:53:21Z</time>
      </trkpt>
      <trkpt lat="41.615489932" lon="2.496048562">
        <ele>456.76</ele>
        <time>2013-03-31T08:53:25Z</time>
      </trkpt>
      <trkpt lat="41.615531506" lon="2.496225169">
        <ele>457.72</ele>
        <time>2013-03-31T08:53:34Z</time>
      </trkpt>
      <trkpt lat="41.615603339" lon="2.496425077">
        <ele>459.17</ele>
        <time>2013-03-31T08:53:44Z</time>
      </trkpt>
      <trkpt lat="41.615703754" lon="2.496595733">
        <ele>462.05</ele>
        <time>2013-03-31T08:53:55Z</time>
      </trkpt>
      <trkpt lat="41.615785562" lon="2.496746188">
        <ele>463.49</ele>
        <time>2013-03-31T08:54:04Z</time>
      </trkpt>
      <trkpt lat="41.615910452" lon="2.496809304">
        <ele>464.45</ele>
        <time>2013-03-31T08:54:13Z</time>
      </trkpt>
      <trkpt lat="41.615996618" lon="2.496792959">
        <ele>465.42</ele>
        <time>2013-03-31T08:54:19Z</time>
      </trkpt>
      <trkpt lat="41.616111199" lon="2.496694975">
        <ele>467.34</ele>
        <time>2013-03-31T08:54:29Z</time>
      </trkpt>
      <trkpt lat="41.616190408" lon="2.496611910">
        <ele>469.26</ele>
        <time>2013-03-31T08:54:36Z</time>
      </trkpt>
      <trkpt lat="41.616277076" lon="2.496447792">
        <ele>470.22</ele>
        <time>2013-03-31T08:54:45Z</time>
      </trkpt>
      <trkpt lat="41.616332900" lon="2.496219218">
        <ele>471.66</ele>
        <time>2013-03-31T08:54:56Z</time>
      </trkpt>
      <trkpt lat="41.616361734" lon="2.495997600">
        <ele>473.59</ele>
        <time>2013-03-31T08:55:07Z</time>
      </trkpt>
      <trkpt lat="41.616358465" lon="2.495819988">
        <ele>475.03</ele>
        <time>2013-03-31T08:55:16Z</time>
      </trkpt>
      <trkpt lat="41.616361818" lon="2.495652685">
        <ele>476.95</ele>
        <time>2013-03-31T08:55:25Z</time>
      </trkpt>
      <trkpt lat="41.616407918" lon="2.495490663">
        <ele>478.87</ele>
        <time>2013-03-31T08:55:33Z</time>
      </trkpt>
      <trkpt lat="41.616533730" lon="2.495435594">
        <ele>479.35</ele>
        <time>2013-03-31T08:55:40Z</time>
      </trkpt>
      <trkpt lat="41.616700865" lon="2.495489238">
        <ele>479.84</ele>
        <time>2013-03-31T08:55:47Z</time>
      </trkpt>
      <trkpt lat="41.616934469" lon="2.495574566">
        <ele>480.32</ele>
        <time>2013-03-31T08:55:56Z</time>
      </trkpt>
      <trkpt lat="41.617239906" lon="2.495668611">
        <ele>481.76</ele>
        <time>2013-03-31T08:56:08Z</time>
      </trkpt>
      <trkpt lat="41.617435707" lon="2.495648159">
        <ele>482.72</ele>
        <time>2013-03-31T08:56:16Z</time>
      </trkpt>
      <trkpt lat="41.617601669" lon="2.495636257">
        <ele>483.68</ele>
        <time>2013-03-31T08:56:24Z</time>
      </trkpt>
      <trkpt lat="41.617815575" lon="2.495666934">
        <ele>485.60</ele>
        <time>2013-03-31T08:56:34Z</time>
      </trkpt>
      <trkpt lat="41.617971562" lon="2.495708257">
        <ele>487.05</ele>
        <time>2013-03-31T08:56:42Z</time>
      </trkpt>
      <trkpt lat="41.618111372" lon="2.495747652">
        <ele>488.49</ele>
        <time>2013-03-31T08:56:49Z</time>
      </trkpt>
      <trkpt lat="41.618299546" lon="2.495754274">
        <ele>490.41</ele>
        <time>2013-03-31T08:56:58Z</time>
      </trkpt>
      <trkpt lat="41.618427202" lon="2.495690990">
        <ele>491.85</ele>
        <time>2013-03-31T08:57:06Z</time>
      </trkpt>
      <trkpt lat="41.618522169" lon="2.495583618">
        <ele>492.81</ele>
        <time>2013-03-31T08:57:13Z</time>
      </trkpt>
      <trkpt lat="41.618659381" lon="2.495435175">
        <ele>494.26</ele>
        <time>2013-03-31T08:57:20Z</time>
      </trkpt>
      <trkpt lat="41.618784020" lon="2.495264100">
        <ele>494.74</ele>
        <time>2013-03-31T08:57:27Z</time>
      </trkpt>
      <trkpt lat="41.618937912" lon="2.495108280">
        <ele>495.70</ele>
        <time>2013-03-31T08:57:35Z</time>
      </trkpt>
      <trkpt lat="41.619117871" lon="2.495054636">
        <ele>496.18</ele>
        <time>2013-03-31T08:57:42Z</time>
      </trkpt>
      <trkpt lat="41.619360862" lon="2.495130576">
        <ele>497.14</ele>
        <time>2013-03-31T08:57:51Z</time>
      </trkpt>
      <trkpt lat="41.619556915" lon="2.495235853">
        <ele>498.10</ele>
        <time>2013-03-31T08:57:59Z</time>
      </trkpt>
      <trkpt lat="41.619766379" lon="2.495353283">
        <ele>499.06</ele>
        <time>2013-03-31T08:58:08Z</time>
      </trkpt>
      <trkpt lat="41.619921025" lon="2.495241720">
        <ele>500.02</ele>
        <time>2013-03-31T08:58:16Z</time>
      </trkpt>
      <trkpt lat="41.620070223" lon="2.495118339">
        <ele>501.46</ele>
        <time>2013-03-31T08:58:24Z</time>
      </trkpt>
      <trkpt lat="41.620207602" lon="2.494985486">
        <ele>503.39</ele>
        <time>2013-03-31T08:58:32Z</time>
      </trkpt>
      <trkpt lat="41.620285638" lon="2.494864116">
        <ele>503.87</ele>
        <time>2013-03-31T08:58:38Z</time>
      </trkpt>
      <trkpt lat="41.620362332" lon="2.494805945">
        <ele>504.83</ele>
        <time>2013-03-31T08:58:43Z</time>
      </trkpt>
      <trkpt lat="41.620493760" lon="2.494848190">
        <ele>506.75</ele>
        <time>2013-03-31T08:58:51Z</time>
      </trkpt>
      <trkpt lat="41.620650418" lon="2.494983055">
        <ele>508.67</ele>
        <time>2013-03-31T08:59:01Z</time>
      </trkpt>
      <trkpt lat="41.620804561" lon="2.495116159">
        <ele>510.12</ele>
        <time>2013-03-31T08:59:10Z</time>
      </trkpt>
      <trkpt lat="41.620953508" lon="2.495227890">
        <ele>511.56</ele>
        <time>2013-03-31T08:59:19Z</time>
      </trkpt>
      <trkpt lat="41.621101616" lon="2.495249516">
        <ele>512.52</ele>
        <time>2013-03-31T08:59:27Z</time>
      </trkpt>
      <trkpt lat="41.621192476" lon="2.495151028">
        <ele>513.00</ele>
        <time>2013-03-31T08:59:34Z</time>
      </trkpt>
      <trkpt lat="41.621236481" lon="2.494948270">
        <ele>513.96</ele>
        <time>2013-03-31T08:59:43Z</time>
      </trkpt>
      <trkpt lat="41.621355420" lon="2.494811813">
        <ele>514.44</ele>
        <time>2013-03-31T08:59:51Z</time>
      </trkpt>
      <trkpt lat="41.621419458" lon="2.494719444">
        <ele>513.96</ele>
        <time>2013-03-31T08:59:55Z</time>
      </trkpt>
      <trkpt lat="41.621415351" lon="2.494473519">
        <ele>514.44</ele>
        <time>2013-03-31T09:00:04Z</time>
      </trkpt>
      <trkpt lat="41.621404119" lon="2.494221224">
        <ele>514.92</ele>
        <time>2013-03-31T09:00:11Z</time>
      </trkpt>
      <trkpt lat="41.621461200" lon="2.493994326">
        <ele>514.92</ele>
        <time>2013-03-31T09:00:18Z</time>
      </trkpt>
      <trkpt lat="41.621646440" lon="2.493853174">
        <ele>514.92</ele>
        <time>2013-03-31T09:00:25Z</time>
      </trkpt>
      <trkpt lat="41.621837631" lon="2.493649410">
        <ele>513.48</ele>
        <time>2013-03-31T09:00:31Z</time>
      </trkpt>
      <trkpt lat="41.621875182" lon="2.493622169">
        <ele>513.48</ele>
        <time>2013-03-31T09:00:32Z</time>
      </trkpt>
      <trkpt lat="41.622058913" lon="2.493687632">
        <ele>513.00</ele>
        <time>2013-03-31T09:00:37Z</time>
      </trkpt>
      <trkpt lat="41.622131249" lon="2.493829202">
        <ele>512.52</ele>
        <time>2013-03-31T09:00:40Z</time>
      </trkpt>
      <trkpt lat="41.622311963" lon="2.493973874">
        <ele>512.52</ele>
        <time>2013-03-31T09:00:45Z</time>
      </trkpt>
      <trkpt lat="41.622601390" lon="2.493969347">
        <ele>512.52</ele>
        <time>2013-03-31T09:00:53Z</time>
      </trkpt>
      <trkpt lat="41.622819236" lon="2.494116953">
        <ele>512.04</ele>
        <time>2013-03-31T09:00:59Z</time>
      </trkpt>
      <trkpt lat="41.623016546" lon="2.494373355">
        <ele>511.56</ele>
        <time>2013-03-31T09:01:06Z</time>
      </trkpt>
      <trkpt lat="41.623124086" lon="2.494657837">
        <ele>511.56</ele>
        <time>2013-03-31T09:01:14Z</time>
      </trkpt>
      <trkpt lat="41.623168677" lon="2.494925723">
        <ele>511.56</ele>
        <time>2013-03-31T09:01:21Z</time>
      </trkpt>
      <trkpt lat="41.623195835" lon="2.495160835">
        <ele>511.56</ele>
        <time>2013-03-31T09:01:28Z</time>
      </trkpt>
      <trkpt lat="41.623137161" lon="2.495426625">
        <ele>513.00</ele>
        <time>2013-03-31T09:01:36Z</time>
      </trkpt>
      <trkpt lat="41.623085361" lon="2.495687302">
        <ele>513.00</ele>
        <time>2013-03-31T09:01:44Z</time>
      </trkpt>
      <trkpt lat="41.623217544" lon="2.495847229">
        <ele>513.96</ele>
        <time>2013-03-31T09:01:51Z</time>
      </trkpt>
      <trkpt lat="41.623329694" lon="2.496045126">
        <ele>515.40</ele>
        <time>2013-03-31T09:01:58Z</time>
      </trkpt>
      <trkpt lat="41.623437066" lon="2.496269258">
        <ele>515.88</ele>
        <time>2013-03-31T09:02:06Z</time>
      </trkpt>
      <trkpt lat="41.623570087" lon="2.496374786">
        <ele>515.88</ele>
        <time>2013-03-31T09:02:12Z</time>
      </trkpt>
      <trkpt lat="41.623859598" lon="2.496400602">
        <ele>516.37</ele>
        <time>2013-03-31T09:02:22Z</time>
      </trkpt>
      <trkpt lat="41.623931430" lon="2.496362129">
        <ele>516.37</ele>
        <time>2013-03-31T09:02:24Z</time>
      </trkpt>
      <trkpt lat="41.624002174" lon="2.496305551">
        <ele>514.44</ele>
        <time>2013-03-31T09:02:26Z</time>
      </trkpt>
      <trkpt lat="41.624209207" lon="2.495935826">
        <ele>513.00</ele>
        <time>2013-03-31T09:02:32Z</time>
      </trkpt>
      <trkpt lat="41.624224210" lon="2.495860556">
        <ele>512.52</ele>
        <time>2013-03-31T09:02:33Z</time>
      </trkpt>
      <trkpt lat="41.624255978" lon="2.495390751">
        <ele>511.08</ele>
        <time>2013-03-31T09:02:40Z</time>
      </trkpt>
      <trkpt lat="41.624254469" lon="2.495323360">
        <ele>511.08</ele>
        <time>2013-03-31T09:02:41Z</time>
      </trkpt>
      <trkpt lat="41.624225635" lon="2.495117081">
        <ele>510.12</ele>
        <time>2013-03-31T09:02:44Z</time>
      </trkpt>
      <trkpt lat="41.624260001" lon="2.494609473">
        <ele>508.67</ele>
        <time>2013-03-31T09:02:51Z</time>
      </trkpt>
      <trkpt lat="41.624286320" lon="2.494373942">
        <ele>508.67</ele>
        <time>2013-03-31T09:02:55Z</time>
      </trkpt>
      <trkpt lat="41.624270395" lon="2.494320801">
        <ele>508.67</ele>
        <time>2013-03-31T09:02:56Z</time>
      </trkpt>
      <trkpt lat="41.624175176" lon="2.493897682">
        <ele>508.19</ele>
        <time>2013-03-31T09:03:04Z</time>
      </trkpt>
      <trkpt lat="41.624094375" lon="2.493424356">
        <ele>508.19</ele>
        <time>2013-03-31T09:03:12Z</time>
      </trkpt>
      <trkpt lat="41.624071827" lon="2.493104838">
        <ele>508.19</ele>
        <time>2013-03-31T09:03:19Z</time>
      </trkpt>
      <trkpt lat="41.624058835" lon="2.492744584">
        <ele>508.19</ele>
        <time>2013-03-31T09:03:26Z</time>
      </trkpt>
      <trkpt lat="41.624176685" lon="2.492446188">
        <ele>507.71</ele>
        <time>2013-03-31T09:03:32Z</time>
      </trkpt>
      <trkpt lat="41.624273747" lon="2.492064308">
        <ele>507.71</ele>
        <time>2013-03-31T09:03:41Z</time>
      </trkpt>
      <trkpt lat="41.624314567" lon="2.491793741">
        <ele>509.16</ele>
        <time>2013-03-31T09:03:49Z</time>
      </trkpt>
      <trkpt lat="41.624318255" lon="2.491480677">
        <ele>509.16</ele>
        <time>2013-03-31T09:03:57Z</time>
      </trkpt>
      <trkpt lat="41.624343401" lon="2.491183622">
        <ele>509.64</ele>
        <time>2013-03-31T09:04:05Z</time>
      </trkpt>
      <trkpt lat="41.624384053" lon="2.490954209">
        <ele>511.56</ele>
        <time>2013-03-31T09:04:12Z</time>
      </trkpt>
      <trkpt lat="41.624463095" lon="2.490716415">
        <ele>512.52</ele>
        <time>2013-03-31T09:04:20Z</time>
      </trkpt>
      <trkpt lat="41.624598965" lon="2.490468394">
        <ele>512.52</ele>
        <time>2013-03-31T09:04:27Z</time>
      </trkpt>
      <trkpt lat="41.624727879" lon="2.490251890">
        <ele>512.52</ele>
        <time>2013-03-31T09:04:34Z</time>
      </trkpt>
      <trkpt lat="41.624889985" lon="2.490059609">
        <ele>511.56</ele>
        <time>2013-03-31T09:04:41Z</time>
      </trkpt>
      <trkpt lat="41.625007499" lon="2.489862299">
        <ele>512.52</ele>
        <time>2013-03-31T09:04:48Z</time>
      </trkpt>
      <trkpt lat="41.625020575" lon="2.489837991">
        <ele>512.52</ele>
        <time>2013-03-31T09:04:49Z</time>
      </trkpt>
      <trkpt lat="41.625108501" lon="2.489657948">
        <ele>514.44</ele>
        <time>2013-03-31T09:04:56Z</time>
      </trkpt>
      <trkpt lat="41.625189638" lon="2.489484694">
        <ele>516.37</ele>
        <time>2013-03-31T09:05:03Z</time>
      </trkpt>
      <trkpt lat="41.625264069" lon="2.489276739">
        <ele>517.33</ele>
        <time>2013-03-31T09:05:10Z</time>
      </trkpt>
      <trkpt lat="41.625315618" lon="2.489078255">
        <ele>518.29</ele>
        <time>2013-03-31T09:05:17Z</time>
      </trkpt>
      <trkpt lat="41.625378482" lon="2.488881029">
        <ele>519.25</ele>
        <time>2013-03-31T09:05:25Z</time>
      </trkpt>
      <trkpt lat="41.625453919" lon="2.488691598">
        <ele>522.13</ele>
        <time>2013-03-31T09:05:33Z</time>
      </trkpt>
      <trkpt lat="41.625573781" lon="2.488533264">
        <ele>524.06</ele>
        <time>2013-03-31T09:05:41Z</time>
      </trkpt>
      <trkpt lat="41.625678554" lon="2.488422707">
        <ele>525.02</ele>
        <time>2013-03-31T09:05:49Z</time>
      </trkpt>
      <trkpt lat="41.625748459" lon="2.488314580">
        <ele>526.46</ele>
        <time>2013-03-31T09:05:55Z</time>
      </trkpt>
      <trkpt lat="41.625755835" lon="2.488296056">
        <ele>526.46</ele>
        <time>2013-03-31T09:05:56Z</time>
      </trkpt>
      <trkpt lat="41.625748459" lon="2.488209639">
        <ele>527.42</ele>
        <time>2013-03-31T09:06:05Z</time>
      </trkpt>
      <trkpt lat="41.625748292" lon="2.488248531">
        <ele>527.42</ele>
        <time>2013-03-31T09:06:17Z</time>
      </trkpt>
      <trkpt lat="41.625774611" lon="2.488281891">
        <ele>527.42</ele>
        <time>2013-03-31T09:06:27Z</time>
      </trkpt>
      <trkpt lat="41.625800762" lon="2.488270408">
        <ele>526.46</ele>
        <time>2013-03-31T09:06:34Z</time>
      </trkpt>
      <trkpt lat="41.625798499" lon="2.488283819">
        <ele>526.46</ele>
        <time>2013-03-31T09:06:43Z</time>
      </trkpt>
      <trkpt lat="41.625809312" lon="2.488279712">
        <ele>527.90</ele>
        <time>2013-03-31T09:06:51Z</time>
      </trkpt>
      <trkpt lat="41.625812581" lon="2.488280214">
        <ele>527.90</ele>
        <time>2013-03-31T09:06:58Z</time>
      </trkpt>
      <trkpt lat="41.625831105" lon="2.488261858">
        <ele>528.86</ele>
        <time>2013-03-31T09:07:06Z</time>
      </trkpt>
      <trkpt lat="41.625845103" lon="2.488220703">
        <ele>529.82</ele>
        <time>2013-03-31T09:07:14Z</time>
      </trkpt>
      <trkpt lat="41.625870751" lon="2.488174183">
        <ele>531.75</ele>
        <time>2013-03-31T09:07:23Z</time>
      </trkpt>
      <trkpt lat="41.625902603" lon="2.488155240">
        <ele>533.67</ele>
        <time>2013-03-31T09:07:33Z</time>
      </trkpt>
      <trkpt lat="41.625915343" lon="2.488127999">
        <ele>534.15</ele>
        <time>2013-03-31T09:07:41Z</time>
      </trkpt>
      <trkpt lat="41.625933448" lon="2.488108553">
        <ele>535.11</ele>
        <time>2013-03-31T09:07:50Z</time>
      </trkpt>
      <trkpt lat="41.625943674" lon="2.488089191">
        <ele>536.55</ele>
        <time>2013-03-31T09:07:59Z</time>
      </trkpt>
      <trkpt lat="41.625957672" lon="2.488064883">
        <ele>537.03</ele>
        <time>2013-03-31T09:08:05Z</time>
      </trkpt>
      <trkpt lat="41.625978207" lon="2.488034709">
        <ele>537.99</ele>
        <time>2013-03-31T09:08:14Z</time>
      </trkpt>
      <trkpt lat="41.625982985" lon="2.488002606">
        <ele>539.92</ele>
        <time>2013-03-31T09:08:21Z</time>
      </trkpt>
      <trkpt lat="41.625984159" lon="2.487990284">
        <ele>540.88</ele>
        <time>2013-03-31T09:08:29Z</time>
      </trkpt>
      <trkpt lat="41.625998743" lon="2.487970336">
        <ele>541.36</ele>
        <time>2013-03-31T09:08:35Z</time>
      </trkpt>
      <trkpt lat="41.626011064" lon="2.487918200">
        <ele>542.32</ele>
        <time>2013-03-31T09:08:43Z</time>
      </trkpt>
      <trkpt lat="41.626054399" lon="2.487881990">
        <ele>544.24</ele>
        <time>2013-03-31T09:08:53Z</time>
      </trkpt>
      <trkpt lat="41.626092117" lon="2.487875620">
        <ele>545.20</ele>
        <time>2013-03-31T09:09:02Z</time>
      </trkpt>
      <trkpt lat="41.626128495" lon="2.487885343">
        <ele>545.69</ele>
        <time>2013-03-31T09:09:09Z</time>
      </trkpt>
      <trkpt lat="41.626160011" lon="2.487864807">
        <ele>546.17</ele>
        <time>2013-03-31T09:09:15Z</time>
      </trkpt>
      <trkpt lat="41.626237208" lon="2.487790292">
        <ele>547.13</ele>
        <time>2013-03-31T09:09:22Z</time>
      </trkpt>
      <trkpt lat="41.626293954" lon="2.487728685">
        <ele>548.09</ele>
        <time>2013-03-31T09:09:27Z</time>
      </trkpt>
      <trkpt lat="41.626403170" lon="2.487618799">
        <ele>549.05</ele>
        <time>2013-03-31T09:09:36Z</time>
      </trkpt>
      <trkpt lat="41.626414485" lon="2.487600861">
        <ele>549.05</ele>
        <time>2013-03-31T09:09:37Z</time>
      </trkpt>
      <trkpt lat="41.626476428" lon="2.487466416">
        <ele>550.01</ele>
        <time>2013-03-31T09:09:46Z</time>
      </trkpt>
      <trkpt lat="41.626510877" lon="2.487346387">
        <ele>551.45</ele>
        <time>2013-03-31T09:09:54Z</time>
      </trkpt>
      <trkpt lat="41.626510291" lon="2.487327527">
        <ele>551.45</ele>
        <time>2013-03-31T09:09:55Z</time>
      </trkpt>
      <trkpt lat="41.626505513" lon="2.487261729">
        <ele>552.90</ele>
        <time>2013-03-31T09:09:59Z</time>
      </trkpt>
      <trkpt lat="41.626497382" lon="2.487148071">
        <ele>554.34</ele>
        <time>2013-03-31T09:10:05Z</time>
      </trkpt>
      <trkpt lat="41.626475673" lon="2.487036675">
        <ele>555.78</ele>
        <time>2013-03-31T09:10:13Z</time>
      </trkpt>
      <trkpt lat="41.626444241" lon="2.486910444">
        <ele>557.22</ele>
        <time>2013-03-31T09:10:22Z</time>
      </trkpt>
      <trkpt lat="41.626466705" lon="2.486848166">
        <ele>557.22</ele>
        <time>2013-03-31T09:10:38Z</time>
      </trkpt>
      <trkpt lat="41.626453880" lon="2.486794774">
        <ele>557.22</ele>
        <time>2013-03-31T09:10:50Z</time>
      </trkpt>
      <trkpt lat="41.626452288" lon="2.486718834">
        <ele>557.70</ele>
        <time>2013-03-31T09:10:57Z</time>
      </trkpt>
      <trkpt lat="41.626458490" lon="2.486664519">
        <ele>557.70</ele>
        <time>2013-03-31T09:11:04Z</time>
      </trkpt>
      <trkpt lat="41.626460083" lon="2.486637613">
        <ele>557.70</ele>
        <time>2013-03-31T09:11:14Z</time>
      </trkpt>
      <trkpt lat="41.626457652" lon="2.486572234">
        <ele>557.70</ele>
        <time>2013-03-31T09:11:36Z</time>
      </trkpt>
      <trkpt lat="41.626483469" lon="2.486490175">
        <ele>557.70</ele>
        <time>2013-03-31T09:11:58Z</time>
      </trkpt>
      <trkpt lat="41.626503334" lon="2.486486655">
        <ele>557.70</ele>
        <time>2013-03-31T09:12:15Z</time>
      </trkpt>
      <trkpt lat="41.626471482" lon="2.486542395">
        <ele>557.70</ele>
        <time>2013-03-31T09:12:30Z</time>
      </trkpt>
      <trkpt lat="41.626461508" lon="2.486564858">
        <ele>557.70</ele>
        <time>2013-03-31T09:12:39Z</time>
      </trkpt>
      <trkpt lat="41.626447175" lon="2.486537784">
        <ele>557.70</ele>
        <time>2013-03-31T09:12:49Z</time>
      </trkpt>
      <trkpt lat="41.626418928" lon="2.486450445">
        <ele>558.18</ele>
        <time>2013-03-31T09:12:57Z</time>
      </trkpt>
      <trkpt lat="41.626407193" lon="2.486424461">
        <ele>558.18</ele>
        <time>2013-03-31T09:13:13Z</time>
      </trkpt>
      <trkpt lat="41.626393028" lon="2.486317089">
        <ele>558.66</ele>
        <time>2013-03-31T09:13:20Z</time>
      </trkpt>
      <trkpt lat="41.626387077" lon="2.486241987">
        <ele>558.66</ele>
        <time>2013-03-31T09:13:24Z</time>
      </trkpt>
      <trkpt lat="41.626421526" lon="2.486139476">
        <ele>559.62</ele>
        <time>2013-03-31T09:13:31Z</time>
      </trkpt>
      <trkpt lat="41.626522863" lon="2.486082060">
        <ele>560.11</ele>
        <time>2013-03-31T09:13:39Z</time>
      </trkpt>
      <trkpt lat="41.626638534" lon="2.486005198">
        <ele>560.59</ele>
        <time>2013-03-31T09:13:46Z</time>
      </trkpt>
      <trkpt lat="41.626727801" lon="2.485933365">
        <ele>558.66</ele>
        <time>2013-03-31T09:13:49Z</time>
      </trkpt>
      <trkpt lat="41.626781361" lon="2.485723315">
        <ele>558.18</ele>
        <time>2013-03-31T09:13:55Z</time>
      </trkpt>
      <trkpt lat="41.626785133" lon="2.485688865">
        <ele>557.70</ele>
        <time>2013-03-31T09:13:56Z</time>
      </trkpt>
      <trkpt lat="41.626809692" lon="2.485424416">
        <ele>557.70</ele>
        <time>2013-03-31T09:14:04Z</time>
      </trkpt>
      <trkpt lat="41.626830563" lon="2.485298855">
        <ele>554.34</ele>
        <time>2013-03-31T09:14:10Z</time>
      </trkpt>
      <trkpt lat="41.626860570" lon="2.485107748">
        <ele>551.93</ele>
        <time>2013-03-31T09:14:15Z</time>
      </trkpt>
      <trkpt lat="41.626868868" lon="2.484987887">
        <ele>550.97</ele>
        <time>2013-03-31T09:14:20Z</time>
      </trkpt>
      <trkpt lat="41.626952771" lon="2.484945055">
        <ele>550.97</ele>
        <time>2013-03-31T09:14:26Z</time>
      </trkpt>
      <trkpt lat="41.627052600" lon="2.484991491">
        <ele>553.86</ele>
        <time>2013-03-31T09:14:33Z</time>
      </trkpt>
      <trkpt lat="41.627080260" lon="2.485010518">
        <ele>554.34</ele>
        <time>2013-03-31T09:14:35Z</time>
      </trkpt>
      <trkpt lat="41.627229542" lon="2.485132391">
        <ele>554.82</ele>
        <time>2013-03-31T09:14:44Z</time>
      </trkpt>
      <trkpt lat="41.627331717" lon="2.485251917">
        <ele>556.26</ele>
        <time>2013-03-31T09:14:52Z</time>
      </trkpt>
      <trkpt lat="41.627406484" lon="2.485276140">
        <ele>557.22</ele>
        <time>2013-03-31T09:14:57Z</time>
      </trkpt>
      <trkpt lat="41.627530955" lon="2.485295754">
        <ele>559.14</ele>
        <time>2013-03-31T09:15:06Z</time>
      </trkpt>
      <trkpt lat="41.627656013" lon="2.485291228">
        <ele>560.11</ele>
        <time>2013-03-31T09:15:14Z</time>
      </trkpt>
      <trkpt lat="41.627781909" lon="2.485271698">
        <ele>561.07</ele>
        <time>2013-03-31T09:15:22Z</time>
      </trkpt>
      <trkpt lat="41.627903447" lon="2.485252168">
        <ele>562.99</ele>
        <time>2013-03-31T09:15:30Z</time>
      </trkpt>
      <trkpt lat="41.627998581" lon="2.485166924">
        <ele>564.43</ele>
        <time>2013-03-31T09:15:39Z</time>
      </trkpt>
      <trkpt lat="41.628077287" lon="2.485054020">
        <ele>566.83</ele>
        <time>2013-03-31T09:15:48Z</time>
      </trkpt>
      <trkpt lat="41.628115090" lon="2.484984283">
        <ele>567.80</ele>
        <time>2013-03-31T09:15:53Z</time>
      </trkpt>
      <trkpt lat="41.628157502" lon="2.484910606">
        <ele>569.24</ele>
        <time>2013-03-31T09:15:59Z</time>
      </trkpt>
      <trkpt lat="41.628267557" lon="2.484813962">
        <ele>570.68</ele>
        <time>2013-03-31T09:16:09Z</time>
      </trkpt>
      <trkpt lat="41.628404768" lon="2.484708686">
        <ele>572.60</ele>
        <time>2013-03-31T09:16:20Z</time>
      </trkpt>
      <trkpt lat="41.628433854" lon="2.484678595">
        <ele>573.08</ele>
        <time>2013-03-31T09:16:23Z</time>
      </trkpt>
      <trkpt lat="41.628444666" lon="2.484652778">
        <ele>573.08</ele>
        <time>2013-03-31T09:16:25Z</time>
      </trkpt>
      <trkpt lat="41.628566120" lon="2.484566277">
        <ele>575.01</ele>
        <time>2013-03-31T09:16:35Z</time>
      </trkpt>
      <trkpt lat="41.628651867" lon="2.484490337">
        <ele>576.45</ele>
        <time>2013-03-31T09:16:43Z</time>
      </trkpt>
      <trkpt lat="41.628685143" lon="2.484445829">
        <ele>577.41</ele>
        <time>2013-03-31T09:16:47Z</time>
      </trkpt>
      <trkpt lat="41.628803244" lon="2.484348348">
        <ele>577.89</ele>
        <time>2013-03-31T09:16:57Z</time>
      </trkpt>
      <trkpt lat="41.628888237" lon="2.484306103">
        <ele>578.85</ele>
        <time>2013-03-31T09:17:04Z</time>
      </trkpt>
      <trkpt lat="41.629045900" lon="2.484284813">
        <ele>579.81</ele>
        <time>2013-03-31T09:17:14Z</time>
      </trkpt>
      <trkpt lat="41.629186046" lon="2.484266289">
        <ele>580.77</ele>
        <time>2013-03-31T09:17:23Z</time>
      </trkpt>
      <trkpt lat="41.629302889" lon="2.484231839">
        <ele>582.70</ele>
        <time>2013-03-31T09:17:32Z</time>
      </trkpt>
      <trkpt lat="41.629422415" lon="2.484167550">
        <ele>584.14</ele>
        <time>2013-03-31T09:17:41Z</time>
      </trkpt>
      <trkpt lat="41.629502043" lon="2.484118180">
        <ele>584.62</ele>
        <time>2013-03-31T09:17:47Z</time>
      </trkpt>
      <trkpt lat="41.629567925" lon="2.484051377">
        <ele>584.62</ele>
        <time>2013-03-31T09:17:54Z</time>
      </trkpt>
      <trkpt lat="41.629660964" lon="2.484032266">
        <ele>584.62</ele>
        <time>2013-03-31T09:18:02Z</time>
      </trkpt>
      <trkpt lat="41.629731205" lon="2.484028997">
        <ele>584.62</ele>
        <time>2013-03-31T09:18:07Z</time>
      </trkpt>
      <trkpt lat="41.629929520" lon="2.484076187">
        <ele>584.62</ele>
        <time>2013-03-31T09:18:17Z</time>
      </trkpt>
      <trkpt lat="41.630028511" lon="2.484134609">
        <ele>583.18</ele>
        <time>2013-03-31T09:18:21Z</time>
      </trkpt>
      <trkpt lat="41.630267227" lon="2.484306689">
        <ele>581.25</ele>
        <time>2013-03-31T09:18:29Z</time>
      </trkpt>
      <trkpt lat="41.630490353" lon="2.484671554">
        <ele>578.85</ele>
        <time>2013-03-31T09:18:37Z</time>
      </trkpt>
      <trkpt lat="41.630518349" lon="2.484722264">
        <ele>578.85</ele>
        <time>2013-03-31T09:18:38Z</time>
      </trkpt>
      <trkpt lat="41.630583812" lon="2.484814800">
        <ele>578.37</ele>
        <time>2013-03-31T09:18:40Z</time>
      </trkpt>
      <trkpt lat="41.630695794" lon="2.484937009">
        <ele>577.89</ele>
        <time>2013-03-31T09:18:43Z</time>
      </trkpt>
      <trkpt lat="41.630814314" lon="2.485049829">
        <ele>577.89</ele>
        <time>2013-03-31T09:18:46Z</time>
      </trkpt>
      <trkpt lat="41.631162414" lon="2.485368174">
        <ele>576.93</ele>
        <time>2013-03-31T09:18:55Z</time>
      </trkpt>
      <trkpt lat="41.631307505" lon="2.485485604">
        <ele>576.93</ele>
        <time>2013-03-31T09:19:00Z</time>
      </trkpt>
      <trkpt lat="41.631354695" lon="2.485623989">
        <ele>576.93</ele>
        <time>2013-03-31T09:19:05Z</time>
      </trkpt>
      <trkpt lat="41.631388474" lon="2.485847954">
        <ele>576.93</ele>
        <time>2013-03-31T09:19:11Z</time>
      </trkpt>
      <trkpt lat="41.631413788" lon="2.486125143">
        <ele>574.53</ele>
        <time>2013-03-31T09:19:16Z</time>
      </trkpt>
      <trkpt lat="41.631449495" lon="2.486239808">
        <ele>574.04</ele>
        <time>2013-03-31T09:19:18Z</time>
      </trkpt>
      <trkpt lat="41.631567344" lon="2.486503000">
        <ele>570.20</ele>
        <time>2013-03-31T09:19:23Z</time>
      </trkpt>
      <trkpt lat="41.631764067" lon="2.486523535">
        <ele>567.32</ele>
        <time>2013-03-31T09:19:28Z</time>
      </trkpt>
      <trkpt lat="41.631974956" lon="2.486354388">
        <ele>564.43</ele>
        <time>2013-03-31T09:19:33Z</time>
      </trkpt>
      <trkpt lat="41.632211996" lon="2.486246262">
        <ele>561.55</ele>
        <time>2013-03-31T09:19:38Z</time>
      </trkpt>
      <trkpt lat="41.632268826" lon="2.486172836">
        <ele>560.59</ele>
        <time>2013-03-31T09:19:40Z</time>
      </trkpt>
      <trkpt lat="41.632358512" lon="2.486180632">
        <ele>559.62</ele>
        <time>2013-03-31T09:19:44Z</time>
      </trkpt>
      <trkpt lat="41.632367313" lon="2.486211226">
        <ele>559.14</ele>
        <time>2013-03-31T09:19:45Z</time>
      </trkpt>
      <trkpt lat="41.632419532" lon="2.486417672">
        <ele>557.22</ele>
        <time>2013-03-31T09:19:52Z</time>
      </trkpt>
      <trkpt lat="41.632484995" lon="2.486562343">
        <ele>554.34</ele>
        <time>2013-03-31T09:19:58Z</time>
      </trkpt>
      <trkpt lat="41.632561270" lon="2.486700142">
        <ele>552.90</ele>
        <time>2013-03-31T09:20:02Z</time>
      </trkpt>
      <trkpt lat="41.632706948" lon="2.486790415">
        <ele>550.97</ele>
        <time>2013-03-31T09:20:07Z</time>
      </trkpt>
      <trkpt lat="41.632840639" lon="2.486992922">
        <ele>548.09</ele>
        <time>2013-03-31T09:20:13Z</time>
      </trkpt>
      <trkpt lat="41.632909119" lon="2.487158129">
        <ele>545.20</ele>
        <time>2013-03-31T09:20:18Z</time>
      </trkpt>
      <trkpt lat="41.632929320" lon="2.487353511">
        <ele>543.76</ele>
        <time>2013-03-31T09:20:23Z</time>
      </trkpt>
      <trkpt lat="41.633036859" lon="2.487666408">
        <ele>539.92</ele>
        <time>2013-03-31T09:20:31Z</time>
      </trkpt>
      <trkpt lat="41.633124283" lon="2.487839745">
        <ele>537.03</ele>
        <time>2013-03-31T09:20:37Z</time>
      </trkpt>
      <trkpt lat="41.633185554" lon="2.487968072">
        <ele>535.59</ele>
        <time>2013-03-31T09:20:42Z</time>
      </trkpt>
      <trkpt lat="41.633288400" lon="2.488203101">
        <ele>534.63</ele>
        <time>2013-03-31T09:20:48Z</time>
      </trkpt>
      <trkpt lat="41.633500043" lon="2.488582214">
        <ele>533.19</ele>
        <time>2013-03-31T09:20:57Z</time>
      </trkpt>
      <trkpt lat="41.633599788" lon="2.488822440">
        <ele>532.23</ele>
        <time>2013-03-31T09:21:04Z</time>
      </trkpt>
      <trkpt lat="41.633615714" lon="2.488838785">
        <ele>532.23</ele>
        <time>2013-03-31T09:21:05Z</time>
      </trkpt>
      <trkpt lat="41.633646475" lon="2.488851022">
        <ele>532.23</ele>
        <time>2013-03-31T09:21:10Z</time>
      </trkpt>
      <trkpt lat="41.633740939" lon="2.488829900">
        <ele>530.79</ele>
        <time>2013-03-31T09:21:15Z</time>
      </trkpt>
      <trkpt lat="41.633790812" lon="2.488800563">
        <ele>530.79</ele>
        <time>2013-03-31T09:21:18Z</time>
      </trkpt>
      <trkpt lat="41.633815371" lon="2.488758821">
        <ele>529.82</ele>
        <time>2013-03-31T09:21:26Z</time>
      </trkpt>
      <trkpt lat="41.633807827" lon="2.488736022">
        <ele>529.82</ele>
        <time>2013-03-31T09:21:46Z</time>
      </trkpt>
      <trkpt lat="41.633847390" lon="2.488566876">
        <ele>529.34</ele>
        <time>2013-03-31T09:21:53Z</time>
      </trkpt>
      <trkpt lat="41.633878822" lon="2.488497557">
        <ele>527.90</ele>
        <time>2013-03-31T09:21:55Z</time>
      </trkpt>
      <trkpt lat="41.633987200" lon="2.488282310">
        <ele>526.46</ele>
        <time>2013-03-31T09:22:00Z</time>
      </trkpt>
      <trkpt lat="41.634174954" lon="2.488153732">
        <ele>523.58</ele>
        <time>2013-03-31T09:22:05Z</time>
      </trkpt>
      <trkpt lat="41.634323985" lon="2.487919122">
        <ele>520.69</ele>
        <time>2013-03-31T09:22:11Z</time>
      </trkpt>
      <trkpt lat="41.634389280" lon="2.487703791">
        <ele>516.37</ele>
        <time>2013-03-31T09:22:16Z</time>
      </trkpt>
      <trkpt lat="41.634398081" lon="2.487670599">
        <ele>515.88</ele>
        <time>2013-03-31T09:22:17Z</time>
      </trkpt>
      <trkpt lat="41.634472680" lon="2.487559958">
        <ele>514.44</ele>
        <time>2013-03-31T09:22:20Z</time>
      </trkpt>
      <trkpt lat="41.634623218" lon="2.487442611">
        <ele>511.08</ele>
        <time>2013-03-31T09:22:25Z</time>
      </trkpt>
      <trkpt lat="41.634652723" lon="2.487424255">
        <ele>510.12</ele>
        <time>2013-03-31T09:22:26Z</time>
      </trkpt>
      <trkpt lat="41.634821115" lon="2.487473708">
        <ele>505.79</ele>
        <time>2013-03-31T09:22:33Z</time>
      </trkpt>
      <trkpt lat="41.634886159" lon="2.487481419">
        <ele>504.35</ele>
        <time>2013-03-31T09:22:35Z</time>
      </trkpt>
      <trkpt lat="41.634951202" lon="2.487448562">
        <ele>503.39</ele>
        <time>2013-03-31T09:22:37Z</time>
      </trkpt>
      <trkpt lat="41.635135604" lon="2.487406233">
        <ele>501.95</ele>
        <time>2013-03-31T09:22:43Z</time>
      </trkpt>
      <trkpt lat="41.635171646" lon="2.487422494">
        <ele>500.98</ele>
        <time>2013-03-31T09:22:45Z</time>
      </trkpt>
      <trkpt lat="41.635297543" lon="2.487484353">
        <ele>498.10</ele>
        <time>2013-03-31T09:22:52Z</time>
      </trkpt>
      <trkpt lat="41.635412878" lon="2.487467086">
        <ele>495.70</ele>
        <time>2013-03-31T09:22:59Z</time>
      </trkpt>
      <trkpt lat="41.635531901" lon="2.487427188">
        <ele>494.74</ele>
        <time>2013-03-31T09:23:06Z</time>
      </trkpt>
      <trkpt lat="41.635697778" lon="2.487436073">
        <ele>493.77</ele>
        <time>2013-03-31T09:23:12Z</time>
      </trkpt>
      <trkpt lat="41.635835493" lon="2.487533219">
        <ele>491.37</ele>
        <time>2013-03-31T09:23:19Z</time>
      </trkpt>
      <trkpt lat="41.635928616" lon="2.487643106">
        <ele>488.01</ele>
        <time>2013-03-31T09:23:25Z</time>
      </trkpt>
      <trkpt lat="41.636057278" lon="2.487843182">
        <ele>484.64</ele>
        <time>2013-03-31T09:23:32Z</time>
      </trkpt>
      <trkpt lat="41.636184432" lon="2.487950973">
        <ele>481.28</ele>
        <time>2013-03-31T09:23:37Z</time>
      </trkpt>
      <trkpt lat="41.636297001" lon="2.488032445">
        <ele>478.39</ele>
        <time>2013-03-31T09:23:41Z</time>
      </trkpt>
      <trkpt lat="41.636502441" lon="2.488039402">
        <ele>475.99</ele>
        <time>2013-03-31T09:23:46Z</time>
      </trkpt>
      <trkpt lat="41.636633199" lon="2.488057256">
        <ele>474.55</ele>
        <time>2013-03-31T09:23:49Z</time>
      </trkpt>
      <trkpt lat="41.636717605" lon="2.488066727">
        <ele>473.11</ele>
        <time>2013-03-31T09:23:51Z</time>
      </trkpt>
      <trkpt lat="41.636901084" lon="2.488155156">
        <ele>471.66</ele>
        <time>2013-03-31T09:23:55Z</time>
      </trkpt>
      <trkpt lat="41.637069980" lon="2.488270240">
        <ele>467.82</ele>
        <time>2013-03-31T09:24:01Z</time>
      </trkpt>
      <trkpt lat="41.637164779" lon="2.488353891">
        <ele>466.38</ele>
        <time>2013-03-31T09:24:07Z</time>
      </trkpt>
      <trkpt lat="41.637184058" lon="2.488381803">
        <ele>466.38</ele>
        <time>2013-03-31T09:24:23Z</time>
      </trkpt>
      <trkpt lat="41.637199899" lon="2.488381552">
        <ele>466.38</ele>
        <time>2013-03-31T09:24:26Z</time>
      </trkpt>
      <trkpt lat="41.637264356" lon="2.488392197">
        <ele>466.38</ele>
        <time>2013-03-31T09:24:31Z</time>
      </trkpt>
      <trkpt lat="41.637292855" lon="2.488401501">
        <ele>467.82</ele>
        <time>2013-03-31T09:24:33Z</time>
      </trkpt>
      <trkpt lat="41.637441801" lon="2.488447098">
        <ele>469.74</ele>
        <time>2013-03-31T09:24:41Z</time>
      </trkpt>
      <trkpt lat="41.637612289" lon="2.488495713">
        <ele>472.14</ele>
        <time>2013-03-31T09:24:50Z</time>
      </trkpt>
      <trkpt lat="41.637758050" lon="2.488648851">
        <ele>472.14</ele>
        <time>2013-03-31T09:24:57Z</time>
      </trkpt>
      <trkpt lat="41.637880426" lon="2.488796121">
        <ele>472.63</ele>
        <time>2013-03-31T09:25:05Z</time>
      </trkpt>
      <trkpt lat="41.637985284" lon="2.488767538">
        <ele>471.18</ele>
        <time>2013-03-31T09:25:10Z</time>
      </trkpt>
      <trkpt lat="41.638088297" lon="2.488717750">
        <ele>468.30</ele>
        <time>2013-03-31T09:25:14Z</time>
      </trkpt>
      <trkpt lat="41.638155688" lon="2.488633931">
        <ele>466.38</ele>
        <time>2013-03-31T09:25:17Z</time>
      </trkpt>
      <trkpt lat="41.638260964" lon="2.488651198">
        <ele>465.42</ele>
        <time>2013-03-31T09:25:21Z</time>
      </trkpt>
      <trkpt lat="41.638292229" lon="2.488682546">
        <ele>467.34</ele>
        <time>2013-03-31T09:25:23Z</time>
      </trkpt>
      <trkpt lat="41.638469255" lon="2.488769718">
        <ele>468.78</ele>
        <time>2013-03-31T09:25:31Z</time>
      </trkpt>
      <trkpt lat="41.638615435" lon="2.488818165">
        <ele>469.26</ele>
        <time>2013-03-31T09:25:37Z</time>
      </trkpt>
      <trkpt lat="41.638793970" lon="2.488769885">
        <ele>469.26</ele>
        <time>2013-03-31T09:25:42Z</time>
      </trkpt>
      <trkpt lat="41.638887931" lon="2.488770388">
        <ele>467.82</ele>
        <time>2013-03-31T09:25:44Z</time>
      </trkpt>
      <trkpt lat="41.639018689" lon="2.488844233">
        <ele>467.34</ele>
        <time>2013-03-31T09:25:49Z</time>
      </trkpt>
      <trkpt lat="41.639035285" lon="2.488856638">
        <ele>467.34</ele>
        <time>2013-03-31T09:25:50Z</time>
      </trkpt>
      <trkpt lat="41.639097478" lon="2.488819506">
        <ele>466.38</ele>
        <time>2013-03-31T09:25:55Z</time>
      </trkpt>
      <trkpt lat="41.639130755" lon="2.488614652">
        <ele>467.82</ele>
        <time>2013-03-31T09:26:04Z</time>
      </trkpt>
      <trkpt lat="41.639164785" lon="2.488559751">
        <ele>468.30</ele>
        <time>2013-03-31T09:26:07Z</time>
      </trkpt>
      <trkpt lat="41.639304428" lon="2.488529492">
        <ele>469.26</ele>
        <time>2013-03-31T09:26:15Z</time>
      </trkpt>
      <trkpt lat="41.639430324" lon="2.488384066">
        <ele>468.30</ele>
        <time>2013-03-31T09:26:24Z</time>
      </trkpt>
      <trkpt lat="41.639555801" lon="2.488154067">
        <ele>467.34</ele>
        <time>2013-03-31T09:26:30Z</time>
      </trkpt>
      <trkpt lat="41.639678428" lon="2.487908729">
        <ele>466.38</ele>
        <time>2013-03-31T09:26:36Z</time>
      </trkpt>
      <trkpt lat="41.639757386" lon="2.487574207">
        <ele>463.97</ele>
        <time>2013-03-31T09:26:43Z</time>
      </trkpt>
      <trkpt lat="41.639829638" lon="2.487388212">
        <ele>461.57</ele>
        <time>2013-03-31T09:26:47Z</time>
      </trkpt>
      <trkpt lat="41.639850341" lon="2.487188723">
        <ele>458.69</ele>
        <time>2013-03-31T09:26:52Z</time>
      </trkpt>
      <trkpt lat="41.639789153" lon="2.487049667">
        <ele>456.76</ele>
        <time>2013-03-31T09:26:56Z</time>
      </trkpt>
      <trkpt lat="41.639669292" lon="2.486794606">
        <ele>454.84</ele>
        <time>2013-03-31T09:27:02Z</time>
      </trkpt>
      <trkpt lat="41.639488243" lon="2.486521440">
        <ele>454.36</ele>
        <time>2013-03-31T09:27:09Z</time>
      </trkpt>
      <trkpt lat="41.639425965" lon="2.486449523">
        <ele>453.40</ele>
        <time>2013-03-31T09:27:11Z</time>
      </trkpt>
      <trkpt lat="41.639283305" lon="2.486249782">
        <ele>451.48</ele>
        <time>2013-03-31T09:27:16Z</time>
      </trkpt>
      <trkpt lat="41.639258411" lon="2.486080216">
        <ele>448.59</ele>
        <time>2013-03-31T09:27:20Z</time>
      </trkpt>
      <trkpt lat="41.639256232" lon="2.486052975">
        <ele>448.59</ele>
        <time>2013-03-31T09:27:21Z</time>
      </trkpt>
      <trkpt lat="41.639226057" lon="2.485885253">
        <ele>445.71</ele>
        <time>2013-03-31T09:27:28Z</time>
      </trkpt>
      <trkpt lat="41.639179286" lon="2.485671934">
        <ele>442.34</ele>
        <time>2013-03-31T09:27:34Z</time>
      </trkpt>
      <trkpt lat="41.639175179" lon="2.485601274">
        <ele>441.38</ele>
        <time>2013-03-31T09:27:36Z</time>
      </trkpt>
      <trkpt lat="41.639211808" lon="2.485405892">
        <ele>438.02</ele>
        <time>2013-03-31T09:27:44Z</time>
      </trkpt>
      <trkpt lat="41.639319683" lon="2.485294664">
        <ele>436.10</ele>
        <time>2013-03-31T09:27:51Z</time>
      </trkpt>
      <trkpt lat="41.639456475" lon="2.485235907">
        <ele>436.10</ele>
        <time>2013-03-31T09:27:58Z</time>
      </trkpt>
      <trkpt lat="41.639624784" lon="2.485167092">
        <ele>438.98</ele>
        <time>2013-03-31T09:28:06Z</time>
      </trkpt>
      <trkpt lat="41.639685385" lon="2.485140270">
        <ele>440.42</ele>
        <time>2013-03-31T09:28:09Z</time>
      </trkpt>
      <trkpt lat="41.639755709" lon="2.484997526">
        <ele>440.90</ele>
        <time>2013-03-31T09:28:16Z</time>
      </trkpt>
      <trkpt lat="41.639777251" lon="2.484924352">
        <ele>439.94</ele>
        <time>2013-03-31T09:28:18Z</time>
      </trkpt>
      <trkpt lat="41.639799463" lon="2.484804742">
        <ele>438.50</ele>
        <time>2013-03-31T09:28:21Z</time>
      </trkpt>
      <trkpt lat="41.639828632" lon="2.484691251">
        <ele>437.06</ele>
        <time>2013-03-31T09:28:24Z</time>
      </trkpt>
      <trkpt lat="41.639841456" lon="2.484661412">
        <ele>436.10</ele>
        <time>2013-03-31T09:28:25Z</time>
      </trkpt>
      <trkpt lat="41.639910020" lon="2.484620843">
        <ele>434.65</ele>
        <time>2013-03-31T09:28:28Z</time>
      </trkpt>
      <trkpt lat="41.640000209" lon="2.484699130">
        <ele>433.69</ele>
        <time>2013-03-31T09:28:32Z</time>
      </trkpt>
      <trkpt lat="41.640125686" lon="2.484857548">
        <ele>432.73</ele>
        <time>2013-03-31T09:28:38Z</time>
      </trkpt>
      <trkpt lat="41.640235573" lon="2.485022085">
        <ele>432.73</ele>
        <time>2013-03-31T09:28:44Z</time>
      </trkpt>
      <trkpt lat="41.640352668" lon="2.485184778">
        <ele>433.69</ele>
        <time>2013-03-31T09:28:51Z</time>
      </trkpt>
      <trkpt lat="41.640370606" lon="2.485201206">
        <ele>433.69</ele>
        <time>2013-03-31T09:28:52Z</time>
      </trkpt>
      <trkpt lat="41.640523827" lon="2.485241439">
        <ele>434.17</ele>
        <time>2013-03-31T09:28:58Z</time>
      </trkpt>
      <trkpt lat="41.640759275" lon="2.485156112">
        <ele>434.17</ele>
        <time>2013-03-31T09:29:06Z</time>
      </trkpt>
      <trkpt lat="41.640869664" lon="2.485167427">
        <ele>434.17</ele>
        <time>2013-03-31T09:29:10Z</time>
      </trkpt>
      <trkpt lat="41.640986340" lon="2.485021666">
        <ele>435.13</ele>
        <time>2013-03-31T09:29:16Z</time>
      </trkpt>
      <trkpt lat="41.641009223" lon="2.484908762">
        <ele>436.10</ele>
        <time>2013-03-31T09:29:20Z</time>
      </trkpt>
      <trkpt lat="41.641021963" lon="2.484838102">
        <ele>436.58</ele>
        <time>2013-03-31T09:29:24Z</time>
      </trkpt>
      <trkpt lat="41.641059179" lon="2.484776830">
        <ele>436.58</ele>
        <time>2013-03-31T09:29:32Z</time>
      </trkpt>
      <trkpt lat="41.641078290" lon="2.484787056">
        <ele>436.58</ele>
        <time>2013-03-31T09:29:39Z</time>
      </trkpt>
      <trkpt lat="41.641072087" lon="2.484807676">
        <ele>436.58</ele>
        <time>2013-03-31T09:29:42Z</time>
      </trkpt>
      <trkpt lat="41.641102094" lon="2.484957125">
        <ele>433.21</ele>
        <time>2013-03-31T09:29:47Z</time>
      </trkpt>
      <trkpt lat="41.641117601" lon="2.485006327">
        <ele>431.77</ele>
        <time>2013-03-31T09:29:48Z</time>
      </trkpt>
      <trkpt lat="41.641266296" lon="2.485122081">
        <ele>428.40</ele>
        <time>2013-03-31T09:29:54Z</time>
      </trkpt>
      <trkpt lat="41.641471820" lon="2.485237332">
        <ele>424.08</ele>
        <time>2013-03-31T09:29:59Z</time>
      </trkpt>
      <trkpt lat="41.641546671" lon="2.485260131">
        <ele>423.12</ele>
        <time>2013-03-31T09:30:01Z</time>
      </trkpt>
      <trkpt lat="41.641605763" lon="2.485253342">
        <ele>421.19</ele>
        <time>2013-03-31T09:30:03Z</time>
      </trkpt>
      <trkpt lat="41.641799050" lon="2.485285360">
        <ele>416.39</ele>
        <time>2013-03-31T09:30:07Z</time>
      </trkpt>
      <trkpt lat="41.641833164" lon="2.485302711">
        <ele>416.39</ele>
        <time>2013-03-31T09:30:08Z</time>
      </trkpt>
      <trkpt lat="41.641898710" lon="2.485333137">
        <ele>413.50</ele>
        <time>2013-03-31T09:30:10Z</time>
      </trkpt>
      <trkpt lat="41.641988397" lon="2.485393738">
        <ele>410.62</ele>
        <time>2013-03-31T09:30:13Z</time>
      </trkpt>
      <trkpt lat="41.642132398" lon="2.485528603">
        <ele>407.26</ele>
        <time>2013-03-31T09:30:18Z</time>
      </trkpt>
      <trkpt lat="41.642318309" lon="2.485537153">
        <ele>402.93</ele>
        <time>2013-03-31T09:30:23Z</time>
      </trkpt>
      <trkpt lat="41.642376060" lon="2.485534974">
        <ele>401.97</ele>
        <time>2013-03-31T09:30:26Z</time>
      </trkpt>
      <trkpt lat="41.642396595" lon="2.485515192">
        <ele>401.49</ele>
        <time>2013-03-31T09:30:28Z</time>
      </trkpt>
      <trkpt lat="41.642428531" lon="2.485491891">
        <ele>401.01</ele>
        <time>2013-03-31T09:30:31Z</time>
      </trkpt>
      <trkpt lat="41.642511344" lon="2.485521898">
        <ele>399.08</ele>
        <time>2013-03-31T09:30:36Z</time>
      </trkpt>
      <trkpt lat="41.642598096" lon="2.485612590">
        <ele>395.72</ele>
        <time>2013-03-31T09:30:41Z</time>
      </trkpt>
      <trkpt lat="41.642658027" lon="2.485670174">
        <ele>393.80</ele>
        <time>2013-03-31T09:30:45Z</time>
      </trkpt>
      <trkpt lat="41.642722316" lon="2.485719459">
        <ele>392.36</ele>
        <time>2013-03-31T09:30:48Z</time>
      </trkpt>
      <trkpt lat="41.642725418" lon="2.485798584">
        <ele>390.43</ele>
        <time>2013-03-31T09:30:51Z</time>
      </trkpt>
      <trkpt lat="41.642688789" lon="2.485859772">
        <ele>389.95</ele>
        <time>2013-03-31T09:30:53Z</time>
      </trkpt>
      <trkpt lat="41.642675210" lon="2.486015089">
        <ele>387.07</ele>
        <time>2013-03-31T09:31:01Z</time>
      </trkpt>
      <trkpt lat="41.642692393" lon="2.486208543">
        <ele>383.22</ele>
        <time>2013-03-31T09:31:09Z</time>
      </trkpt>
      <trkpt lat="41.642716281" lon="2.486353718">
        <ele>382.26</ele>
        <time>2013-03-31T09:31:15Z</time>
      </trkpt>
      <trkpt lat="41.642718461" lon="2.486534516">
        <ele>380.34</ele>
        <time>2013-03-31T09:31:21Z</time>
      </trkpt>
      <trkpt lat="41.642711420" lon="2.486784883">
        <ele>376.49</ele>
        <time>2013-03-31T09:31:28Z</time>
      </trkpt>
      <trkpt lat="41.642721059" lon="2.486823607">
        <ele>376.49</ele>
        <time>2013-03-31T09:31:29Z</time>
      </trkpt>
      <trkpt lat="41.642763136" lon="2.486989066">
        <ele>373.61</ele>
        <time>2013-03-31T09:31:34Z</time>
      </trkpt>
      <trkpt lat="41.642771937" lon="2.487192998">
        <ele>370.73</ele>
        <time>2013-03-31T09:31:40Z</time>
      </trkpt>
      <trkpt lat="41.642826252" lon="2.487309422">
        <ele>368.32</ele>
        <time>2013-03-31T09:31:45Z</time>
      </trkpt>
      <trkpt lat="41.642875621" lon="2.487440264">
        <ele>364.96</ele>
        <time>2013-03-31T09:31:50Z</time>
      </trkpt>
      <trkpt lat="41.642920129" lon="2.487578314">
        <ele>361.59</ele>
        <time>2013-03-31T09:31:56Z</time>
      </trkpt>
      <trkpt lat="41.642924655" lon="2.487602370">
        <ele>361.59</ele>
        <time>2013-03-31T09:31:57Z</time>
      </trkpt>
      <trkpt lat="41.642996237" lon="2.487663977">
        <ele>359.67</ele>
        <time>2013-03-31T09:32:01Z</time>
      </trkpt>
      <trkpt lat="41.643152308" lon="2.487747461">
        <ele>356.79</ele>
        <time>2013-03-31T09:32:08Z</time>
      </trkpt>
      <trkpt lat="41.643202264" lon="2.487782497">
        <ele>356.31</ele>
        <time>2013-03-31T09:32:10Z</time>
      </trkpt>
      <trkpt lat="41.643241491" lon="2.487793729">
        <ele>355.34</ele>
        <time>2013-03-31T09:32:12Z</time>
      </trkpt>
      <trkpt lat="41.643368142" lon="2.487885259">
        <ele>351.50</ele>
        <time>2013-03-31T09:32:19Z</time>
      </trkpt>
      <trkpt lat="41.643390941" lon="2.487889953">
        <ele>351.02</ele>
        <time>2013-03-31T09:32:20Z</time>
      </trkpt>
      <trkpt lat="41.643413739" lon="2.487894395">
        <ele>350.54</ele>
        <time>2013-03-31T09:32:21Z</time>
      </trkpt>
      <trkpt lat="41.643561429" lon="2.487896742">
        <ele>347.65</ele>
        <time>2013-03-31T09:32:28Z</time>
      </trkpt>
      <trkpt lat="41.643599566" lon="2.487882074">
        <ele>346.69</ele>
        <time>2013-03-31T09:32:30Z</time>
      </trkpt>
      <trkpt lat="41.643762846" lon="2.487835974">
        <ele>343.33</ele>
        <time>2013-03-31T09:32:36Z</time>
      </trkpt>
      <trkpt lat="41.643786064" lon="2.487832202">
        <ele>343.33</ele>
        <time>2013-03-31T09:32:37Z</time>
      </trkpt>
      <trkpt lat="41.643841719" lon="2.487810576">
        <ele>342.37</ele>
        <time>2013-03-31T09:32:44Z</time>
      </trkpt>
      <trkpt lat="41.643811461" lon="2.487783084">
        <ele>342.37</ele>
        <time>2013-03-31T09:32:51Z</time>
      </trkpt>
      <trkpt lat="41.643782292" lon="2.487723824">
        <ele>343.81</ele>
        <time>2013-03-31T09:32:55Z</time>
      </trkpt>
      <trkpt lat="41.643751698" lon="2.487636903">
        <ele>345.25</ele>
        <time>2013-03-31T09:33:01Z</time>
      </trkpt>
      <trkpt lat="41.643749938" lon="2.487625672">
        <ele>345.25</ele>
        <time>2013-03-31T09:33:02Z</time>
      </trkpt>
      <trkpt lat="41.643744406" lon="2.487533219">
        <ele>345.25</ele>
        <time>2013-03-31T09:33:10Z</time>
      </trkpt>
      <trkpt lat="41.643735185" lon="2.487524837">
        <ele>345.25</ele>
        <time>2013-03-31T09:33:20Z</time>
      </trkpt>
      <trkpt lat="41.643737951" lon="2.487512684">
        <ele>345.25</ele>
        <time>2013-03-31T09:33:34Z</time>
      </trkpt>
      <trkpt lat="41.643723451" lon="2.487424087">
        <ele>345.25</ele>
        <time>2013-03-31T09:33:41Z</time>
      </trkpt>
      <trkpt lat="41.643728815" lon="2.487382261">
        <ele>345.25</ele>
        <time>2013-03-31T09:33:43Z</time>
      </trkpt>
      <trkpt lat="41.643782292" lon="2.487317804">
        <ele>345.25</ele>
        <time>2013-03-31T09:33:47Z</time>
      </trkpt>
      <trkpt lat="41.643987648" lon="2.487202721">
        <ele>345.73</ele>
        <time>2013-03-31T09:33:58Z</time>
      </trkpt>
      <trkpt lat="41.644150760" lon="2.487198530">
        <ele>346.21</ele>
        <time>2013-03-31T09:34:05Z</time>
      </trkpt>
      <trkpt lat="41.644302137" lon="2.487138096">
        <ele>343.33</ele>
        <time>2013-03-31T09:34:10Z</time>
      </trkpt>
      <trkpt lat="41.644444630" lon="2.487175312">
        <ele>340.92</ele>
        <time>2013-03-31T09:34:14Z</time>
      </trkpt>
      <trkpt lat="41.644554768" lon="2.487282684">
        <ele>339.96</ele>
        <time>2013-03-31T09:34:17Z</time>
      </trkpt>
      <trkpt lat="41.644664655" lon="2.487469936">
        <ele>337.56</ele>
        <time>2013-03-31T09:34:22Z</time>
      </trkpt>
      <trkpt lat="41.644687370" lon="2.487505224">
        <ele>337.08</ele>
        <time>2013-03-31T09:34:23Z</time>
      </trkpt>
      <trkpt lat="41.644799268" lon="2.487550067">
        <ele>335.64</ele>
        <time>2013-03-31T09:34:26Z</time>
      </trkpt>
      <trkpt lat="41.645052402" lon="2.487576386">
        <ele>334.68</ele>
        <time>2013-03-31T09:34:32Z</time>
      </trkpt>
      <trkpt lat="41.645136137" lon="2.487469182">
        <ele>332.75</ele>
        <time>2013-03-31T09:34:37Z</time>
      </trkpt>
      <trkpt lat="41.645128425" lon="2.487370275">
        <ele>331.79</ele>
        <time>2013-03-31T09:34:40Z</time>
      </trkpt>
      <trkpt lat="41.645090623" lon="2.487138264">
        <ele>328.91</ele>
        <time>2013-03-31T09:34:46Z</time>
      </trkpt>
      <trkpt lat="41.645111913" lon="2.487043297">
        <ele>327.95</ele>
        <time>2013-03-31T09:34:49Z</time>
      </trkpt>
      <trkpt lat="41.645256082" lon="2.486861577">
        <ele>325.54</ele>
        <time>2013-03-31T09:34:54Z</time>
      </trkpt>
      <trkpt lat="41.645267984" lon="2.486715229">
        <ele>324.10</ele>
        <time>2013-03-31T09:34:58Z</time>
      </trkpt>
      <trkpt lat="41.645200594" lon="2.486622190">
        <ele>324.10</ele>
        <time>2013-03-31T09:35:01Z</time>
      </trkpt>
      <trkpt lat="41.645047959" lon="2.486355562">
        <ele>323.62</ele>
        <time>2013-03-31T09:35:09Z</time>
      </trkpt>
      <trkpt lat="41.645029016" lon="2.486165460">
        <ele>324.58</ele>
        <time>2013-03-31T09:35:14Z</time>
      </trkpt>
      <trkpt lat="41.644955423" lon="2.485999582">
        <ele>325.06</ele>
        <time>2013-03-31T09:35:19Z</time>
      </trkpt>
      <trkpt lat="41.644922147" lon="2.485970916">
        <ele>325.06</ele>
        <time>2013-03-31T09:35:20Z</time>
      </trkpt>
      <trkpt lat="41.644859869" lon="2.485747958">
        <ele>325.06</ele>
        <time>2013-03-31T09:35:24Z</time>
      </trkpt>
      <trkpt lat="41.644901695" lon="2.485435229">
        <ele>321.70</ele>
        <time>2013-03-31T09:35:28Z</time>
      </trkpt>
      <trkpt lat="41.644847967" lon="2.485143120">
        <ele>321.22</ele>
        <time>2013-03-31T09:35:33Z</time>
      </trkpt>
      <trkpt lat="41.644675048" lon="2.484902978">
        <ele>321.22</ele>
        <time>2013-03-31T09:35:40Z</time>
      </trkpt>
      <trkpt lat="41.644534316" lon="2.484759396">
        <ele>321.22</ele>
        <time>2013-03-31T09:35:45Z</time>
      </trkpt>
      <trkpt lat="41.644344466" lon="2.484611539">
        <ele>321.22</ele>
        <time>2013-03-31T09:35:51Z</time>
      </trkpt>
      <trkpt lat="41.644255199" lon="2.484542975">
        <ele>322.66</ele>
        <time>2013-03-31T09:35:54Z</time>
      </trkpt>
      <trkpt lat="41.644255869" lon="2.484422360">
        <ele>322.66</ele>
        <time>2013-03-31T09:35:59Z</time>
      </trkpt>
      <trkpt lat="41.644467764" lon="2.484348431">
        <ele>322.66</ele>
        <time>2013-03-31T09:36:06Z</time>
      </trkpt>
      <trkpt lat="41.644673623" lon="2.484141398">
        <ele>323.14</ele>
        <time>2013-03-31T09:36:14Z</time>
      </trkpt>
      <trkpt lat="41.644745624" lon="2.484083563">
        <ele>323.14</ele>
        <time>2013-03-31T09:36:16Z</time>
      </trkpt>
      <trkpt lat="41.644953998" lon="2.484020783">
        <ele>319.78</ele>
        <time>2013-03-31T09:36:20Z</time>
      </trkpt>
      <trkpt lat="41.645005295" lon="2.484012904">
        <ele>318.81</ele>
        <time>2013-03-31T09:36:21Z</time>
      </trkpt>
      <trkpt lat="41.645112500" lon="2.483865131">
        <ele>314.97</ele>
        <time>2013-03-31T09:36:25Z</time>
      </trkpt>
      <trkpt lat="41.645113925" lon="2.483802853">
        <ele>314.01</ele>
        <time>2013-03-31T09:36:26Z</time>
      </trkpt>
      <trkpt lat="41.645116607" lon="2.483587857">
        <ele>311.12</ele>
        <time>2013-03-31T09:36:29Z</time>
      </trkpt>
      <trkpt lat="41.645188272" lon="2.483401947">
        <ele>309.68</ele>
        <time>2013-03-31T09:36:34Z</time>
      </trkpt>
      <trkpt lat="41.645326322" lon="2.483373281">
        <ele>311.60</ele>
        <time>2013-03-31T09:36:41Z</time>
      </trkpt>
      <trkpt lat="41.645464456" lon="2.483384261">
        <ele>313.53</ele>
        <time>2013-03-31T09:36:48Z</time>
      </trkpt>
      <trkpt lat="41.645617426" lon="2.483351991">
        <ele>316.41</ele>
        <time>2013-03-31T09:36:57Z</time>
      </trkpt>
      <trkpt lat="41.645745082" lon="2.483274542">
        <ele>318.81</ele>
        <time>2013-03-31T09:37:06Z</time>
      </trkpt>
      <trkpt lat="41.645857735" lon="2.483219473">
        <ele>321.70</ele>
        <time>2013-03-31T09:37:15Z</time>
      </trkpt>
      <trkpt lat="41.645850694" lon="2.483080585">
        <ele>322.66</ele>
        <time>2013-03-31T09:37:23Z</time>
      </trkpt>
      <trkpt lat="41.645804510" lon="2.482998945">
        <ele>323.14</ele>
        <time>2013-03-31T09:37:28Z</time>
      </trkpt>
      <trkpt lat="41.645843653" lon="2.482810939">
        <ele>320.26</ele>
        <time>2013-03-31T09:37:34Z</time>
      </trkpt>
      <trkpt lat="41.645874918" lon="2.482636847">
        <ele>316.89</ele>
        <time>2013-03-31T09:37:38Z</time>
      </trkpt>
      <trkpt lat="41.645877516" lon="2.482593512">
        <ele>316.89</ele>
        <time>2013-03-31T09:37:39Z</time>
      </trkpt>
      <trkpt lat="41.645907523" lon="2.482453702">
        <ele>314.97</ele>
        <time>2013-03-31T09:37:44Z</time>
      </trkpt>
      <trkpt lat="41.645990504" lon="2.482343312">
        <ele>313.53</ele>
        <time>2013-03-31T09:37:49Z</time>
      </trkpt>
      <trkpt lat="41.646009112" lon="2.482316574">
        <ele>313.05</ele>
        <time>2013-03-31T09:37:50Z</time>
      </trkpt>
      <trkpt lat="41.646173146" lon="2.482096130">
        <ele>311.60</ele>
        <time>2013-03-31T09:37:55Z</time>
      </trkpt>
      <trkpt lat="41.646288313" lon="2.482082468">
        <ele>311.12</ele>
        <time>2013-03-31T09:37:58Z</time>
      </trkpt>
      <trkpt lat="41.646417981" lon="2.482087748">
        <ele>309.20</ele>
        <time>2013-03-31T09:38:01Z</time>
      </trkpt>
      <trkpt lat="41.646457963" lon="2.482075008">
        <ele>308.24</ele>
        <time>2013-03-31T09:38:02Z</time>
      </trkpt>
      <trkpt lat="41.646562988" lon="2.482000157">
        <ele>305.36</ele>
        <time>2013-03-31T09:38:05Z</time>
      </trkpt>
      <trkpt lat="41.646618644" lon="2.481979538">
        <ele>304.88</ele>
        <time>2013-03-31T09:38:07Z</time>
      </trkpt>
      <trkpt lat="41.646654351" lon="2.481963528">
        <ele>303.91</ele>
        <time>2013-03-31T09:38:08Z</time>
      </trkpt>
      <trkpt lat="41.646801537" lon="2.481853809">
        <ele>300.55</ele>
        <time>2013-03-31T09:38:12Z</time>
      </trkpt>
      <trkpt lat="41.646992728" lon="2.481782563">
        <ele>296.70</ele>
        <time>2013-03-31T09:38:16Z</time>
      </trkpt>
      <trkpt lat="41.647188278" lon="2.481712323">
        <ele>294.30</ele>
        <time>2013-03-31T09:38:20Z</time>
      </trkpt>
      <trkpt lat="41.647300260" lon="2.481631102">
        <ele>291.42</ele>
        <time>2013-03-31T09:38:24Z</time>
      </trkpt>
      <trkpt lat="41.647384247" lon="2.481510822">
        <ele>288.53</ele>
        <time>2013-03-31T09:38:28Z</time>
      </trkpt>
      <trkpt lat="41.647446022" lon="2.481352320">
        <ele>284.69</ele>
        <time>2013-03-31T09:38:32Z</time>
      </trkpt>
      <trkpt lat="41.647455996" lon="2.481312757">
        <ele>284.69</ele>
        <time>2013-03-31T09:38:33Z</time>
      </trkpt>
      <trkpt lat="41.647466641" lon="2.481271686">
        <ele>283.73</ele>
        <time>2013-03-31T09:38:34Z</time>
      </trkpt>
      <trkpt lat="41.647461109" lon="2.481088625">
        <ele>280.84</ele>
        <time>2013-03-31T09:38:38Z</time>
      </trkpt>
      <trkpt lat="41.647340996" lon="2.480924005">
        <ele>277.48</ele>
        <time>2013-03-31T09:38:42Z</time>
      </trkpt>
      <trkpt lat="41.647301685" lon="2.480821997">
        <ele>277.00</ele>
        <time>2013-03-31T09:38:44Z</time>
      </trkpt>
      <trkpt lat="41.647250053" lon="2.480581939">
        <ele>275.56</ele>
        <time>2013-03-31T09:38:50Z</time>
      </trkpt>
      <trkpt lat="41.647272265" lon="2.480504826">
        <ele>274.59</ele>
        <time>2013-03-31T09:38:54Z</time>
      </trkpt>
      <trkpt lat="41.647391288" lon="2.480511028">
        <ele>273.63</ele>
        <time>2013-03-31T09:39:00Z</time>
      </trkpt>
      <trkpt lat="41.647642242" lon="2.480569786">
        <ele>269.79</ele>
        <time>2013-03-31T09:39:06Z</time>
      </trkpt>
      <trkpt lat="41.647737796" lon="2.480610605">
        <ele>269.31</ele>
        <time>2013-03-31T09:39:08Z</time>
      </trkpt>
      <trkpt lat="41.647832092" lon="2.480660813">
        <ele>266.90</ele>
        <time>2013-03-31T09:39:10Z</time>
      </trkpt>
      <trkpt lat="41.648022780" lon="2.480853345">
        <ele>262.58</ele>
        <time>2013-03-31T09:39:15Z</time>
      </trkpt>
      <trkpt lat="41.648175415" lon="2.481091056">
        <ele>258.73</ele>
        <time>2013-03-31T09:39:19Z</time>
      </trkpt>
      <trkpt lat="41.648270466" lon="2.481254168">
        <ele>256.33</ele>
        <time>2013-03-31T09:39:23Z</time>
      </trkpt>
      <trkpt lat="41.648326205" lon="2.481249223">
        <ele>255.85</ele>
        <time>2013-03-31T09:39:27Z</time>
      </trkpt>
      <trkpt lat="41.648496609" lon="2.481231788">
        <ele>255.85</ele>
        <time>2013-03-31T09:39:34Z</time>
      </trkpt>
      <trkpt lat="41.648564838" lon="2.481230866">
        <ele>255.85</ele>
        <time>2013-03-31T09:39:36Z</time>
      </trkpt>
      <trkpt lat="41.648649579" lon="2.481248636">
        <ele>254.89</ele>
        <time>2013-03-31T09:39:38Z</time>
      </trkpt>
      <trkpt lat="41.648934815" lon="2.481287193">
        <ele>252.00</ele>
        <time>2013-03-31T09:39:43Z</time>
      </trkpt>
      <trkpt lat="41.649077308" lon="2.481280822">
        <ele>250.56</ele>
        <time>2013-03-31T09:39:45Z</time>
      </trkpt>
      <trkpt lat="41.649271852" lon="2.481231704">
        <ele>247.68</ele>
        <time>2013-03-31T09:39:48Z</time>
      </trkpt>
      <trkpt lat="41.649551220" lon="2.480951665">
        <ele>243.83</ele>
        <time>2013-03-31T09:39:54Z</time>
      </trkpt>
      <trkpt lat="41.649691533" lon="2.480734322">
        <ele>242.39</ele>
        <time>2013-03-31T09:39:59Z</time>
      </trkpt>
      <trkpt lat="41.649749452" lon="2.480735496">
        <ele>241.43</ele>
        <time>2013-03-31T09:40:00Z</time>
      </trkpt>
      <trkpt lat="41.650057404" lon="2.480766760">
        <ele>239.99</ele>
        <time>2013-03-31T09:40:07Z</time>
      </trkpt>
      <trkpt lat="41.650134852" lon="2.480731892">
        <ele>239.99</ele>
        <time>2013-03-31T09:40:12Z</time>
      </trkpt>
      <trkpt lat="41.650169386" lon="2.480720911">
        <ele>239.99</ele>
        <time>2013-03-31T09:40:19Z</time>
      </trkpt>
      <trkpt lat="41.650224203" lon="2.480711524">
        <ele>239.99</ele>
        <time>2013-03-31T09:40:37Z</time>
      </trkpt>
      <trkpt lat="41.650220264" lon="2.480755361">
        <ele>239.99</ele>
        <time>2013-03-31T09:40:42Z</time>
      </trkpt>
      <trkpt lat="41.650196962" lon="2.480858039">
        <ele>241.91</ele>
        <time>2013-03-31T09:40:49Z</time>
      </trkpt>
      <trkpt lat="41.650205093" lon="2.481064653">
        <ele>245.27</ele>
        <time>2013-03-31T09:40:59Z</time>
      </trkpt>
      <trkpt lat="41.650257312" lon="2.481199267">
        <ele>247.68</ele>
        <time>2013-03-31T09:41:07Z</time>
      </trkpt>
      <trkpt lat="41.650258988" lon="2.481382746">
        <ele>249.12</ele>
        <time>2013-03-31T09:41:16Z</time>
      </trkpt>
      <trkpt lat="41.650159579" lon="2.481396996">
        <ele>249.12</ele>
        <time>2013-03-31T09:41:21Z</time>
      </trkpt>
      <trkpt lat="41.650004849" lon="2.481403533">
        <ele>251.04</ele>
        <time>2013-03-31T09:41:30Z</time>
      </trkpt>
      <trkpt lat="41.649848107" lon="2.481489029">
        <ele>252.00</ele>
        <time>2013-03-31T09:41:40Z</time>
      </trkpt>
      <trkpt lat="41.649720116" lon="2.481595731">
        <ele>253.44</ele>
        <time>2013-03-31T09:41:48Z</time>
      </trkpt>
      <trkpt lat="41.649591034" lon="2.481652476">
        <ele>253.93</ele>
        <time>2013-03-31T09:41:56Z</time>
      </trkpt>
      <trkpt lat="41.649469162" lon="2.481758256">
        <ele>255.85</ele>
        <time>2013-03-31T09:42:05Z</time>
      </trkpt>
      <trkpt lat="41.649370758" lon="2.481928827">
        <ele>255.85</ele>
        <time>2013-03-31T09:42:13Z</time>
      </trkpt>
      <trkpt lat="41.649244610" lon="2.481935365">
        <ele>256.33</ele>
        <time>2013-03-31T09:42:19Z</time>
      </trkpt>
      <trkpt lat="41.649175711" lon="2.481942741">
        <ele>257.29</ele>
        <time>2013-03-31T09:42:23Z</time>
      </trkpt>
      <trkpt lat="41.649064902" lon="2.481971910">
        <ele>258.25</ele>
        <time>2013-03-31T09:42:29Z</time>
      </trkpt>
      <trkpt lat="41.648884021" lon="2.482082803">
        <ele>258.73</ele>
        <time>2013-03-31T09:42:39Z</time>
      </trkpt>
      <trkpt lat="41.648783103" lon="2.482246250">
        <ele>260.65</ele>
        <time>2013-03-31T09:42:48Z</time>
      </trkpt>
      <trkpt lat="41.648749156" lon="2.482313892">
        <ele>261.62</ele>
        <time>2013-03-31T09:42:52Z</time>
      </trkpt>
      <trkpt lat="41.648736499" lon="2.482360998">
        <ele>262.58</ele>
        <time>2013-03-31T09:42:56Z</time>
      </trkpt>
      <trkpt lat="41.648785869" lon="2.482337361">
        <ele>263.06</ele>
        <time>2013-03-31T09:43:02Z</time>
      </trkpt>
      <trkpt lat="41.648805063" lon="2.482327387">
        <ele>263.54</ele>
        <time>2013-03-31T09:43:04Z</time>
      </trkpt>
      <trkpt lat="41.648859378" lon="2.482315317">
        <ele>264.02</ele>
        <time>2013-03-31T09:43:09Z</time>
      </trkpt>
      <trkpt lat="41.648904976" lon="2.482309533">
        <ele>264.50</ele>
        <time>2013-03-31T09:43:13Z</time>
      </trkpt>
      <trkpt lat="41.649039757" lon="2.482291512">
        <ele>266.42</ele>
        <time>2013-03-31T09:43:23Z</time>
      </trkpt>
      <trkpt lat="41.649133885" lon="2.482303666">
        <ele>267.38</ele>
        <time>2013-03-31T09:43:31Z</time>
      </trkpt>
      <trkpt lat="41.649276545" lon="2.482319508">
        <ele>267.86</ele>
        <time>2013-03-31T09:43:40Z</time>
      </trkpt>
      <trkpt lat="41.649307726" lon="2.482330237">
        <ele>267.38</ele>
        <time>2013-03-31T09:43:46Z</time>
      </trkpt>
      <trkpt lat="41.649390036" lon="2.482314227">
        <ele>267.38</ele>
        <time>2013-03-31T09:43:51Z</time>
      </trkpt>
      <trkpt lat="41.649567062" lon="2.482279610">
        <ele>267.86</ele>
        <time>2013-03-31T09:44:00Z</time>
      </trkpt>
      <trkpt lat="41.649744842" lon="2.482239293">
        <ele>270.75</ele>
        <time>2013-03-31T09:44:10Z</time>
      </trkpt>
      <trkpt lat="41.649831008" lon="2.482229654">
        <ele>270.75</ele>
        <time>2013-03-31T09:44:14Z</time>
      </trkpt>
      <trkpt lat="41.649964951" lon="2.482292350">
        <ele>272.67</ele>
        <time>2013-03-31T09:44:23Z</time>
      </trkpt>
      <trkpt lat="41.650081376" lon="2.482387653">
        <ele>274.11</ele>
        <time>2013-03-31T09:44:31Z</time>
      </trkpt>
      <trkpt lat="41.650135942" lon="2.482538108">
        <ele>274.11</ele>
        <time>2013-03-31T09:44:36Z</time>
      </trkpt>
      <trkpt lat="41.650226047" lon="2.482733909">
        <ele>274.59</ele>
        <time>2013-03-31T09:44:43Z</time>
      </trkpt>
      <trkpt lat="41.650346495" lon="2.482862320">
        <ele>275.56</ele>
        <time>2013-03-31T09:44:50Z</time>
      </trkpt>
      <trkpt lat="41.650459651" lon="2.482891070">
        <ele>276.52</ele>
        <time>2013-03-31T09:44:56Z</time>
      </trkpt>
      <trkpt lat="41.650562162" lon="2.482903224">
        <ele>277.00</ele>
        <time>2013-03-31T09:45:01Z</time>
      </trkpt>
      <trkpt lat="41.650629385" lon="2.482903224">
        <ele>278.44</ele>
        <time>2013-03-31T09:45:05Z</time>
      </trkpt>
      <trkpt lat="41.650756454" lon="2.482920658">
        <ele>280.36</ele>
        <time>2013-03-31T09:45:13Z</time>
      </trkpt>
      <trkpt lat="41.650912525" lon="2.482931052">
        <ele>283.25</ele>
        <time>2013-03-31T09:45:22Z</time>
      </trkpt>
      <trkpt lat="41.651045211" lon="2.483019732">
        <ele>284.21</ele>
        <time>2013-03-31T09:45:30Z</time>
      </trkpt>
      <trkpt lat="41.651078822" lon="2.483177144">
        <ele>286.13</ele>
        <time>2013-03-31T09:45:38Z</time>
      </trkpt>
      <trkpt lat="41.651079493" lon="2.483220060">
        <ele>286.13</ele>
        <time>2013-03-31T09:45:40Z</time>
      </trkpt>
      <trkpt lat="41.651083348" lon="2.483293485">
        <ele>286.13</ele>
        <time>2013-03-31T09:45:44Z</time>
      </trkpt>
      <trkpt lat="41.651081588" lon="2.483322403">
        <ele>286.61</ele>
        <time>2013-03-31T09:45:46Z</time>
      </trkpt>
      <trkpt lat="41.651094999" lon="2.483389877">
        <ele>286.61</ele>
        <time>2013-03-31T09:45:49Z</time>
      </trkpt>
      <trkpt lat="41.651209664" lon="2.483408066">
        <ele>286.61</ele>
        <time>2013-03-31T09:45:54Z</time>
      </trkpt>
      <trkpt lat="41.651386019" lon="2.483369928">
        <ele>285.17</ele>
        <time>2013-03-31T09:46:02Z</time>
      </trkpt>
      <trkpt lat="41.651521051" lon="2.483442012">
        <ele>285.17</ele>
        <time>2013-03-31T09:46:09Z</time>
      </trkpt>
      <trkpt lat="41.651617024" lon="2.483397924">
        <ele>287.09</ele>
        <time>2013-03-31T09:46:16Z</time>
      </trkpt>
      <trkpt lat="41.651649630" lon="2.483365821">
        <ele>288.05</ele>
        <time>2013-03-31T09:46:22Z</time>
      </trkpt>
      <trkpt lat="41.651658766" lon="2.483367749">
        <ele>288.05</ele>
        <time>2013-03-31T09:46:28Z</time>
      </trkpt>
      <trkpt lat="41.651676787" lon="2.483311338">
        <ele>289.01</ele>
        <time>2013-03-31T09:46:36Z</time>
      </trkpt>
      <trkpt lat="41.651691288" lon="2.483252665">
        <ele>289.49</ele>
        <time>2013-03-31T09:46:42Z</time>
      </trkpt>
      <trkpt lat="41.651730515" lon="2.483141437">
        <ele>289.97</ele>
        <time>2013-03-31T09:46:49Z</time>
      </trkpt>
      <trkpt lat="41.651791200" lon="2.482976062">
        <ele>290.94</ele>
        <time>2013-03-31T09:46:57Z</time>
      </trkpt>
      <trkpt lat="41.651826572" lon="2.482820243">
        <ele>291.90</ele>
        <time>2013-03-31T09:47:06Z</time>
      </trkpt>
      <trkpt lat="41.651873008" lon="2.482781351">
        <ele>292.38</ele>
        <time>2013-03-31T09:47:14Z</time>
      </trkpt>
      <trkpt lat="41.651894465" lon="2.482778082">
        <ele>292.38</ele>
        <time>2013-03-31T09:47:21Z</time>
      </trkpt>
      <trkpt lat="41.651908798" lon="2.482723180">
        <ele>292.86</ele>
        <time>2013-03-31T09:47:29Z</time>
      </trkpt>
      <trkpt lat="41.651907206" lon="2.482709350">
        <ele>292.86</ele>
        <time>2013-03-31T09:47:45Z</time>
      </trkpt>
      <trkpt lat="41.651897064" lon="2.482710021">
        <ele>292.86</ele>
        <time>2013-03-31T09:48:01Z</time>
      </trkpt>
      <trkpt lat="41.651884156" lon="2.482730892">
        <ele>292.86</ele>
        <time>2013-03-31T09:48:16Z</time>
      </trkpt>
      <trkpt lat="41.651874433" lon="2.482746566">
        <ele>292.86</ele>
        <time>2013-03-31T09:48:33Z</time>
      </trkpt>
      <trkpt lat="41.651857417" lon="2.482745476">
        <ele>292.86</ele>
        <time>2013-03-31T09:48:49Z</time>
      </trkpt>
      <trkpt lat="41.651858172" lon="2.482738938">
        <ele>293.34</ele>
        <time>2013-03-31T09:49:04Z</time>
      </trkpt>
      <trkpt lat="41.651870661" lon="2.482748913">
        <ele>293.34</ele>
        <time>2013-03-31T09:49:16Z</time>
      </trkpt>
      <trkpt lat="41.651870325" lon="2.482751511">
        <ele>293.34</ele>
        <time>2013-03-31T09:49:26Z</time>
      </trkpt>
      <trkpt lat="41.651872588" lon="2.482740112">
        <ele>293.34</ele>
        <time>2013-03-31T09:49:40Z</time>
      </trkpt>
      <trkpt lat="41.651866218" lon="2.482733490">
        <ele>293.34</ele>
        <time>2013-03-31T09:49:54Z</time>
      </trkpt>
      <trkpt lat="41.651852556" lon="2.482726868">
        <ele>293.34</ele>
        <time>2013-03-31T09:50:07Z</time>
      </trkpt>
      <trkpt lat="41.651843587" lon="2.482724270">
        <ele>293.34</ele>
        <time>2013-03-31T09:50:20Z</time>
      </trkpt>
      <trkpt lat="41.651841492" lon="2.482734161">
        <ele>293.34</ele>
        <time>2013-03-31T09:50:34Z</time>
      </trkpt>
      <trkpt lat="41.651847024" lon="2.482736675">
        <ele>293.34</ele>
        <time>2013-03-31T09:50:50Z</time>
      </trkpt>
      <trkpt lat="41.651848197" lon="2.482728545">
        <ele>293.82</ele>
        <time>2013-03-31T09:51:03Z</time>
      </trkpt>
      <trkpt lat="41.651845180" lon="2.482727036">
        <ele>293.82</ele>
        <time>2013-03-31T09:51:18Z</time>
      </trkpt>
      <trkpt lat="41.651848532" lon="2.482728209">
        <ele>293.82</ele>
        <time>2013-03-31T09:51:33Z</time>
      </trkpt>
      <trkpt lat="41.651849287" lon="2.482731143">
        <ele>293.82</ele>
        <time>2013-03-31T09:51:44Z</time>
      </trkpt>
      <trkpt lat="41.651845263" lon="2.482739441">
        <ele>293.82</ele>
        <time>2013-03-31T09:51:56Z</time>
      </trkpt>
      <trkpt lat="41.651834451" lon="2.482735837">
        <ele>293.82</ele>
        <time>2013-03-31T09:52:10Z</time>
      </trkpt>
      <trkpt lat="41.651840570" lon="2.482744135">
        <ele>293.82</ele>
        <time>2013-03-31T09:52:24Z</time>
      </trkpt>
      <trkpt lat="41.651839899" lon="2.482740531">
        <ele>293.82</ele>
        <time>2013-03-31T09:52:35Z</time>
      </trkpt>
      <trkpt lat="41.651847191" lon="2.482732400">
        <ele>293.82</ele>
        <time>2013-03-31T09:52:45Z</time>
      </trkpt>
      <trkpt lat="41.651849538" lon="2.482736340">
        <ele>294.30</ele>
        <time>2013-03-31T09:52:56Z</time>
      </trkpt>
      <trkpt lat="41.651851718" lon="2.482739106">
        <ele>294.30</ele>
        <time>2013-03-31T09:53:10Z</time>
      </trkpt>
      <trkpt lat="41.651867643" lon="2.482752852">
        <ele>294.30</ele>
        <time>2013-03-31T09:53:21Z</time>
      </trkpt>
      <trkpt lat="41.651863704" lon="2.482745811">
        <ele>294.30</ele>
        <time>2013-03-31T09:53:36Z</time>
      </trkpt>
      <trkpt lat="41.651849035" lon="2.482727455">
        <ele>294.30</ele>
        <time>2013-03-31T09:53:49Z</time>
      </trkpt>
      <trkpt lat="41.651845766" lon="2.482722091">
        <ele>294.30</ele>
        <time>2013-03-31T09:54:03Z</time>
      </trkpt>
      <trkpt lat="41.651845263" lon="2.482724773">
        <ele>294.30</ele>
        <time>2013-03-31T09:54:17Z</time>
      </trkpt>
      <trkpt lat="41.651856663" lon="2.482735753">
        <ele>294.30</ele>
        <time>2013-03-31T09:54:29Z</time>
      </trkpt>
      <trkpt lat="41.651856328" lon="2.482747991">
        <ele>294.30</ele>
        <time>2013-03-31T09:54:43Z</time>
      </trkpt>
      <trkpt lat="41.651861273" lon="2.482755534">
        <ele>294.30</ele>
        <time>2013-03-31T09:54:54Z</time>
      </trkpt>
      <trkpt lat="41.651852640" lon="2.482751344">
        <ele>294.78</ele>
        <time>2013-03-31T09:55:05Z</time>
      </trkpt>
      <trkpt lat="41.651850628" lon="2.482752014">
        <ele>294.78</ele>
        <time>2013-03-31T09:55:13Z</time>
      </trkpt>
      <trkpt lat="41.651864374" lon="2.482759642">
        <ele>294.78</ele>
        <time>2013-03-31T09:55:29Z</time>
      </trkpt>
      <trkpt lat="41.651875438" lon="2.482745309">
        <ele>294.78</ele>
        <time>2013-03-31T09:55:47Z</time>
      </trkpt>
      <trkpt lat="41.651872505" lon="2.482743548">
        <ele>294.78</ele>
        <time>2013-03-31T09:55:58Z</time>
      </trkpt>
      <trkpt lat="41.651872002" lon="2.482727204">
        <ele>294.78</ele>
        <time>2013-03-31T09:56:12Z</time>
      </trkpt>
      <trkpt lat="41.651870744" lon="2.482734747">
        <ele>294.78</ele>
        <time>2013-03-31T09:56:27Z</time>
      </trkpt>
      <trkpt lat="41.651862698" lon="2.482745141">
        <ele>294.78</ele>
        <time>2013-03-31T09:56:39Z</time>
      </trkpt>
      <trkpt lat="41.651849706" lon="2.482741788">
        <ele>294.78</ele>
        <time>2013-03-31T09:56:54Z</time>
      </trkpt>
      <trkpt lat="41.651865296" lon="2.482730975">
        <ele>294.78</ele>
        <time>2013-03-31T09:57:10Z</time>
      </trkpt>
      <trkpt lat="41.651881138" lon="2.482728377">
        <ele>294.78</ele>
        <time>2013-03-31T09:57:24Z</time>
      </trkpt>
      <trkpt lat="41.651885161" lon="2.482720498">
        <ele>295.26</ele>
        <time>2013-03-31T09:57:34Z</time>
      </trkpt>
      <trkpt lat="41.651894465" lon="2.482718989">
        <ele>295.26</ele>
        <time>2013-03-31T09:57:48Z</time>
      </trkpt>
      <trkpt lat="41.651885245" lon="2.482726365">
        <ele>295.74</ele>
        <time>2013-03-31T09:58:06Z</time>
      </trkpt>
      <trkpt lat="41.651873259" lon="2.482723013">
        <ele>295.74</ele>
        <time>2013-03-31T09:58:18Z</time>
      </trkpt>
      <trkpt lat="41.651859177" lon="2.482726868">
        <ele>295.74</ele>
        <time>2013-03-31T09:58:30Z</time>
      </trkpt>
      <trkpt lat="41.651848365" lon="2.482735669">
        <ele>295.74</ele>
        <time>2013-03-31T09:58:47Z</time>
      </trkpt>
      <trkpt lat="41.651842330" lon="2.482746063">
        <ele>295.74</ele>
        <time>2013-03-31T09:59:03Z</time>
      </trkpt>
      <trkpt lat="41.651844593" lon="2.482742710">
        <ele>295.74</ele>
        <time>2013-03-31T09:59:15Z</time>
      </trkpt>
      <trkpt lat="41.651846856" lon="2.482744387">
        <ele>296.22</ele>
        <time>2013-03-31T09:59:31Z</time>
      </trkpt>
      <trkpt lat="41.651850460" lon="2.482757630">
        <ele>296.22</ele>
        <time>2013-03-31T09:59:46Z</time>
      </trkpt>
      <trkpt lat="41.651842246" lon="2.482760899">
        <ele>296.70</ele>
        <time>2013-03-31T10:00:01Z</time>
      </trkpt>
      <trkpt lat="41.651821710" lon="2.482744387">
        <ele>296.70</ele>
        <time>2013-03-31T10:00:20Z</time>
      </trkpt>
      <trkpt lat="41.651805449" lon="2.482729634">
        <ele>296.70</ele>
        <time>2013-03-31T10:00:34Z</time>
      </trkpt>
      <trkpt lat="41.651793799" lon="2.482729634">
        <ele>297.18</ele>
        <time>2013-03-31T10:00:49Z</time>
      </trkpt>
      <trkpt lat="41.651797235" lon="2.482732820">
        <ele>297.18</ele>
        <time>2013-03-31T10:01:07Z</time>
      </trkpt>
      <trkpt lat="41.651804276" lon="2.482743129">
        <ele>297.18</ele>
        <time>2013-03-31T10:01:27Z</time>
      </trkpt>
      <trkpt lat="41.651822716" lon="2.482767772">
        <ele>297.67</ele>
        <time>2013-03-31T10:01:47Z</time>
      </trkpt>
      <trkpt lat="41.651827578" lon="2.482772885">
        <ele>297.67</ele>
        <time>2013-03-31T10:01:57Z</time>
      </trkpt>
      <trkpt lat="41.651824728" lon="2.482765928">
        <ele>297.67</ele>
        <time>2013-03-31T10:02:17Z</time>
      </trkpt>
      <trkpt lat="41.651820872" lon="2.482756037">
        <ele>297.67</ele>
        <time>2013-03-31T10:02:40Z</time>
      </trkpt>
      <trkpt lat="41.651819950" lon="2.482751008">
        <ele>298.15</ele>
        <time>2013-03-31T10:02:52Z</time>
      </trkpt>
      <trkpt lat="41.651825063" lon="2.482744051">
        <ele>298.15</ele>
        <time>2013-03-31T10:03:03Z</time>
      </trkpt>
      <trkpt lat="41.651834618" lon="2.482755115">
        <ele>298.63</ele>
        <time>2013-03-31T10:03:17Z</time>
      </trkpt>
      <trkpt lat="41.651829757" lon="2.482758636">
        <ele>298.63</ele>
        <time>2013-03-31T10:03:34Z</time>
      </trkpt>
      <trkpt lat="41.651834702" lon="2.482761821">
        <ele>298.63</ele>
        <time>2013-03-31T10:03:51Z</time>
      </trkpt>
      <trkpt lat="41.651837468" lon="2.482755702">
        <ele>298.63</ele>
        <time>2013-03-31T10:04:03Z</time>
      </trkpt>
      <trkpt lat="41.651847024" lon="2.482768275">
        <ele>298.63</ele>
        <time>2013-03-31T10:04:20Z</time>
      </trkpt>
      <trkpt lat="41.651826320" lon="2.482775400">
        <ele>299.11</ele>
        <time>2013-03-31T10:04:38Z</time>
      </trkpt>
      <trkpt lat="41.651819363" lon="2.482779591">
        <ele>299.11</ele>
        <time>2013-03-31T10:04:54Z</time>
      </trkpt>
      <trkpt lat="41.651830511" lon="2.482768862">
        <ele>299.11</ele>
        <time>2013-03-31T10:05:12Z</time>
      </trkpt>
      <trkpt lat="41.651841575" lon="2.482768275">
        <ele>299.11</ele>
        <time>2013-03-31T10:05:30Z</time>
      </trkpt>
      <trkpt lat="41.651841827" lon="2.482771879">
        <ele>299.11</ele>
        <time>2013-03-31T10:05:45Z</time>
      </trkpt>
      <trkpt lat="41.651836882" lon="2.482773388">
        <ele>299.11</ele>
        <time>2013-03-31T10:05:59Z</time>
      </trkpt>
      <trkpt lat="41.651840234" lon="2.482763497">
        <ele>299.11</ele>
        <time>2013-03-31T10:06:14Z</time>
      </trkpt>
      <trkpt lat="41.651839648" lon="2.482756456">
        <ele>299.11</ele>
        <time>2013-03-31T10:06:35Z</time>
      </trkpt>
      <trkpt lat="41.651861608" lon="2.482771125">
        <ele>299.11</ele>
        <time>2013-03-31T10:07:00Z</time>
      </trkpt>
      <trkpt lat="41.651867978" lon="2.482779171">
        <ele>299.59</ele>
        <time>2013-03-31T10:07:15Z</time>
      </trkpt>
      <trkpt lat="41.651869990" lon="2.482781854">
        <ele>299.59</ele>
        <time>2013-03-31T10:07:24Z</time>
      </trkpt>
      <trkpt lat="41.651857920" lon="2.482779339">
        <ele>299.59</ele>
        <time>2013-03-31T10:07:40Z</time>
      </trkpt>
      <trkpt lat="41.651846185" lon="2.482782608">
        <ele>299.59</ele>
        <time>2013-03-31T10:08:05Z</time>
      </trkpt>
      <trkpt lat="41.651850209" lon="2.482776405">
        <ele>299.59</ele>
        <time>2013-03-31T10:08:26Z</time>
      </trkpt>
      <trkpt lat="41.651844425" lon="2.482775819">
        <ele>299.59</ele>
        <time>2013-03-31T10:08:49Z</time>
      </trkpt>
      <trkpt lat="41.651833529" lon="2.482764755">
        <ele>299.59</ele>
        <time>2013-03-31T10:09:11Z</time>
      </trkpt>
      <trkpt lat="41.651826991" lon="2.482754361">
        <ele>299.59</ele>
        <time>2013-03-31T10:09:36Z</time>
      </trkpt>
      <trkpt lat="41.651854400" lon="2.482720414">
        <ele>300.07</ele>
        <time>2013-03-31T10:09:56Z</time>
      </trkpt>
      <trkpt lat="41.651855154" lon="2.482720917">
        <ele>300.07</ele>
        <time>2013-03-31T10:10:14Z</time>
      </trkpt>
      <trkpt lat="41.651850125" lon="2.482729215">
        <ele>300.07</ele>
        <time>2013-03-31T10:10:35Z</time>
      </trkpt>
      <trkpt lat="41.651840905" lon="2.482749416">
        <ele>300.07</ele>
        <time>2013-03-31T10:10:54Z</time>
      </trkpt>
      <trkpt lat="41.651836462" lon="2.482762994">
        <ele>300.07</ele>
        <time>2013-03-31T10:11:09Z</time>
      </trkpt>
      <trkpt lat="41.651829925" lon="2.482785625">
        <ele>300.07</ele>
        <time>2013-03-31T10:11:23Z</time>
      </trkpt>
      <trkpt lat="41.651822465" lon="2.482787302">
        <ele>300.07</ele>
        <time>2013-03-31T10:11:26Z</time>
      </trkpt>
      <trkpt lat="41.651823890" lon="2.482730808">
        <ele>300.07</ele>
        <time>2013-03-31T10:11:31Z</time>
      </trkpt>
      <trkpt lat="41.651912235" lon="2.482695017">
        <ele>300.07</ele>
        <time>2013-03-31T10:11:37Z</time>
      </trkpt>
      <trkpt lat="41.651955988" lon="2.482695939">
        <ele>300.07</ele>
        <time>2013-03-31T10:11:39Z</time>
      </trkpt>
      <trkpt lat="41.652053889" lon="2.482668698">
        <ele>298.15</ele>
        <time>2013-03-31T10:11:46Z</time>
      </trkpt>
      <trkpt lat="41.652110048" lon="2.482695604">
        <ele>296.70</ele>
        <time>2013-03-31T10:11:50Z</time>
      </trkpt>
      <trkpt lat="41.652175762" lon="2.482719157">
        <ele>295.26</ele>
        <time>2013-03-31T10:11:57Z</time>
      </trkpt>
      <trkpt lat="41.652194286" lon="2.482705914">
        <ele>294.78</ele>
        <time>2013-03-31T10:12:06Z</time>
      </trkpt>
      <trkpt lat="41.652204344" lon="2.482698538">
        <ele>294.78</ele>
        <time>2013-03-31T10:12:13Z</time>
      </trkpt>
      <trkpt lat="41.652253546" lon="2.482612120">
        <ele>293.34</ele>
        <time>2013-03-31T10:12:19Z</time>
      </trkpt>
      <trkpt lat="41.652344322" lon="2.482430233">
        <ele>291.42</ele>
        <time>2013-03-31T10:12:26Z</time>
      </trkpt>
      <trkpt lat="41.652444151" lon="2.482197970">
        <ele>290.94</ele>
        <time>2013-03-31T10:12:34Z</time>
      </trkpt>
      <trkpt lat="41.652504165" lon="2.482014071">
        <ele>289.97</ele>
        <time>2013-03-31T10:12:41Z</time>
      </trkpt>
      <trkpt lat="41.652547164" lon="2.481922541">
        <ele>289.97</ele>
        <time>2013-03-31T10:12:48Z</time>
      </trkpt>
      <trkpt lat="41.652583374" lon="2.481885158">
        <ele>289.49</ele>
        <time>2013-03-31T10:12:59Z</time>
      </trkpt>
      <trkpt lat="41.652637353" lon="2.481811481">
        <ele>288.53</ele>
        <time>2013-03-31T10:13:05Z</time>
      </trkpt>
      <trkpt lat="41.652743552" lon="2.481646357">
        <ele>285.65</ele>
        <time>2013-03-31T10:13:11Z</time>
      </trkpt>
      <trkpt lat="41.652830389" lon="2.481463716">
        <ele>284.21</ele>
        <time>2013-03-31T10:13:15Z</time>
      </trkpt>
      <trkpt lat="41.652868191" lon="2.481355673">
        <ele>282.77</ele>
        <time>2013-03-31T10:13:17Z</time>
      </trkpt>
      <trkpt lat="41.652952513" lon="2.481108239">
        <ele>280.84</ele>
        <time>2013-03-31T10:13:23Z</time>
      </trkpt>
      <trkpt lat="41.653024178" lon="2.480881089">
        <ele>278.92</ele>
        <time>2013-03-31T10:13:29Z</time>
      </trkpt>
      <trkpt lat="41.653041445" lon="2.480780423">
        <ele>278.92</ele>
        <time>2013-03-31T10:13:31Z</time>
      </trkpt>
      <trkpt lat="41.653166503" lon="2.480456378">
        <ele>277.96</ele>
        <time>2013-03-31T10:13:39Z</time>
      </trkpt>
      <trkpt lat="41.653281670" lon="2.480185475">
        <ele>277.96</ele>
        <time>2013-03-31T10:13:47Z</time>
      </trkpt>
      <trkpt lat="41.653305810" lon="2.480120096">
        <ele>279.40</ele>
        <time>2013-03-31T10:13:49Z</time>
      </trkpt>
      <trkpt lat="41.653380325" lon="2.479967713">
        <ele>280.36</ele>
        <time>2013-03-31T10:13:54Z</time>
      </trkpt>
      <trkpt lat="41.653406225" lon="2.479926642">
        <ele>280.36</ele>
        <time>2013-03-31T10:13:55Z</time>
      </trkpt>
      <trkpt lat="41.653466575" lon="2.479834190">
        <ele>278.92</ele>
        <time>2013-03-31T10:13:57Z</time>
      </trkpt>
      <trkpt lat="41.653520555" lon="2.479745593">
        <ele>278.44</ele>
        <time>2013-03-31T10:13:59Z</time>
      </trkpt>
      <trkpt lat="41.653598506" lon="2.479433032">
        <ele>277.96</ele>
        <time>2013-03-31T10:14:06Z</time>
      </trkpt>
      <trkpt lat="41.653656509" lon="2.479087949">
        <ele>277.96</ele>
        <time>2013-03-31T10:14:13Z</time>
      </trkpt>
      <trkpt lat="41.653678637" lon="2.478931543">
        <ele>277.00</ele>
        <time>2013-03-31T10:14:16Z</time>
      </trkpt>
      <trkpt lat="41.653688025" lon="2.478815118">
        <ele>275.07</ele>
        <time>2013-03-31T10:14:18Z</time>
      </trkpt>
      <trkpt lat="41.653686265" lon="2.478565421">
        <ele>272.67</ele>
        <time>2013-03-31T10:14:22Z</time>
      </trkpt>
      <trkpt lat="41.653745944" lon="2.478040379">
        <ele>269.79</ele>
        <time>2013-03-31T10:14:29Z</time>
      </trkpt>
      <trkpt lat="41.653765641" lon="2.477930073">
        <ele>268.35</ele>
        <time>2013-03-31T10:14:31Z</time>
      </trkpt>
      <trkpt lat="41.653801516" lon="2.477839967">
        <ele>266.42</ele>
        <time>2013-03-31T10:14:34Z</time>
      </trkpt>
      <trkpt lat="41.653851975" lon="2.477684315">
        <ele>263.54</ele>
        <time>2013-03-31T10:14:40Z</time>
      </trkpt>
      <trkpt lat="41.653873517" lon="2.477613656">
        <ele>263.06</ele>
        <time>2013-03-31T10:14:42Z</time>
      </trkpt>
      <trkpt lat="41.653969741" lon="2.477404360">
        <ele>260.65</ele>
        <time>2013-03-31T10:14:48Z</time>
      </trkpt>
      <trkpt lat="41.654085160" lon="2.477123147">
        <ele>258.73</ele>
        <time>2013-03-31T10:14:54Z</time>
      </trkpt>
      <trkpt lat="41.654160261" lon="2.476898009">
        <ele>256.81</ele>
        <time>2013-03-31T10:14:59Z</time>
      </trkpt>
      <trkpt lat="41.654213319" lon="2.476821231">
        <ele>255.37</ele>
        <time>2013-03-31T10:15:03Z</time>
      </trkpt>
      <trkpt lat="41.654283811" lon="2.476665160">
        <ele>252.00</ele>
        <time>2013-03-31T10:15:09Z</time>
      </trkpt>
      <trkpt lat="41.654343825" lon="2.476470197">
        <ele>249.12</ele>
        <time>2013-03-31T10:15:16Z</time>
      </trkpt>
      <trkpt lat="41.654348603" lon="2.476405237">
        <ele>247.20</ele>
        <time>2013-03-31T10:15:21Z</time>
      </trkpt>
      <trkpt lat="41.654308956" lon="2.476246232">
        <ele>244.79</ele>
        <time>2013-03-31T10:15:29Z</time>
      </trkpt>
      <trkpt lat="41.654301077" lon="2.476110865">
        <ele>242.39</ele>
        <time>2013-03-31T10:15:34Z</time>
      </trkpt>
      <trkpt lat="41.654289343" lon="2.476028973">
        <ele>240.95</ele>
        <time>2013-03-31T10:15:37Z</time>
      </trkpt>
      <trkpt lat="41.654250786" lon="2.475923445">
        <ele>238.06</ele>
        <time>2013-03-31T10:15:44Z</time>
      </trkpt>
      <trkpt lat="41.654222455" lon="2.475838453">
        <ele>235.66</ele>
        <time>2013-03-31T10:15:48Z</time>
      </trkpt>
      <trkpt lat="41.654217594" lon="2.475803333">
        <ele>235.18</ele>
        <time>2013-03-31T10:15:50Z</time>
      </trkpt>
      <trkpt lat="41.654227652" lon="2.475648686">
        <ele>230.85</ele>
        <time>2013-03-31T10:15:56Z</time>
      </trkpt>
      <trkpt lat="41.654218767" lon="2.475536117">
        <ele>229.41</ele>
        <time>2013-03-31T10:16:02Z</time>
      </trkpt>
      <trkpt lat="41.654213151" lon="2.475463949">
        <ele>228.45</ele>
        <time>2013-03-31T10:16:13Z</time>
      </trkpt>
      <trkpt lat="41.654207787" lon="2.475414999">
        <ele>227.49</ele>
        <time>2013-03-31T10:16:22Z</time>
      </trkpt>
      <trkpt lat="41.654204099" lon="2.475403600">
        <ele>226.53</ele>
        <time>2013-03-31T10:16:30Z</time>
      </trkpt>
      <trkpt lat="41.654210972" lon="2.475371581">
        <ele>225.57</ele>
        <time>2013-03-31T10:16:37Z</time>
      </trkpt>
      <trkpt lat="41.654217258" lon="2.475298323">
        <ele>224.61</ele>
        <time>2013-03-31T10:16:44Z</time>
      </trkpt>
      <trkpt lat="41.654227317" lon="2.475286923">
        <ele>224.61</ele>
        <time>2013-03-31T10:16:55Z</time>
      </trkpt>
      <trkpt lat="41.654233016" lon="2.475284409">
        <ele>224.61</ele>
        <time>2013-03-31T10:17:11Z</time>
      </trkpt>
      <trkpt lat="41.654235699" lon="2.475262532">
        <ele>224.12</ele>
        <time>2013-03-31T10:17:19Z</time>
      </trkpt>
      <trkpt lat="41.654216839" lon="2.475262029">
        <ele>224.12</ele>
        <time>2013-03-31T10:17:38Z</time>
      </trkpt>
      <trkpt lat="41.654219270" lon="2.475259934">
        <ele>224.12</ele>
        <time>2013-03-31T10:17:41Z</time>
      </trkpt>
      <trkpt lat="41.654375676" lon="2.475267980">
        <ele>221.72</ele>
        <time>2013-03-31T10:17:47Z</time>
      </trkpt>
      <trkpt lat="41.654491766" lon="2.475141665">
        <ele>221.24</ele>
        <time>2013-03-31T10:17:51Z</time>
      </trkpt>
      <trkpt lat="41.654620512" lon="2.474762635">
        <ele>221.24</ele>
        <time>2013-03-31T10:18:01Z</time>
      </trkpt>
      <trkpt lat="41.654716904" lon="2.474304564">
        <ele>220.28</ele>
        <time>2013-03-31T10:18:10Z</time>
      </trkpt>
      <trkpt lat="41.654806841" lon="2.474253100">
        <ele>219.32</ele>
        <time>2013-03-31T10:18:15Z</time>
      </trkpt>
      <trkpt lat="41.654870795" lon="2.474429203">
        <ele>219.32</ele>
        <time>2013-03-31T10:18:21Z</time>
      </trkpt>
      <trkpt lat="41.654890912" lon="2.474676553">
        <ele>220.76</ele>
        <time>2013-03-31T10:18:30Z</time>
      </trkpt>
      <trkpt lat="41.654897366" lon="2.474872019">
        <ele>221.72</ele>
        <time>2013-03-31T10:18:37Z</time>
      </trkpt>
      <trkpt lat="41.654921590" lon="2.475099001">
        <ele>222.68</ele>
        <time>2013-03-31T10:18:45Z</time>
      </trkpt>
      <trkpt lat="41.655011528" lon="2.475311650">
        <ele>223.64</ele>
        <time>2013-03-31T10:18:54Z</time>
      </trkpt>
      <trkpt lat="41.655072632" lon="2.475552043">
        <ele>224.61</ele>
        <time>2013-03-31T10:19:03Z</time>
      </trkpt>
      <trkpt lat="41.655062489" lon="2.475826634">
        <ele>225.57</ele>
        <time>2013-03-31T10:19:12Z</time>
      </trkpt>
      <trkpt lat="41.655077409" lon="2.476050347">
        <ele>227.01</ele>
        <time>2013-03-31T10:19:20Z</time>
      </trkpt>
      <trkpt lat="41.655119989" lon="2.476272216">
        <ele>227.49</ele>
        <time>2013-03-31T10:19:28Z</time>
      </trkpt>
      <trkpt lat="41.655152679" lon="2.476507077">
        <ele>228.45</ele>
        <time>2013-03-31T10:19:35Z</time>
      </trkpt>
      <trkpt lat="41.655205736" lon="2.476755181">
        <ele>228.93</ele>
        <time>2013-03-31T10:19:43Z</time>
      </trkpt>
      <trkpt lat="41.655237504" lon="2.476940002">
        <ele>229.41</ele>
        <time>2013-03-31T10:19:50Z</time>
      </trkpt>
      <trkpt lat="41.655190146" lon="2.477178132">
        <ele>230.85</ele>
        <time>2013-03-31T10:19:57Z</time>
      </trkpt>
      <trkpt lat="41.655235743" lon="2.477354739">
        <ele>231.81</ele>
        <time>2013-03-31T10:20:03Z</time>
      </trkpt>
      <trkpt lat="41.655266254" lon="2.477588343">
        <ele>232.78</ele>
        <time>2013-03-31T10:20:11Z</time>
      </trkpt>
      <trkpt lat="41.655269858" lon="2.477685573">
        <ele>234.22</ele>
        <time>2013-03-31T10:20:15Z</time>
      </trkpt>
      <trkpt lat="41.655262482" lon="2.477792945">
        <ele>235.18</ele>
        <time>2013-03-31T10:20:19Z</time>
      </trkpt>
      <trkpt lat="41.655234905" lon="2.477973323">
        <ele>236.62</ele>
        <time>2013-03-31T10:20:26Z</time>
      </trkpt>
      <trkpt lat="41.655216214" lon="2.478072481">
        <ele>236.62</ele>
        <time>2013-03-31T10:20:30Z</time>
      </trkpt>
      <trkpt lat="41.655176819" lon="2.478304912">
        <ele>237.10</ele>
        <time>2013-03-31T10:20:39Z</time>
      </trkpt>
      <trkpt lat="41.655174556" lon="2.478525858">
        <ele>238.06</ele>
        <time>2013-03-31T10:20:46Z</time>
      </trkpt>
      <trkpt lat="41.655225434" lon="2.478712272">
        <ele>238.54</ele>
        <time>2013-03-31T10:20:52Z</time>
      </trkpt>
      <trkpt lat="41.655270780" lon="2.478924418">
        <ele>239.51</ele>
        <time>2013-03-31T10:20:59Z</time>
      </trkpt>
      <trkpt lat="41.655257285" lon="2.479035646">
        <ele>239.51</ele>
        <time>2013-03-31T10:21:03Z</time>
      </trkpt>
      <trkpt lat="41.655188469" lon="2.479176127">
        <ele>240.47</ele>
        <time>2013-03-31T10:21:10Z</time>
      </trkpt>
      <trkpt lat="41.655166509" lon="2.479216192">
        <ele>240.47</ele>
        <time>2013-03-31T10:21:12Z</time>
      </trkpt>
      <trkpt lat="41.655090736" lon="2.479394475">
        <ele>242.39</ele>
        <time>2013-03-31T10:21:19Z</time>
      </trkpt>
      <trkpt lat="41.655051928" lon="2.479591701">
        <ele>243.35</ele>
        <time>2013-03-31T10:21:28Z</time>
      </trkpt>
      <trkpt lat="41.655048576" lon="2.479775936">
        <ele>244.79</ele>
        <time>2013-03-31T10:21:35Z</time>
      </trkpt>
      <trkpt lat="41.655069782" lon="2.479968133">
        <ele>245.75</ele>
        <time>2013-03-31T10:21:42Z</time>
      </trkpt>
      <trkpt lat="41.655066010" lon="2.480009958">
        <ele>245.75</ele>
        <time>2013-03-31T10:21:44Z</time>
      </trkpt>
      <trkpt lat="41.654984622" lon="2.480154881">
        <ele>246.72</ele>
        <time>2013-03-31T10:21:52Z</time>
      </trkpt>
      <trkpt lat="41.654968696" lon="2.480177429">
        <ele>246.72</ele>
        <time>2013-03-31T10:21:53Z</time>
      </trkpt>
      <trkpt lat="41.654878004" lon="2.480321849">
        <ele>248.64</ele>
        <time>2013-03-31T10:22:00Z</time>
      </trkpt>
      <trkpt lat="41.654827880" lon="2.480396615">
        <ele>249.12</ele>
        <time>2013-03-31T10:22:04Z</time>
      </trkpt>
      <trkpt lat="41.654785132" lon="2.480506418">
        <ele>251.04</ele>
        <time>2013-03-31T10:22:09Z</time>
      </trkpt>
      <trkpt lat="41.654730231" lon="2.480704567">
        <ele>252.48</ele>
        <time>2013-03-31T10:22:17Z</time>
      </trkpt>
      <trkpt lat="41.654717239" lon="2.480755361">
        <ele>252.48</ele>
        <time>2013-03-31T10:22:19Z</time>
      </trkpt>
      <trkpt lat="41.654710282" lon="2.480989132">
        <ele>253.44</ele>
        <time>2013-03-31T10:22:28Z</time>
      </trkpt>
      <trkpt lat="41.654707684" lon="2.481095331">
        <ele>254.41</ele>
        <time>2013-03-31T10:22:33Z</time>
      </trkpt>
      <trkpt lat="41.654692093" lon="2.481186694">
        <ele>254.89</ele>
        <time>2013-03-31T10:22:37Z</time>
      </trkpt>
      <trkpt lat="41.654656051" lon="2.481335053">
        <ele>256.33</ele>
        <time>2013-03-31T10:22:44Z</time>
      </trkpt>
      <trkpt lat="41.654609364" lon="2.481423315">
        <ele>257.29</ele>
        <time>2013-03-31T10:22:49Z</time>
      </trkpt>
      <trkpt lat="41.654553121" lon="2.481598329">
        <ele>259.21</ele>
        <time>2013-03-31T10:22:57Z</time>
      </trkpt>
      <trkpt lat="41.654532921" lon="2.481799159">
        <ele>260.65</ele>
        <time>2013-03-31T10:23:05Z</time>
      </trkpt>
      <trkpt lat="41.654538118" lon="2.481964031">
        <ele>262.10</ele>
        <time>2013-03-31T10:23:13Z</time>
      </trkpt>
      <trkpt lat="41.654531412" lon="2.482036535">
        <ele>262.10</ele>
        <time>2013-03-31T10:23:16Z</time>
      </trkpt>
      <trkpt lat="41.654524120" lon="2.482120270">
        <ele>263.06</ele>
        <time>2013-03-31T10:23:20Z</time>
      </trkpt>
      <trkpt lat="41.654539040" lon="2.482142734">
        <ele>263.54</ele>
        <time>2013-03-31T10:23:23Z</time>
      </trkpt>
      <trkpt lat="41.654564940" lon="2.481982555">
        <ele>264.50</ele>
        <time>2013-03-31T10:23:34Z</time>
      </trkpt>
      <trkpt lat="41.654627804" lon="2.481849283">
        <ele>264.98</ele>
        <time>2013-03-31T10:23:42Z</time>
      </trkpt>
      <trkpt lat="41.654761831" lon="2.481720369">
        <ele>264.98</ele>
        <time>2013-03-31T10:23:48Z</time>
      </trkpt>
      <trkpt lat="41.654891163" lon="2.481616182">
        <ele>264.98</ele>
        <time>2013-03-31T10:23:54Z</time>
      </trkpt>
      <trkpt lat="41.654912202" lon="2.481594306">
        <ele>264.98</ele>
        <time>2013-03-31T10:23:55Z</time>
      </trkpt>
      <trkpt lat="41.654990489" lon="2.481454495">
        <ele>264.98</ele>
        <time>2013-03-31T10:24:00Z</time>
      </trkpt>
      <trkpt lat="41.655118816" lon="2.481294820">
        <ele>266.42</ele>
        <time>2013-03-31T10:24:09Z</time>
      </trkpt>
      <trkpt lat="41.655289807" lon="2.481097678">
        <ele>266.90</ele>
        <time>2013-03-31T10:24:16Z</time>
      </trkpt>
      <trkpt lat="41.655488877" lon="2.480929369">
        <ele>265.94</ele>
        <time>2013-03-31T10:24:22Z</time>
      </trkpt>
      <trkpt lat="41.655624245" lon="2.480786039">
        <ele>265.46</ele>
        <time>2013-03-31T10:24:27Z</time>
      </trkpt>
      <trkpt lat="41.655705633" lon="2.480641116">
        <ele>265.46</ele>
        <time>2013-03-31T10:24:32Z</time>
      </trkpt>
      <trkpt lat="41.655813843" lon="2.480412038">
        <ele>265.46</ele>
        <time>2013-03-31T10:24:39Z</time>
      </trkpt>
      <trkpt lat="41.655913420" lon="2.480261918">
        <ele>265.46</ele>
        <time>2013-03-31T10:24:46Z</time>
      </trkpt>
      <trkpt lat="41.655987097" lon="2.480201569">
        <ele>266.42</ele>
        <time>2013-03-31T10:24:52Z</time>
      </trkpt>
      <trkpt lat="41.656017188" lon="2.480149685">
        <ele>266.42</ele>
        <time>2013-03-31T10:24:58Z</time>
      </trkpt>
      <trkpt lat="41.655997323" lon="2.480173573">
        <ele>266.42</ele>
        <time>2013-03-31T10:25:06Z</time>
      </trkpt>
      <trkpt lat="41.655992462" lon="2.480180446">
        <ele>266.42</ele>
        <time>2013-03-31T10:25:07Z</time>
      </trkpt>
      <trkpt lat="41.655910822" lon="2.480252698">
        <ele>266.42</ele>
        <time>2013-03-31T10:25:13Z</time>
      </trkpt>
      <trkpt lat="41.655894561" lon="2.480288321">
        <ele>266.42</ele>
        <time>2013-03-31T10:25:15Z</time>
      </trkpt>
      <trkpt lat="41.655899423" lon="2.480330734">
        <ele>266.42</ele>
        <time>2013-03-31T10:25:18Z</time>
      </trkpt>
      <trkpt lat="41.655990031" lon="2.480313802">
        <ele>264.98</ele>
        <time>2013-03-31T10:25:25Z</time>
      </trkpt>
      <trkpt lat="41.656009728" lon="2.480308941">
        <ele>264.98</ele>
        <time>2013-03-31T10:25:26Z</time>
      </trkpt>
      <trkpt lat="41.656246601" lon="2.480286142">
        <ele>261.62</ele>
        <time>2013-03-31T10:25:35Z</time>
      </trkpt>
      <trkpt lat="41.656302844" lon="2.480275748">
        <ele>261.14</ele>
        <time>2013-03-31T10:25:38Z</time>
      </trkpt>
      <trkpt lat="41.656340897" lon="2.480271725">
        <ele>260.65</ele>
        <time>2013-03-31T10:25:40Z</time>
      </trkpt>
      <trkpt lat="41.656425890" lon="2.480249010">
        <ele>257.77</ele>
        <time>2013-03-31T10:25:45Z</time>
      </trkpt>
      <trkpt lat="41.656599647" lon="2.480301900">
        <ele>255.37</ele>
        <time>2013-03-31T10:25:51Z</time>
      </trkpt>
      <trkpt lat="41.656788240" lon="2.480350096">
        <ele>254.41</ele>
        <time>2013-03-31T10:25:57Z</time>
      </trkpt>
      <trkpt lat="41.656833250" lon="2.480357304">
        <ele>252.96</ele>
        <time>2013-03-31T10:25:59Z</time>
      </trkpt>
      <trkpt lat="41.656916566" lon="2.480296116">
        <ele>252.96</ele>
        <time>2013-03-31T10:26:05Z</time>
      </trkpt>
      <trkpt lat="41.656972641" lon="2.480212465">
        <ele>252.00</ele>
        <time>2013-03-31T10:26:08Z</time>
      </trkpt>
      <trkpt lat="41.657030057" lon="2.480110206">
        <ele>251.52</ele>
        <time>2013-03-31T10:26:13Z</time>
      </trkpt>
      <trkpt lat="41.657135837" lon="2.480010545">
        <ele>250.56</ele>
        <time>2013-03-31T10:26:19Z</time>
      </trkpt>
      <trkpt lat="41.657166934" lon="2.479994536">
        <ele>250.08</ele>
        <time>2013-03-31T10:26:21Z</time>
      </trkpt>
      <trkpt lat="41.657220913" lon="2.480073074">
        <ele>247.68</ele>
        <time>2013-03-31T10:26:27Z</time>
      </trkpt>
      <trkpt lat="41.657217142" lon="2.480086401">
        <ele>247.20</ele>
        <time>2013-03-31T10:26:28Z</time>
      </trkpt>
      <trkpt lat="41.657205239" lon="2.480115738">
        <ele>246.23</ele>
        <time>2013-03-31T10:26:30Z</time>
      </trkpt>
      <trkpt lat="41.657095101" lon="2.480226379">
        <ele>245.75</ele>
        <time>2013-03-31T10:26:37Z</time>
      </trkpt>
      <trkpt lat="41.657093089" lon="2.480255548">
        <ele>245.75</ele>
        <time>2013-03-31T10:26:38Z</time>
      </trkpt>
      <trkpt lat="41.657048498" lon="2.480479596">
        <ele>244.31</ele>
        <time>2013-03-31T10:26:45Z</time>
      </trkpt>
      <trkpt lat="41.656938862" lon="2.480601721">
        <ele>242.87</ele>
        <time>2013-03-31T10:26:50Z</time>
      </trkpt>
      <trkpt lat="41.656836100" lon="2.480649414">
        <ele>240.95</ele>
        <time>2013-03-31T10:26:55Z</time>
      </trkpt>
      <trkpt lat="41.656811290" lon="2.480664753">
        <ele>241.43</ele>
        <time>2013-03-31T10:26:57Z</time>
      </trkpt>
      <trkpt lat="41.656717161" lon="2.480690653">
        <ele>241.43</ele>
        <time>2013-03-31T10:27:03Z</time>
      </trkpt>
      <trkpt lat="41.656705175" lon="2.480697526">
        <ele>241.43</ele>
        <time>2013-03-31T10:27:04Z</time>
      </trkpt>
      <trkpt lat="41.656673910" lon="2.480717223">
        <ele>241.43</ele>
        <time>2013-03-31T10:27:10Z</time>
      </trkpt>
      <trkpt lat="41.656646166" lon="2.480728874">
        <ele>240.95</ele>
        <time>2013-03-31T10:27:21Z</time>
      </trkpt>
      <trkpt lat="41.656624457" lon="2.480757289">
        <ele>240.95</ele>
        <time>2013-03-31T10:27:30Z</time>
      </trkpt>
      <trkpt lat="41.656594618" lon="2.480785620">
        <ele>240.47</ele>
        <time>2013-03-31T10:27:36Z</time>
      </trkpt>
      <trkpt lat="41.656557821" lon="2.480823338">
        <ele>238.54</ele>
        <time>2013-03-31T10:27:43Z</time>
      </trkpt>
      <trkpt lat="41.656544661" lon="2.480837420">
        <ele>238.06</ele>
        <time>2013-03-31T10:27:51Z</time>
      </trkpt>
      <trkpt lat="41.656526137" lon="2.480855106">
        <ele>237.58</ele>
        <time>2013-03-31T10:28:00Z</time>
      </trkpt>
      <trkpt lat="41.656491101" lon="2.480868098">
        <ele>237.58</ele>
        <time>2013-03-31T10:28:06Z</time>
      </trkpt>
      <trkpt lat="41.656480456" lon="2.480891399">
        <ele>237.58</ele>
        <time>2013-03-31T10:28:15Z</time>
      </trkpt>
      <trkpt lat="41.656471906" lon="2.480894417">
        <ele>237.58</ele>
        <time>2013-03-31T10:28:23Z</time>
      </trkpt>
      <trkpt lat="41.656461178" lon="2.480891232">
        <ele>237.58</ele>
        <time>2013-03-31T10:28:32Z</time>
      </trkpt>
      <trkpt lat="41.656443324" lon="2.480896596">
        <ele>237.58</ele>
        <time>2013-03-31T10:28:41Z</time>
      </trkpt>
      <trkpt lat="41.656422872" lon="2.480942948">
        <ele>236.62</ele>
        <time>2013-03-31T10:28:49Z</time>
      </trkpt>
      <trkpt lat="41.656385070" lon="2.480955185">
        <ele>236.62</ele>
        <time>2013-03-31T10:28:57Z</time>
      </trkpt>
      <trkpt lat="41.656374341" lon="2.480995502">
        <ele>236.62</ele>
        <time>2013-03-31T10:29:04Z</time>
      </trkpt>
      <trkpt lat="41.656363948" lon="2.481027437">
        <ele>236.62</ele>
        <time>2013-03-31T10:29:13Z</time>
      </trkpt>
      <trkpt lat="41.656345172" lon="2.481075885">
        <ele>236.62</ele>
        <time>2013-03-31T10:29:20Z</time>
      </trkpt>
      <trkpt lat="41.656349531" lon="2.481146209">
        <ele>236.14</ele>
        <time>2013-03-31T10:29:28Z</time>
      </trkpt>
      <trkpt lat="41.656339556" lon="2.481198093">
        <ele>235.18</ele>
        <time>2013-03-31T10:29:37Z</time>
      </trkpt>
      <trkpt lat="41.656321870" lon="2.481291803">
        <ele>234.70</ele>
        <time>2013-03-31T10:29:45Z</time>
      </trkpt>
      <trkpt lat="41.656270406" lon="2.481394146">
        <ele>233.74</ele>
        <time>2013-03-31T10:29:54Z</time>
      </trkpt>
      <trkpt lat="41.656224137" lon="2.481479725">
        <ele>233.74</ele>
        <time>2013-03-31T10:30:02Z</time>
      </trkpt>
      <trkpt lat="41.656209637" lon="2.481501769">
        <ele>233.74</ele>
        <time>2013-03-31T10:30:04Z</time>
      </trkpt>
      <trkpt lat="41.656163955" lon="2.481567819">
        <ele>234.22</ele>
        <time>2013-03-31T10:30:12Z</time>
      </trkpt>
      <trkpt lat="41.656147611" lon="2.481591037">
        <ele>235.66</ele>
        <time>2013-03-31T10:30:15Z</time>
      </trkpt>
      <trkpt lat="41.656128500" lon="2.481631102">
        <ele>236.14</ele>
        <time>2013-03-31T10:30:22Z</time>
      </trkpt>
      <trkpt lat="41.656140570" lon="2.481616601">
        <ele>236.14</ele>
        <time>2013-03-31T10:30:30Z</time>
      </trkpt>
      <trkpt lat="41.656191448" lon="2.481565639">
        <ele>234.70</ele>
        <time>2013-03-31T10:30:38Z</time>
      </trkpt>
      <trkpt lat="41.656223635" lon="2.481541332">
        <ele>233.74</ele>
        <time>2013-03-31T10:30:47Z</time>
      </trkpt>
      <trkpt lat="41.656251546" lon="2.481533285">
        <ele>233.26</ele>
        <time>2013-03-31T10:30:54Z</time>
      </trkpt>
      <trkpt lat="41.656275267" lon="2.481502859">
        <ele>231.81</ele>
        <time>2013-03-31T10:31:01Z</time>
      </trkpt>
      <trkpt lat="41.656318182" lon="2.481450724">
        <ele>229.89</ele>
        <time>2013-03-31T10:31:09Z</time>
      </trkpt>
      <trkpt lat="41.656342238" lon="2.481432703">
        <ele>229.41</ele>
        <time>2013-03-31T10:31:18Z</time>
      </trkpt>
      <trkpt lat="41.656377107" lon="2.481427506">
        <ele>228.45</ele>
        <time>2013-03-31T10:31:25Z</time>
      </trkpt>
      <trkpt lat="41.656431422" lon="2.481379226">
        <ele>226.05</ele>
        <time>2013-03-31T10:31:33Z</time>
      </trkpt>
      <trkpt lat="41.656465620" lon="2.481321475">
        <ele>225.09</ele>
        <time>2013-03-31T10:31:40Z</time>
      </trkpt>
      <trkpt lat="41.656521695" lon="2.481267076">
        <ele>224.61</ele>
        <time>2013-03-31T10:31:48Z</time>
      </trkpt>
      <trkpt lat="41.656562180" lon="2.481248971">
        <ele>223.64</ele>
        <time>2013-03-31T10:31:52Z</time>
      </trkpt>
      <trkpt lat="41.656646921" lon="2.481239835">
        <ele>222.68</ele>
        <time>2013-03-31T10:32:01Z</time>
      </trkpt>
      <trkpt lat="41.656704588" lon="2.481262634">
        <ele>221.72</ele>
        <time>2013-03-31T10:32:11Z</time>
      </trkpt>
      <trkpt lat="41.656733422" lon="2.481269339">
        <ele>221.72</ele>
        <time>2013-03-31T10:32:20Z</time>
      </trkpt>
      <trkpt lat="41.656792095" lon="2.481262969">
        <ele>221.24</ele>
        <time>2013-03-31T10:32:27Z</time>
      </trkpt>
      <trkpt lat="41.656796873" lon="2.481264394">
        <ele>220.76</ele>
        <time>2013-03-31T10:32:28Z</time>
      </trkpt>
      <trkpt lat="41.656846158" lon="2.481278978">
        <ele>220.76</ele>
        <time>2013-03-31T10:32:36Z</time>
      </trkpt>
      <trkpt lat="41.656861414" lon="2.481295910">
        <ele>219.32</ele>
        <time>2013-03-31T10:32:42Z</time>
      </trkpt>
      <trkpt lat="41.656928553" lon="2.481396660">
        <ele>217.88</ele>
        <time>2013-03-31T10:32:50Z</time>
      </trkpt>
      <trkpt lat="41.656982029" lon="2.481438151">
        <ele>216.43</ele>
        <time>2013-03-31T10:32:58Z</time>
      </trkpt>
      <trkpt lat="41.656981526" lon="2.481436307">
        <ele>216.91</ele>
        <time>2013-03-31T10:32:59Z</time>
      </trkpt>
      <trkpt lat="41.657080516" lon="2.481452568">
        <ele>214.99</ele>
        <time>2013-03-31T10:33:05Z</time>
      </trkpt>
      <trkpt lat="41.657110859" lon="2.481482826">
        <ele>214.51</ele>
        <time>2013-03-31T10:33:12Z</time>
      </trkpt>
      <trkpt lat="41.657119492" lon="2.481499674">
        <ele>214.03</ele>
        <time>2013-03-31T10:33:19Z</time>
      </trkpt>
      <trkpt lat="41.657116978" lon="2.481515013">
        <ele>214.03</ele>
        <time>2013-03-31T10:33:25Z</time>
      </trkpt>
      <trkpt lat="41.657075320" lon="2.481571674">
        <ele>211.63</ele>
        <time>2013-03-31T10:33:33Z</time>
      </trkpt>
      <trkpt lat="41.657070291" lon="2.481578548">
        <ele>211.63</ele>
        <time>2013-03-31T10:33:43Z</time>
      </trkpt>
      <trkpt lat="41.657094514" lon="2.481551809">
        <ele>213.07</ele>
        <time>2013-03-31T10:33:50Z</time>
      </trkpt>
      <trkpt lat="41.657129970" lon="2.481550887">
        <ele>213.07</ele>
        <time>2013-03-31T10:33:57Z</time>
      </trkpt>
      <trkpt lat="41.657132820" lon="2.481529262">
        <ele>213.07</ele>
        <time>2013-03-31T10:34:08Z</time>
      </trkpt>
      <trkpt lat="41.657145057" lon="2.481484084">
        <ele>213.55</ele>
        <time>2013-03-31T10:34:35Z</time>
      </trkpt>
      <trkpt lat="41.657138938" lon="2.481497495">
        <ele>213.55</ele>
        <time>2013-03-31T10:34:56Z</time>
      </trkpt>
      <trkpt lat="41.657153188" lon="2.481510822">
        <ele>213.55</ele>
        <time>2013-03-31T10:35:21Z</time>
      </trkpt>
      <trkpt lat="41.657143800" lon="2.481537141">
        <ele>214.03</ele>
        <time>2013-03-31T10:35:28Z</time>
      </trkpt>
      <trkpt lat="41.657115134" lon="2.481567148">
        <ele>214.03</ele>
        <time>2013-03-31T10:35:39Z</time>
      </trkpt>
      <trkpt lat="41.657080516" lon="2.481604029">
        <ele>212.11</ele>
        <time>2013-03-31T10:35:47Z</time>
      </trkpt>
      <trkpt lat="41.657021173" lon="2.481610315">
        <ele>210.67</ele>
        <time>2013-03-31T10:35:55Z</time>
      </trkpt>
      <trkpt lat="41.656969875" lon="2.481608806">
        <ele>210.67</ele>
        <time>2013-03-31T10:36:01Z</time>
      </trkpt>
      <trkpt lat="41.656909274" lon="2.481581984">
        <ele>210.19</ele>
        <time>2013-03-31T10:36:08Z</time>
      </trkpt>
      <trkpt lat="41.656882201" lon="2.481619367">
        <ele>210.19</ele>
        <time>2013-03-31T10:36:14Z</time>
      </trkpt>
      <trkpt lat="41.656806177" lon="2.481611321">
        <ele>209.70</ele>
        <time>2013-03-31T10:36:21Z</time>
      </trkpt>
      <trkpt lat="41.656771811" lon="2.481621547">
        <ele>209.70</ele>
        <time>2013-03-31T10:36:25Z</time>
      </trkpt>
      <trkpt lat="41.656736523" lon="2.481655326">
        <ele>209.70</ele>
        <time>2013-03-31T10:36:33Z</time>
      </trkpt>
      <trkpt lat="41.656739038" lon="2.481661277">
        <ele>209.22</ele>
        <time>2013-03-31T10:36:41Z</time>
      </trkpt>
      <trkpt lat="41.656733003" lon="2.481661277">
        <ele>208.74</ele>
        <time>2013-03-31T10:36:53Z</time>
      </trkpt>
      <trkpt lat="41.656722358" lon="2.481673766">
        <ele>208.74</ele>
        <time>2013-03-31T10:37:00Z</time>
      </trkpt>
      <trkpt lat="41.656705510" lon="2.481689524">
        <ele>208.74</ele>
        <time>2013-03-31T10:37:09Z</time>
      </trkpt>
      <trkpt lat="41.656688998" lon="2.481736966">
        <ele>208.74</ele>
        <time>2013-03-31T10:37:16Z</time>
      </trkpt>
      <trkpt lat="41.656681454" lon="2.481803853">
        <ele>206.82</ele>
        <time>2013-03-31T10:37:25Z</time>
      </trkpt>
      <trkpt lat="41.656678353" lon="2.481825311">
        <ele>206.34</ele>
        <time>2013-03-31T10:37:34Z</time>
      </trkpt>
      <trkpt lat="41.656675419" lon="2.481820868">
        <ele>206.82</ele>
        <time>2013-03-31T10:37:42Z</time>
      </trkpt>
      <trkpt lat="41.656671731" lon="2.481813828">
        <ele>206.82</ele>
        <time>2013-03-31T10:37:49Z</time>
      </trkpt>
      <trkpt lat="41.656672653" lon="2.481837548">
        <ele>206.82</ele>
        <time>2013-03-31T10:37:57Z</time>
      </trkpt>
      <trkpt lat="41.656669216" lon="2.481896557">
        <ele>204.90</ele>
        <time>2013-03-31T10:38:06Z</time>
      </trkpt>
      <trkpt lat="41.656655135" lon="2.481962858">
        <ele>204.90</ele>
        <time>2013-03-31T10:38:14Z</time>
      </trkpt>
      <trkpt lat="41.656656225" lon="2.481995380">
        <ele>204.42</ele>
        <time>2013-03-31T10:38:21Z</time>
      </trkpt>
      <trkpt lat="41.656678353" lon="2.481997140">
        <ele>203.46</ele>
        <time>2013-03-31T10:38:29Z</time>
      </trkpt>
      <trkpt lat="41.656673910" lon="2.481994458">
        <ele>203.46</ele>
        <time>2013-03-31T10:38:35Z</time>
      </trkpt>
      <trkpt lat="41.656681454" lon="2.482002840">
        <ele>203.46</ele>
        <time>2013-03-31T10:38:42Z</time>
      </trkpt>
      <trkpt lat="41.656689585" lon="2.481982472">
        <ele>203.46</ele>
        <time>2013-03-31T10:38:49Z</time>
      </trkpt>
      <trkpt lat="41.656684304" lon="2.481959337">
        <ele>203.46</ele>
        <time>2013-03-31T10:38:57Z</time>
      </trkpt>
      <trkpt lat="41.656715988" lon="2.481973671">
        <ele>202.01</ele>
        <time>2013-03-31T10:39:05Z</time>
      </trkpt>
      <trkpt lat="41.656721855" lon="2.481991440">
        <ele>200.57</ele>
        <time>2013-03-31T10:39:08Z</time>
      </trkpt>
      <trkpt lat="41.656756891" lon="2.482021783">
        <ele>198.65</ele>
        <time>2013-03-31T10:39:16Z</time>
      </trkpt>
      <trkpt lat="41.656792850" lon="2.482088335">
        <ele>196.73</ele>
        <time>2013-03-31T10:39:24Z</time>
      </trkpt>
      <trkpt lat="41.656812212" lon="2.482139800">
        <ele>195.77</ele>
        <time>2013-03-31T10:39:32Z</time>
      </trkpt>
      <trkpt lat="41.656815565" lon="2.482152876">
        <ele>195.28</ele>
        <time>2013-03-31T10:39:34Z</time>
      </trkpt>
      <trkpt lat="41.656830484" lon="2.482185146">
        <ele>194.32</ele>
        <time>2013-03-31T10:39:41Z</time>
      </trkpt>
      <trkpt lat="41.656839788" lon="2.482200317">
        <ele>194.32</ele>
        <time>2013-03-31T10:39:50Z</time>
      </trkpt>
      <trkpt lat="41.656872478" lon="2.482247843">
        <ele>193.84</ele>
        <time>2013-03-31T10:39:57Z</time>
      </trkpt>
      <trkpt lat="41.656909358" lon="2.482284639">
        <ele>192.40</ele>
        <time>2013-03-31T10:40:06Z</time>
      </trkpt>
      <trkpt lat="41.656912376" lon="2.482294195">
        <ele>191.92</ele>
        <time>2013-03-31T10:40:12Z</time>
      </trkpt>
      <trkpt lat="41.656953112" lon="2.482310036">
        <ele>190.48</ele>
        <time>2013-03-31T10:40:20Z</time>
      </trkpt>
      <trkpt lat="41.656975407" lon="2.482321017">
        <ele>190.00</ele>
        <time>2013-03-31T10:40:27Z</time>
      </trkpt>
      <trkpt lat="41.656977251" lon="2.482360160">
        <ele>189.04</ele>
        <time>2013-03-31T10:40:35Z</time>
      </trkpt>
      <trkpt lat="41.657001475" lon="2.482368626">
        <ele>188.08</ele>
        <time>2013-03-31T10:40:43Z</time>
      </trkpt>
      <trkpt lat="41.657005834" lon="2.482366447">
        <ele>188.08</ele>
        <time>2013-03-31T10:40:49Z</time>
      </trkpt>
      <trkpt lat="41.657019664" lon="2.482365944">
        <ele>187.59</ele>
        <time>2013-03-31T10:40:59Z</time>
      </trkpt>
      <trkpt lat="41.657035422" lon="2.482370554">
        <ele>187.59</ele>
        <time>2013-03-31T10:41:06Z</time>
      </trkpt>
      <trkpt lat="41.657056041" lon="2.482394191">
        <ele>187.11</ele>
        <time>2013-03-31T10:41:15Z</time>
      </trkpt>
      <trkpt lat="41.657080181" lon="2.482385641">
        <ele>186.63</ele>
        <time>2013-03-31T10:41:27Z</time>
      </trkpt>
      <trkpt lat="41.657089401" lon="2.482402824">
        <ele>185.19</ele>
        <time>2013-03-31T10:41:36Z</time>
      </trkpt>
      <trkpt lat="41.657098370" lon="2.482381953">
        <ele>184.71</ele>
        <time>2013-03-31T10:41:53Z</time>
      </trkpt>
      <trkpt lat="41.657123599" lon="2.482396957">
        <ele>184.71</ele>
        <time>2013-03-31T10:42:15Z</time>
      </trkpt>
      <trkpt lat="41.657138687" lon="2.482421097">
        <ele>184.71</ele>
        <time>2013-03-31T10:42:32Z</time>
      </trkpt>
      <trkpt lat="41.657115469" lon="2.482397879">
        <ele>184.23</ele>
        <time>2013-03-31T10:42:55Z</time>
      </trkpt>
      <trkpt lat="41.657094011" lon="2.482398298">
        <ele>184.23</ele>
        <time>2013-03-31T10:43:12Z</time>
      </trkpt>
      <trkpt lat="41.657048162" lon="2.482377846">
        <ele>184.23</ele>
        <time>2013-03-31T10:43:31Z</time>
      </trkpt>
      <trkpt lat="41.657055790" lon="2.482343732">
        <ele>184.23</ele>
        <time>2013-03-31T10:43:52Z</time>
      </trkpt>
      <trkpt lat="41.657064423" lon="2.482276593">
        <ele>184.23</ele>
        <time>2013-03-31T10:44:17Z</time>
      </trkpt>
      <trkpt lat="41.657066770" lon="2.482271982">
        <ele>184.23</ele>
        <time>2013-03-31T10:44:36Z</time>
      </trkpt>
      <trkpt lat="41.657093592" lon="2.482325543">
        <ele>184.23</ele>
        <time>2013-03-31T10:44:56Z</time>
      </trkpt>
      <trkpt lat="41.657092670" lon="2.482366111">
        <ele>184.23</ele>
        <time>2013-03-31T10:45:17Z</time>
      </trkpt>
      <trkpt lat="41.657091161" lon="2.482387234">
        <ele>184.23</ele>
        <time>2013-03-31T10:45:42Z</time>
      </trkpt>
      <trkpt lat="41.657140196" lon="2.482397040">
        <ele>184.23</ele>
        <time>2013-03-31T10:46:03Z</time>
      </trkpt>
      <trkpt lat="41.657137849" lon="2.482375248">
        <ele>184.23</ele>
        <time>2013-03-31T10:46:22Z</time>
      </trkpt>
      <trkpt lat="41.657104992" lon="2.482388994">
        <ele>184.23</ele>
        <time>2013-03-31T10:46:42Z</time>
      </trkpt>
      <trkpt lat="41.657119073" lon="2.482353957">
        <ele>184.23</ele>
        <time>2013-03-31T10:47:06Z</time>
      </trkpt>
      <trkpt lat="41.657110524" lon="2.482297883">
        <ele>183.75</ele>
        <time>2013-03-31T10:47:25Z</time>
      </trkpt>
      <trkpt lat="41.657089988" lon="2.482316742">
        <ele>183.75</ele>
        <time>2013-03-31T10:47:49Z</time>
      </trkpt>
      <trkpt lat="41.657112284" lon="2.482363597">
        <ele>183.75</ele>
        <time>2013-03-31T10:48:01Z</time>
      </trkpt>
      <trkpt lat="41.657128964" lon="2.482422186">
        <ele>183.27</ele>
        <time>2013-03-31T10:48:11Z</time>
      </trkpt>
      <trkpt lat="41.657141369" lon="2.482435094">
        <ele>182.79</ele>
        <time>2013-03-31T10:48:19Z</time>
      </trkpt>
      <trkpt lat="41.657145225" lon="2.482449763">
        <ele>182.31</ele>
        <time>2013-03-31T10:48:25Z</time>
      </trkpt>
      <trkpt lat="41.657157714" lon="2.482492846">
        <ele>181.35</ele>
        <time>2013-03-31T10:48:34Z</time>
      </trkpt>
      <trkpt lat="41.657171125" lon="2.482528553">
        <ele>180.38</ele>
        <time>2013-03-31T10:48:43Z</time>
      </trkpt>
      <trkpt lat="41.657183614" lon="2.482563337">
        <ele>179.42</ele>
        <time>2013-03-31T10:48:51Z</time>
      </trkpt>
      <trkpt lat="41.657185709" lon="2.482594099">
        <ele>178.46</ele>
        <time>2013-03-31T10:48:57Z</time>
      </trkpt>
      <trkpt lat="41.657169700" lon="2.482606085">
        <ele>177.98</ele>
        <time>2013-03-31T10:49:04Z</time>
      </trkpt>
      <trkpt lat="41.657172969" lon="2.482618071">
        <ele>177.98</ele>
        <time>2013-03-31T10:49:19Z</time>
      </trkpt>
      <trkpt lat="41.657180345" lon="2.482613042">
        <ele>177.98</ele>
        <time>2013-03-31T10:49:31Z</time>
      </trkpt>
      <trkpt lat="41.657167269" lon="2.482594602">
        <ele>177.98</ele>
        <time>2013-03-31T10:49:41Z</time>
      </trkpt>
      <trkpt lat="41.657158301" lon="2.482607259">
        <ele>177.98</ele>
        <time>2013-03-31T10:49:51Z</time>
      </trkpt>
      <trkpt lat="41.657137597" lon="2.482634081">
        <ele>177.98</ele>
        <time>2013-03-31T10:50:00Z</time>
      </trkpt>
      <trkpt lat="41.657130473" lon="2.482643720">
        <ele>177.98</ele>
        <time>2013-03-31T10:50:01Z</time>
      </trkpt>
      <trkpt lat="41.657053694" lon="2.482741285">
        <ele>177.98</ele>
        <time>2013-03-31T10:50:08Z</time>
      </trkpt>
      <trkpt lat="41.657016395" lon="2.482764755">
        <ele>177.98</ele>
        <time>2013-03-31T10:50:15Z</time>
      </trkpt>
      <trkpt lat="41.657024106" lon="2.482790319">
        <ele>177.98</ele>
        <time>2013-03-31T10:50:25Z</time>
      </trkpt>
      <trkpt lat="41.657015389" lon="2.482792331">
        <ele>177.98</ele>
        <time>2013-03-31T10:50:33Z</time>
      </trkpt>
      <trkpt lat="41.656975156" lon="2.482808508">
        <ele>178.94</ele>
        <time>2013-03-31T10:50:40Z</time>
      </trkpt>
      <trkpt lat="41.656830987" lon="2.482805742">
        <ele>181.35</ele>
        <time>2013-03-31T10:50:49Z</time>
      </trkpt>
      <trkpt lat="41.656638287" lon="2.482878497">
        <ele>182.79</ele>
        <time>2013-03-31T10:50:58Z</time>
      </trkpt>
      <trkpt lat="41.656621356" lon="2.482884448">
        <ele>182.79</ele>
        <time>2013-03-31T10:50:59Z</time>
      </trkpt>
      <trkpt lat="41.656473415" lon="2.483002046">
        <ele>183.75</ele>
        <time>2013-03-31T10:51:07Z</time>
      </trkpt>
      <trkpt lat="41.656362858" lon="2.483014032">
        <ele>184.23</ele>
        <time>2013-03-31T10:51:12Z</time>
      </trkpt>
      <trkpt lat="41.656308208" lon="2.483009171">
        <ele>185.67</ele>
        <time>2013-03-31T10:51:17Z</time>
      </trkpt>
      <trkpt lat="41.656293204" lon="2.483006656">
        <ele>185.67</ele>
        <time>2013-03-31T10:51:18Z</time>
      </trkpt>
      <trkpt lat="41.656149203" lon="2.483080417">
        <ele>183.75</ele>
        <time>2013-03-31T10:51:25Z</time>
      </trkpt>
      <trkpt lat="41.656069827" lon="2.483186616">
        <ele>181.35</ele>
        <time>2013-03-31T10:51:28Z</time>
      </trkpt>
      <trkpt lat="41.655983828" lon="2.483518455">
        <ele>180.38</ele>
        <time>2013-03-31T10:51:35Z</time>
      </trkpt>
      <trkpt lat="41.655944098" lon="2.483794052">
        <ele>180.38</ele>
        <time>2013-03-31T10:51:43Z</time>
      </trkpt>
      <trkpt lat="41.655946194" lon="2.483955236">
        <ele>180.38</ele>
        <time>2013-03-31T10:51:49Z</time>
      </trkpt>
      <trkpt lat="41.655951977" lon="2.484096220">
        <ele>181.83</ele>
        <time>2013-03-31T10:51:55Z</time>
      </trkpt>
      <trkpt lat="41.655945104" lon="2.484270815">
        <ele>181.83</ele>
        <time>2013-03-31T10:52:01Z</time>
      </trkpt>
      <trkpt lat="41.655949462" lon="2.484437112">
        <ele>181.83</ele>
        <time>2013-03-31T10:52:06Z</time>
      </trkpt>
      <trkpt lat="41.655956755" lon="2.484699214">
        <ele>180.87</ele>
        <time>2013-03-31T10:52:13Z</time>
      </trkpt>
      <trkpt lat="41.655935129" lon="2.484885963">
        <ele>180.87</ele>
        <time>2013-03-31T10:52:19Z</time>
      </trkpt>
      <trkpt lat="41.655931190" lon="2.484952431">
        <ele>182.31</ele>
        <time>2013-03-31T10:52:21Z</time>
      </trkpt>
      <trkpt lat="41.655929597" lon="2.485231465">
        <ele>182.31</ele>
        <time>2013-03-31T10:52:27Z</time>
      </trkpt>
      <trkpt lat="41.655960527" lon="2.485530196">
        <ele>182.79</ele>
        <time>2013-03-31T10:52:35Z</time>
      </trkpt>
      <trkpt lat="41.655992881" lon="2.485745527">
        <ele>182.79</ele>
        <time>2013-03-31T10:52:41Z</time>
      </trkpt>
      <trkpt lat="41.656009645" lon="2.486002851">
        <ele>183.27</ele>
        <time>2013-03-31T10:52:48Z</time>
      </trkpt>
      <trkpt lat="41.655997910" lon="2.486079378">
        <ele>183.27</ele>
        <time>2013-03-31T10:52:50Z</time>
      </trkpt>
      <trkpt lat="41.655992713" lon="2.486299487">
        <ele>185.19</ele>
        <time>2013-03-31T10:52:58Z</time>
      </trkpt>
      <trkpt lat="41.655991121" lon="2.486513728">
        <ele>186.15</ele>
        <time>2013-03-31T10:53:05Z</time>
      </trkpt>
      <trkpt lat="41.656048872" lon="2.486712715">
        <ele>186.15</ele>
        <time>2013-03-31T10:53:11Z</time>
      </trkpt>
      <trkpt lat="41.656121962" lon="2.486900469">
        <ele>186.15</ele>
        <time>2013-03-31T10:53:16Z</time>
      </trkpt>
      <trkpt lat="41.656205781" lon="2.487130972">
        <ele>186.15</ele>
        <time>2013-03-31T10:53:22Z</time>
      </trkpt>
      <trkpt lat="41.656266298" lon="2.487368180">
        <ele>186.15</ele>
        <time>2013-03-31T10:53:28Z</time>
      </trkpt>
      <trkpt lat="41.656328241" lon="2.487525759">
        <ele>186.15</ele>
        <time>2013-03-31T10:53:34Z</time>
      </trkpt>
      <trkpt lat="41.656491101" lon="2.487826251">
        <ele>184.71</ele>
        <time>2013-03-31T10:53:42Z</time>
      </trkpt>
      <trkpt lat="41.656548182" lon="2.488142667">
        <ele>184.71</ele>
        <time>2013-03-31T10:53:50Z</time>
      </trkpt>
      <trkpt lat="41.656594450" lon="2.488313742">
        <ele>184.71</ele>
        <time>2013-03-31T10:53:57Z</time>
      </trkpt>
      <trkpt lat="41.656603670" lon="2.488485823">
        <ele>184.71</ele>
        <time>2013-03-31T10:54:04Z</time>
      </trkpt>
      <trkpt lat="41.656602496" lon="2.488656059">
        <ele>186.15</ele>
        <time>2013-03-31T10:54:10Z</time>
      </trkpt>
      <trkpt lat="41.656607777" lon="2.488860745">
        <ele>187.59</ele>
        <time>2013-03-31T10:54:17Z</time>
      </trkpt>
      <trkpt lat="41.656608112" lon="2.488964848">
        <ele>187.59</ele>
        <time>2013-03-31T10:54:22Z</time>
      </trkpt>
      <trkpt lat="41.656611130" lon="2.489068616">
        <ele>188.08</ele>
        <time>2013-03-31T10:54:29Z</time>
      </trkpt>
      <trkpt lat="41.656607190" lon="2.489086302">
        <ele>188.56</ele>
        <time>2013-03-31T10:54:30Z</time>
      </trkpt>
      <trkpt lat="41.656590594" lon="2.489205577">
        <ele>189.04</ele>
        <time>2013-03-31T10:54:36Z</time>
      </trkpt>
      <trkpt lat="41.656628899" lon="2.489405485">
        <ele>190.00</ele>
        <time>2013-03-31T10:54:42Z</time>
      </trkpt>
      <trkpt lat="41.656696793" lon="2.489538087">
        <ele>188.56</ele>
        <time>2013-03-31T10:54:47Z</time>
      </trkpt>
      <trkpt lat="41.656746665" lon="2.489639592">
        <ele>187.59</ele>
        <time>2013-03-31T10:54:49Z</time>
      </trkpt>
      <trkpt lat="41.656846661" lon="2.489905717">
        <ele>187.59</ele>
        <time>2013-03-31T10:54:55Z</time>
      </trkpt>
      <trkpt lat="41.656916315" lon="2.490147367">
        <ele>187.59</ele>
        <time>2013-03-31T10:55:01Z</time>
      </trkpt>
      <trkpt lat="41.656972055" lon="2.490414666">
        <ele>187.59</ele>
        <time>2013-03-31T10:55:07Z</time>
      </trkpt>
      <trkpt lat="41.657021843" lon="2.490728652">
        <ele>187.59</ele>
        <time>2013-03-31T10:55:14Z</time>
      </trkpt>
      <trkpt lat="41.657070207" lon="2.491016403">
        <ele>187.59</ele>
        <time>2013-03-31T10:55:21Z</time>
      </trkpt>
      <trkpt lat="41.657136927" lon="2.491458632">
        <ele>187.59</ele>
        <time>2013-03-31T10:55:31Z</time>
      </trkpt>
      <trkpt lat="41.657158887" lon="2.491626941">
        <ele>188.56</ele>
        <time>2013-03-31T10:55:35Z</time>
      </trkpt>
      <trkpt lat="41.657136591" lon="2.491880661">
        <ele>189.04</ele>
        <time>2013-03-31T10:55:41Z</time>
      </trkpt>
      <trkpt lat="41.657051347" lon="2.492176877">
        <ele>190.48</ele>
        <time>2013-03-31T10:55:49Z</time>
      </trkpt>
      <trkpt lat="41.656931151" lon="2.492529336">
        <ele>190.96</ele>
        <time>2013-03-31T10:55:57Z</time>
      </trkpt>
      <trkpt lat="41.656795448" lon="2.492886657">
        <ele>190.96</ele>
        <time>2013-03-31T10:56:05Z</time>
      </trkpt>
      <trkpt lat="41.656654548" lon="2.493274488">
        <ele>190.96</ele>
        <time>2013-03-31T10:56:14Z</time>
      </trkpt>
      <trkpt lat="41.656533010" lon="2.493413543">
        <ele>190.96</ele>
        <time>2013-03-31T10:56:19Z</time>
      </trkpt>
      <trkpt lat="41.656277027" lon="2.493392505">
        <ele>190.96</ele>
        <time>2013-03-31T10:56:26Z</time>
      </trkpt>
      <trkpt lat="41.655936554" lon="2.493338274">
        <ele>190.96</ele>
        <time>2013-03-31T10:56:35Z</time>
      </trkpt>
      <trkpt lat="41.655786099" lon="2.493315475">
        <ele>192.88</ele>
        <time>2013-03-31T10:56:40Z</time>
      </trkpt>
      <trkpt lat="41.655617288" lon="2.493280271">
        <ele>193.36</ele>
        <time>2013-03-31T10:56:45Z</time>
      </trkpt>
      <trkpt lat="41.655383768" lon="2.493179772">
        <ele>193.36</ele>
        <time>2013-03-31T10:56:53Z</time>
      </trkpt>
      <trkpt lat="41.655153433" lon="2.493031496">
        <ele>193.36</ele>
        <time>2013-03-31T10:57:01Z</time>
      </trkpt>
      <trkpt lat="41.655018401" lon="2.492966201">
        <ele>193.36</ele>
        <time>2013-03-31T10:57:06Z</time>
      </trkpt>
      <trkpt lat="41.654866772" lon="2.493021773">
        <ele>193.36</ele>
        <time>2013-03-31T10:57:12Z</time>
      </trkpt>
      <trkpt lat="41.654739367" lon="2.492963016">
        <ele>193.36</ele>
        <time>2013-03-31T10:57:18Z</time>
      </trkpt>
      <trkpt lat="41.654603580" lon="2.492933596">
        <ele>193.84</ele>
        <time>2013-03-31T10:57:24Z</time>
      </trkpt>
      <trkpt lat="41.654374670" lon="2.492890764">
        <ele>194.32</ele>
        <time>2013-03-31T10:57:32Z</time>
      </trkpt>
      <trkpt lat="41.654196555" lon="2.492885064">
        <ele>194.32</ele>
        <time>2013-03-31T10:57:39Z</time>
      </trkpt>
      <trkpt lat="41.654016260" lon="2.492896296">
        <ele>195.28</ele>
        <time>2013-03-31T10:57:46Z</time>
      </trkpt>
      <trkpt lat="41.653820040" lon="2.492923286">
        <ele>195.28</ele>
        <time>2013-03-31T10:57:52Z</time>
      </trkpt>
      <trkpt lat="41.653555339" lon="2.492974667">
        <ele>195.28</ele>
        <time>2013-03-31T10:58:01Z</time>
      </trkpt>
      <trkpt lat="41.653320227" lon="2.493080530">
        <ele>194.80</ele>
        <time>2013-03-31T10:58:09Z</time>
      </trkpt>
      <trkpt lat="41.653178405" lon="2.493131576">
        <ele>195.28</ele>
        <time>2013-03-31T10:58:15Z</time>
      </trkpt>
      <trkpt lat="41.653023005" lon="2.493211623">
        <ele>196.25</ele>
        <time>2013-03-31T10:58:21Z</time>
      </trkpt>
      <trkpt lat="41.652825527" lon="2.493338358">
        <ele>196.25</ele>
        <time>2013-03-31T10:58:27Z</time>
      </trkpt>
      <trkpt lat="41.652697535" lon="2.493402060">
        <ele>196.25</ele>
        <time>2013-03-31T10:58:33Z</time>
      </trkpt>
      <trkpt lat="41.652656213" lon="2.493442712">
        <ele>196.25</ele>
        <time>2013-03-31T10:58:36Z</time>
      </trkpt>
      <trkpt lat="41.652464267" lon="2.493473893">
        <ele>196.25</ele>
        <time>2013-03-31T10:58:43Z</time>
      </trkpt>
      <trkpt lat="41.652308699" lon="2.493456459">
        <ele>195.77</ele>
        <time>2013-03-31T10:58:49Z</time>
      </trkpt>
      <trkpt lat="41.652169475" lon="2.493348332">
        <ele>197.21</ele>
        <time>2013-03-31T10:58:56Z</time>
      </trkpt>
      <trkpt lat="41.652017679" lon="2.493269207">
        <ele>198.17</ele>
        <time>2013-03-31T10:59:03Z</time>
      </trkpt>
      <trkpt lat="41.651976692" lon="2.493238529">
        <ele>198.65</ele>
        <time>2013-03-31T10:59:05Z</time>
      </trkpt>
      <trkpt lat="41.651817771" lon="2.493300555">
        <ele>199.13</ele>
        <time>2013-03-31T10:59:12Z</time>
      </trkpt>
      <trkpt lat="41.651737807" lon="2.493421674">
        <ele>199.13</ele>
        <time>2013-03-31T10:59:18Z</time>
      </trkpt>
      <trkpt lat="41.651578719" lon="2.493598448">
        <ele>199.13</ele>
        <time>2013-03-31T10:59:26Z</time>
      </trkpt>
      <trkpt lat="41.651456176" lon="2.493763069">
        <ele>199.61</ele>
        <time>2013-03-31T10:59:33Z</time>
      </trkpt>
      <trkpt lat="41.651278647" lon="2.493909752">
        <ele>201.05</ele>
        <time>2013-03-31T10:59:40Z</time>
      </trkpt>
      <trkpt lat="41.651009085" lon="2.493944453">
        <ele>202.98</ele>
        <time>2013-03-31T10:59:48Z</time>
      </trkpt>
      <trkpt lat="41.650815463" lon="2.493971611">
        <ele>204.90</ele>
        <time>2013-03-31T10:59:54Z</time>
      </trkpt>
      <trkpt lat="41.650617650" lon="2.494052244">
        <ele>206.82</ele>
        <time>2013-03-31T11:00:01Z</time>
      </trkpt>
      <trkpt lat="41.650455712" lon="2.494160874">
        <ele>207.78</ele>
        <time>2013-03-31T11:00:08Z</time>
      </trkpt>
      <trkpt lat="41.650392512" lon="2.494239664">
        <ele>207.78</ele>
        <time>2013-03-31T11:00:11Z</time>
      </trkpt>
      <trkpt lat="41.650262593" lon="2.494314682">
        <ele>206.82</ele>
        <time>2013-03-31T11:00:14Z</time>
      </trkpt>
      <trkpt lat="41.650119513" lon="2.494412080">
        <ele>205.38</ele>
        <time>2013-03-31T11:00:17Z</time>
      </trkpt>
      <trkpt lat="41.649809467" lon="2.494600589">
        <ele>203.46</ele>
        <time>2013-03-31T11:00:24Z</time>
      </trkpt>
      <trkpt lat="41.649665633" lon="2.494724138">
        <ele>203.46</ele>
        <time>2013-03-31T11:00:29Z</time>
      </trkpt>
      <trkpt lat="41.649649289" lon="2.494797479">
        <ele>204.90</ele>
        <time>2013-03-31T11:00:31Z</time>
      </trkpt>
      <trkpt lat="41.649634788" lon="2.494988755">
        <ele>205.86</ele>
        <time>2013-03-31T11:00:37Z</time>
      </trkpt>
      <trkpt lat="41.649571421" lon="2.495288408">
        <ele>206.34</ele>
        <time>2013-03-31T11:00:45Z</time>
      </trkpt>
      <trkpt lat="41.649447033" lon="2.495594263">
        <ele>206.82</ele>
        <time>2013-03-31T11:00:54Z</time>
      </trkpt>
      <trkpt lat="41.649290962" lon="2.495895760">
        <ele>208.74</ele>
        <time>2013-03-31T11:01:03Z</time>
      </trkpt>
      <trkpt lat="41.649137993" lon="2.496086281">
        <ele>210.67</ele>
        <time>2013-03-31T11:01:11Z</time>
      </trkpt>
      <trkpt lat="41.649118630" lon="2.496107906">
        <ele>210.67</ele>
        <time>2013-03-31T11:01:12Z</time>
      </trkpt>
      <trkpt lat="41.649090300" lon="2.496178566">
        <ele>211.63</ele>
        <time>2013-03-31T11:01:16Z</time>
      </trkpt>
      <trkpt lat="41.649110668" lon="2.496352490">
        <ele>211.63</ele>
        <time>2013-03-31T11:01:21Z</time>
      </trkpt>
      <trkpt lat="41.649095748" lon="2.496809388">
        <ele>208.74</ele>
        <time>2013-03-31T11:01:29Z</time>
      </trkpt>
      <trkpt lat="41.649089880" lon="2.496872587">
        <ele>208.74</ele>
        <time>2013-03-31T11:01:30Z</time>
      </trkpt>
      <trkpt lat="41.649001116" lon="2.497220772">
        <ele>206.82</ele>
        <time>2013-03-31T11:01:36Z</time>
      </trkpt>
      <trkpt lat="41.648978401" lon="2.497267459">
        <ele>206.34</ele>
        <time>2013-03-31T11:01:37Z</time>
      </trkpt>
      <trkpt lat="41.648791485" lon="2.497635508">
        <ele>204.90</ele>
        <time>2013-03-31T11:01:45Z</time>
      </trkpt>
      <trkpt lat="41.648632480" lon="2.498012442">
        <ele>203.46</ele>
        <time>2013-03-31T11:01:52Z</time>
      </trkpt>
      <trkpt lat="41.648612699" lon="2.498039600">
        <ele>202.98</ele>
        <time>2013-03-31T11:01:53Z</time>
      </trkpt>
      <trkpt lat="41.648530975" lon="2.498081006">
        <ele>202.98</ele>
        <time>2013-03-31T11:01:57Z</time>
      </trkpt>
      <trkpt lat="41.648428045" lon="2.498110091">
        <ele>202.98</ele>
        <time>2013-03-31T11:02:02Z</time>
      </trkpt>
      <trkpt lat="41.648386303" lon="2.498163149">
        <ele>204.42</ele>
        <time>2013-03-31T11:02:05Z</time>
      </trkpt>
      <trkpt lat="41.648251020" lon="2.498331793">
        <ele>204.90</ele>
        <time>2013-03-31T11:02:13Z</time>
      </trkpt>
      <trkpt lat="41.648101738" lon="2.498513848">
        <ele>204.90</ele>
        <time>2013-03-31T11:02:20Z</time>
      </trkpt>
      <trkpt lat="41.648065360" lon="2.498571348">
        <ele>204.90</ele>
        <time>2013-03-31T11:02:22Z</time>
      </trkpt>
      <trkpt lat="41.647986990" lon="2.498717276">
        <ele>204.90</ele>
        <time>2013-03-31T11:02:27Z</time>
      </trkpt>
      <trkpt lat="41.647715667" lon="2.498939984">
        <ele>205.38</ele>
        <time>2013-03-31T11:02:35Z</time>
      </trkpt>
      <trkpt lat="41.647518860" lon="2.499082644">
        <ele>205.86</ele>
        <time>2013-03-31T11:02:41Z</time>
      </trkpt>
      <trkpt lat="41.647453314" lon="2.499154644">
        <ele>205.86</ele>
        <time>2013-03-31T11:02:44Z</time>
      </trkpt>
      <trkpt lat="41.647369243" lon="2.499490675">
        <ele>206.34</ele>
        <time>2013-03-31T11:02:54Z</time>
      </trkpt>
      <trkpt lat="41.647319706" lon="2.499817317">
        <ele>206.34</ele>
        <time>2013-03-31T11:03:01Z</time>
      </trkpt>
      <trkpt lat="41.647284167" lon="2.500108505">
        <ele>206.34</ele>
        <time>2013-03-31T11:03:08Z</time>
      </trkpt>
      <trkpt lat="41.647296153" lon="2.500377396">
        <ele>206.34</ele>
        <time>2013-03-31T11:03:15Z</time>
      </trkpt>
      <trkpt lat="41.647340745" lon="2.500610832">
        <ele>206.34</ele>
        <time>2013-03-31T11:03:21Z</time>
      </trkpt>
      <trkpt lat="41.647387264" lon="2.500917778">
        <ele>206.34</ele>
        <time>2013-03-31T11:03:28Z</time>
      </trkpt>
      <trkpt lat="41.647452559" lon="2.501215167">
        <ele>207.30</ele>
        <time>2013-03-31T11:03:35Z</time>
      </trkpt>
      <trkpt lat="41.647493715" lon="2.501510713">
        <ele>207.30</ele>
        <time>2013-03-31T11:03:42Z</time>
      </trkpt>
      <trkpt lat="41.647581725" lon="2.501902316">
        <ele>207.78</ele>
        <time>2013-03-31T11:03:50Z</time>
      </trkpt>
      <trkpt lat="41.647742657" lon="2.502261900">
        <ele>207.78</ele>
        <time>2013-03-31T11:03:58Z</time>
      </trkpt>
      <trkpt lat="41.647971232" lon="2.502538251">
        <ele>208.26</ele>
        <time>2013-03-31T11:04:06Z</time>
      </trkpt>
      <trkpt lat="41.648214558" lon="2.502791552">
        <ele>208.74</ele>
        <time>2013-03-31T11:04:14Z</time>
      </trkpt>
      <trkpt lat="41.648448749" lon="2.503058935">
        <ele>209.22</ele>
        <time>2013-03-31T11:04:22Z</time>
      </trkpt>
      <trkpt lat="41.648679335" lon="2.503353726">
        <ele>210.19</ele>
        <time>2013-03-31T11:04:30Z</time>
      </trkpt>
      <trkpt lat="41.648878489" lon="2.503604513">
        <ele>210.67</ele>
        <time>2013-03-31T11:04:37Z</time>
      </trkpt>
      <trkpt lat="41.649110500" lon="2.503885642">
        <ele>210.67</ele>
        <time>2013-03-31T11:04:45Z</time>
      </trkpt>
      <trkpt lat="41.649236564" lon="2.504111115">
        <ele>210.67</ele>
        <time>2013-03-31T11:04:51Z</time>
      </trkpt>
      <trkpt lat="41.649295656" lon="2.504372295">
        <ele>211.15</ele>
        <time>2013-03-31T11:04:57Z</time>
      </trkpt>
      <trkpt lat="41.649295489" lon="2.504667338">
        <ele>211.63</ele>
        <time>2013-03-31T11:05:04Z</time>
      </trkpt>
      <trkpt lat="41.649275959" lon="2.504965650">
        <ele>212.59</ele>
        <time>2013-03-31T11:05:11Z</time>
      </trkpt>
      <trkpt lat="41.649260285" lon="2.505255580">
        <ele>213.07</ele>
        <time>2013-03-31T11:05:17Z</time>
      </trkpt>
      <trkpt lat="41.649193732" lon="2.505569482">
        <ele>213.07</ele>
        <time>2013-03-31T11:05:24Z</time>
      </trkpt>
      <trkpt lat="41.649089461" lon="2.505821359">
        <ele>213.07</ele>
        <time>2013-03-31T11:05:30Z</time>
      </trkpt>
      <trkpt lat="41.649020311" lon="2.506079354">
        <ele>214.03</ele>
        <time>2013-03-31T11:05:37Z</time>
      </trkpt>
      <trkpt lat="41.648923164" lon="2.506327206">
        <ele>214.03</ele>
        <time>2013-03-31T11:05:43Z</time>
      </trkpt>
      <trkpt lat="41.648734488" lon="2.506458635">
        <ele>214.99</ele>
        <time>2013-03-31T11:05:49Z</time>
      </trkpt>
      <trkpt lat="41.648703391" lon="2.506482691">
        <ele>214.99</ele>
        <time>2013-03-31T11:05:50Z</time>
      </trkpt>
      <trkpt lat="41.648670031" lon="2.506679917">
        <ele>215.47</ele>
        <time>2013-03-31T11:05:55Z</time>
      </trkpt>
      <trkpt lat="41.648625104" lon="2.506800700">
        <ele>215.95</ele>
        <time>2013-03-31T11:05:58Z</time>
      </trkpt>
      <trkpt lat="41.648394518" lon="2.507126505">
        <ele>215.95</ele>
        <time>2013-03-31T11:06:07Z</time>
      </trkpt>
      <trkpt lat="41.648299635" lon="2.507221220">
        <ele>215.95</ele>
        <time>2013-03-31T11:06:10Z</time>
      </trkpt>
      <trkpt lat="41.648239788" lon="2.507567980">
        <ele>215.95</ele>
        <time>2013-03-31T11:06:18Z</time>
      </trkpt>
      <trkpt lat="41.648117328" lon="2.507970311">
        <ele>216.43</ele>
        <time>2013-03-31T11:06:27Z</time>
      </trkpt>
      <trkpt lat="41.648006268" lon="2.508307263">
        <ele>216.91</ele>
        <time>2013-03-31T11:06:35Z</time>
      </trkpt>
      <trkpt lat="41.647872325" lon="2.508587722">
        <ele>217.40</ele>
        <time>2013-03-31T11:06:42Z</time>
      </trkpt>
      <trkpt lat="41.647774844" lon="2.508876478">
        <ele>218.36</ele>
        <time>2013-03-31T11:06:49Z</time>
      </trkpt>
      <trkpt lat="41.647618437" lon="2.509187950">
        <ele>219.32</ele>
        <time>2013-03-31T11:06:57Z</time>
      </trkpt>
      <trkpt lat="41.647410734" lon="2.509587851">
        <ele>220.76</ele>
        <time>2013-03-31T11:07:08Z</time>
      </trkpt>
      <trkpt lat="41.647306798" lon="2.509781389">
        <ele>221.72</ele>
        <time>2013-03-31T11:07:14Z</time>
      </trkpt>
      <trkpt lat="41.647091132" lon="2.510181960">
        <ele>221.72</ele>
        <time>2013-03-31T11:07:24Z</time>
      </trkpt>
      <trkpt lat="41.646965152" lon="2.510504328">
        <ele>222.20</ele>
        <time>2013-03-31T11:07:31Z</time>
      </trkpt>
      <trkpt lat="41.646921734" lon="2.510921244">
        <ele>222.20</ele>
        <time>2013-03-31T11:07:39Z</time>
      </trkpt>
      <trkpt lat="41.646883847" lon="2.511182340">
        <ele>222.20</ele>
        <time>2013-03-31T11:07:44Z</time>
      </trkpt>
      <trkpt lat="41.646840848" lon="2.511699252">
        <ele>222.68</ele>
        <time>2013-03-31T11:07:52Z</time>
      </trkpt>
      <trkpt lat="41.646818133" lon="2.512063278">
        <ele>222.68</ele>
        <time>2013-03-31T11:07:58Z</time>
      </trkpt>
      <trkpt lat="41.646878399" lon="2.512707008">
        <ele>225.09</ele>
        <time>2013-03-31T11:08:10Z</time>
      </trkpt>
      <trkpt lat="41.646916621" lon="2.513002638">
        <ele>226.53</ele>
        <time>2013-03-31T11:08:17Z</time>
      </trkpt>
      <trkpt lat="41.646930870" lon="2.513365742">
        <ele>229.41</ele>
        <time>2013-03-31T11:08:26Z</time>
      </trkpt>
      <trkpt lat="41.646949645" lon="2.513567997">
        <ele>229.41</ele>
        <time>2013-03-31T11:08:31Z</time>
      </trkpt>
      <trkpt lat="41.646940258" lon="2.514000839">
        <ele>229.89</ele>
        <time>2013-03-31T11:08:40Z</time>
      </trkpt>
      <trkpt lat="41.646896336" lon="2.514378443">
        <ele>229.89</ele>
        <time>2013-03-31T11:08:47Z</time>
      </trkpt>
      <trkpt lat="41.646879656" lon="2.514432926">
        <ele>229.89</ele>
        <time>2013-03-31T11:08:48Z</time>
      </trkpt>
      <trkpt lat="41.646671450" lon="2.514786391">
        <ele>229.89</ele>
        <time>2013-03-31T11:08:56Z</time>
      </trkpt>
      <trkpt lat="41.646470703" lon="2.515112279">
        <ele>229.89</ele>
        <time>2013-03-31T11:09:04Z</time>
      </trkpt>
      <trkpt lat="41.646214217" lon="2.515502205">
        <ele>229.89</ele>
        <time>2013-03-31T11:09:13Z</time>
      </trkpt>
      <trkpt lat="41.646084130" lon="2.515686188">
        <ele>230.37</ele>
        <time>2013-03-31T11:09:17Z</time>
      </trkpt>
      <trkpt lat="41.645999054" lon="2.515820801">
        <ele>230.37</ele>
        <time>2013-03-31T11:09:20Z</time>
      </trkpt>
      <trkpt lat="41.645877684" lon="2.516010903">
        <ele>230.85</ele>
        <time>2013-03-31T11:09:24Z</time>
      </trkpt>
      <trkpt lat="41.645769222" lon="2.516156078">
        <ele>230.85</ele>
        <time>2013-03-31T11:09:27Z</time>
      </trkpt>
      <trkpt lat="41.645589346" lon="2.516384652">
        <ele>231.81</ele>
        <time>2013-03-31T11:09:32Z</time>
      </trkpt>
      <trkpt lat="41.645308301" lon="2.516585063">
        <ele>232.78</ele>
        <time>2013-03-31T11:09:39Z</time>
      </trkpt>
      <trkpt lat="41.644916782" lon="2.516806262">
        <ele>233.26</ele>
        <time>2013-03-31T11:09:49Z</time>
      </trkpt>
      <trkpt lat="41.644519480" lon="2.517023688">
        <ele>233.74</ele>
        <time>2013-03-31T11:10:00Z</time>
      </trkpt>
      <trkpt lat="41.644253103" lon="2.517178251">
        <ele>234.70</ele>
        <time>2013-03-31T11:10:07Z</time>
      </trkpt>
      <trkpt lat="41.643913301" lon="2.517375058">
        <ele>235.18</ele>
        <time>2013-03-31T11:10:16Z</time>
      </trkpt>
      <trkpt lat="41.643580623" lon="2.517563902">
        <ele>236.62</ele>
        <time>2013-03-31T11:10:25Z</time>
      </trkpt>
      <trkpt lat="41.643206539" lon="2.517767163">
        <ele>237.10</ele>
        <time>2013-03-31T11:10:35Z</time>
      </trkpt>
      <trkpt lat="41.642715192" lon="2.518047538">
        <ele>238.06</ele>
        <time>2013-03-31T11:10:47Z</time>
      </trkpt>
      <trkpt lat="41.642272543" lon="2.518285751">
        <ele>239.02</ele>
        <time>2013-03-31T11:10:58Z</time>
      </trkpt>
      <trkpt lat="41.642009519" lon="2.518446684">
        <ele>239.51</ele>
        <time>2013-03-31T11:11:05Z</time>
      </trkpt>
      <trkpt lat="41.641669801" lon="2.518766705">
        <ele>240.47</ele>
        <time>2013-03-31T11:11:15Z</time>
      </trkpt>
      <trkpt lat="41.641635603" lon="2.518804340">
        <ele>240.95</ele>
        <time>2013-03-31T11:11:16Z</time>
      </trkpt>
      <trkpt lat="41.641317342" lon="2.519250592">
        <ele>242.39</ele>
        <time>2013-03-31T11:11:27Z</time>
      </trkpt>
      <trkpt lat="41.641121708" lon="2.519526357">
        <ele>242.87</ele>
        <time>2013-03-31T11:11:34Z</time>
      </trkpt>
      <trkpt lat="41.640731782" lon="2.520030864">
        <ele>244.31</ele>
        <time>2013-03-31T11:11:47Z</time>
      </trkpt>
      <trkpt lat="41.640472865" lon="2.520381311">
        <ele>244.79</ele>
        <time>2013-03-31T11:11:56Z</time>
      </trkpt>
      <trkpt lat="41.640183522" lon="2.520758497">
        <ele>246.72</ele>
        <time>2013-03-31T11:12:06Z</time>
      </trkpt>
      <trkpt lat="41.639901554" lon="2.521127887">
        <ele>247.68</ele>
        <time>2013-03-31T11:12:16Z</time>
      </trkpt>
      <trkpt lat="41.639648589" lon="2.521459811">
        <ele>248.64</ele>
        <time>2013-03-31T11:12:25Z</time>
      </trkpt>
      <trkpt lat="41.639427390" lon="2.521862477">
        <ele>251.04</ele>
        <time>2013-03-31T11:12:34Z</time>
      </trkpt>
      <trkpt lat="41.639195211" lon="2.522334211">
        <ele>252.00</ele>
        <time>2013-03-31T11:12:44Z</time>
      </trkpt>
      <trkpt lat="41.638984407" lon="2.522785073">
        <ele>253.44</ele>
        <time>2013-03-31T11:12:54Z</time>
      </trkpt>
      <trkpt lat="41.638776535" lon="2.523053210">
        <ele>254.89</ele>
        <time>2013-03-31T11:13:02Z</time>
      </trkpt>
      <trkpt lat="41.638535137" lon="2.523227470">
        <ele>255.85</ele>
        <time>2013-03-31T11:13:10Z</time>
      </trkpt>
      <trkpt lat="41.638333552" lon="2.523506168">
        <ele>256.33</ele>
        <time>2013-03-31T11:13:19Z</time>
      </trkpt>
      <trkpt lat="41.638178654" lon="2.523915038">
        <ele>256.81</ele>
        <time>2013-03-31T11:13:29Z</time>
      </trkpt>
      <trkpt lat="41.637998024" lon="2.524048310">
        <ele>257.77</ele>
        <time>2013-03-31T11:13:35Z</time>
      </trkpt>
      <trkpt lat="41.637748160" lon="2.524093488">
        <ele>259.21</ele>
        <time>2013-03-31T11:13:43Z</time>
      </trkpt>
      <trkpt lat="41.637523189" lon="2.524111258">
        <ele>260.65</ele>
        <time>2013-03-31T11:13:51Z</time>
      </trkpt>
      <trkpt lat="41.637342392" lon="2.524127267">
        <ele>262.10</ele>
        <time>2013-03-31T11:13:59Z</time>
      </trkpt>
      <trkpt lat="41.637181878" lon="2.524126848">
        <ele>262.58</ele>
        <time>2013-03-31T11:14:05Z</time>
      </trkpt>
      <trkpt lat="41.636975851" lon="2.524138667">
        <ele>263.54</ele>
        <time>2013-03-31T11:14:12Z</time>
      </trkpt>
      <trkpt lat="41.636780553" lon="2.524144031">
        <ele>264.50</ele>
        <time>2013-03-31T11:14:19Z</time>
      </trkpt>
      <trkpt lat="41.636569916" lon="2.524154844">
        <ele>265.46</ele>
        <time>2013-03-31T11:14:26Z</time>
      </trkpt>
      <trkpt lat="41.636368750" lon="2.524160711">
        <ele>266.42</ele>
        <time>2013-03-31T11:14:33Z</time>
      </trkpt>
      <trkpt lat="41.636125004" lon="2.524166998">
        <ele>267.86</ele>
        <time>2013-03-31T11:14:41Z</time>
      </trkpt>
      <trkpt lat="41.635863070" lon="2.524174960">
        <ele>268.83</ele>
        <time>2013-03-31T11:14:50Z</time>
      </trkpt>
      <trkpt lat="41.635627706" lon="2.524180073">
        <ele>270.75</ele>
        <time>2013-03-31T11:14:58Z</time>
      </trkpt>
      <trkpt lat="41.635380272" lon="2.524221983">
        <ele>271.71</ele>
        <time>2013-03-31T11:15:07Z</time>
      </trkpt>
      <trkpt lat="41.635173407" lon="2.524302617">
        <ele>272.67</ele>
        <time>2013-03-31T11:15:15Z</time>
      </trkpt>
      <trkpt lat="41.634996046" lon="2.524402697">
        <ele>274.59</ele>
        <time>2013-03-31T11:15:22Z</time>
      </trkpt>
      <trkpt lat="41.634795886" lon="2.524562372">
        <ele>276.04</ele>
        <time>2013-03-31T11:15:30Z</time>
      </trkpt>
      <trkpt lat="41.634610897" lon="2.524774769">
        <ele>277.96</ele>
        <time>2013-03-31T11:15:39Z</time>
      </trkpt>
      <trkpt lat="41.634482654" lon="2.525009463">
        <ele>279.88</ele>
        <time>2013-03-31T11:15:47Z</time>
      </trkpt>
      <trkpt lat="41.634363631" lon="2.525308110">
        <ele>281.32</ele>
        <time>2013-03-31T11:15:56Z</time>
      </trkpt>
      <trkpt lat="41.634288278" lon="2.525538864">
        <ele>282.77</ele>
        <time>2013-03-31T11:16:04Z</time>
      </trkpt>
      <trkpt lat="41.634228431" lon="2.525601812">
        <ele>282.77</ele>
        <time>2013-03-31T11:16:11Z</time>
      </trkpt>
      <trkpt lat="41.634217953" lon="2.525616061">
        <ele>282.28</ele>
        <time>2013-03-31T11:16:20Z</time>
      </trkpt>
      <trkpt lat="41.634224072" lon="2.525622850">
        <ele>282.28</ele>
        <time>2013-03-31T11:16:34Z</time>
      </trkpt>
      <trkpt lat="41.634251565" lon="2.525630646">
        <ele>282.28</ele>
        <time>2013-03-31T11:16:53Z</time>
      </trkpt>
      <trkpt lat="41.634242848" lon="2.525679177">
        <ele>282.77</ele>
        <time>2013-03-31T11:17:11Z</time>
      </trkpt>
      <trkpt lat="41.634235304" lon="2.525645984">
        <ele>282.77</ele>
        <time>2013-03-31T11:17:26Z</time>
      </trkpt>
      <trkpt lat="41.634220049" lon="2.525628131">
        <ele>282.77</ele>
        <time>2013-03-31T11:17:39Z</time>
      </trkpt>
      <trkpt lat="41.634208314" lon="2.525608182">
        <ele>282.77</ele>
        <time>2013-03-31T11:17:43Z</time>
      </trkpt>
      <trkpt lat="41.634219295" lon="2.525421098">
        <ele>281.32</ele>
        <time>2013-03-31T11:17:48Z</time>
      </trkpt>
      <trkpt lat="41.634337144" lon="2.524932433">
        <ele>278.92</ele>
        <time>2013-03-31T11:17:55Z</time>
      </trkpt>
      <trkpt lat="41.634517607" lon="2.524716096">
        <ele>275.07</ele>
        <time>2013-03-31T11:17:59Z</time>
      </trkpt>
      <trkpt lat="41.634567060" lon="2.524654741">
        <ele>274.11</ele>
        <time>2013-03-31T11:18:00Z</time>
      </trkpt>
      <trkpt lat="41.634741906" lon="2.524445612">
        <ele>272.67</ele>
        <time>2013-03-31T11:18:03Z</time>
      </trkpt>
      <trkpt lat="41.634808291" lon="2.524376797">
        <ele>271.23</ele>
        <time>2013-03-31T11:18:04Z</time>
      </trkpt>
      <trkpt lat="41.635026220" lon="2.524231706">
        <ele>268.83</ele>
        <time>2013-03-31T11:18:07Z</time>
      </trkpt>
      <trkpt lat="41.635194780" lon="2.524039677">
        <ele>265.94</ele>
        <time>2013-03-31T11:18:11Z</time>
      </trkpt>
      <trkpt lat="41.635109201" lon="2.524008580">
        <ele>265.46</ele>
        <time>2013-03-31T11:18:14Z</time>
      </trkpt>
      <trkpt lat="41.635075757" lon="2.524024421">
        <ele>265.46</ele>
        <time>2013-03-31T11:18:15Z</time>
      </trkpt>
      <trkpt lat="41.634912646" lon="2.524049483">
        <ele>264.02</ele>
        <time>2013-03-31T11:18:21Z</time>
      </trkpt>
      <trkpt lat="41.634890601" lon="2.524030456">
        <ele>264.02</ele>
        <time>2013-03-31T11:18:23Z</time>
      </trkpt>
      <trkpt lat="41.634818936" lon="2.523917385">
        <ele>264.02</ele>
        <time>2013-03-31T11:18:32Z</time>
      </trkpt>
      <trkpt lat="41.634804603" lon="2.523894167">
        <ele>265.46</ele>
        <time>2013-03-31T11:18:34Z</time>
      </trkpt>
      <trkpt lat="41.634787336" lon="2.523861477">
        <ele>265.94</ele>
        <time>2013-03-31T11:18:36Z</time>
      </trkpt>
      <trkpt lat="41.634739392" lon="2.523692163">
        <ele>268.35</ele>
        <time>2013-03-31T11:18:45Z</time>
      </trkpt>
      <trkpt lat="41.634706954" lon="2.523540702">
        <ele>270.27</ele>
        <time>2013-03-31T11:18:54Z</time>
      </trkpt>
      <trkpt lat="41.634629170" lon="2.523416733">
        <ele>272.19</ele>
        <time>2013-03-31T11:19:03Z</time>
      </trkpt>
      <trkpt lat="41.634537304" lon="2.523238031">
        <ele>273.15</ele>
        <time>2013-03-31T11:19:14Z</time>
      </trkpt>
      <trkpt lat="41.634464298" lon="2.523121607">
        <ele>275.07</ele>
        <time>2013-03-31T11:19:23Z</time>
      </trkpt>
      <trkpt lat="41.634414174" lon="2.523059664">
        <ele>276.52</ele>
        <time>2013-03-31T11:19:30Z</time>
      </trkpt>
      <trkpt lat="41.634387938" lon="2.523014989">
        <ele>276.52</ele>
        <time>2013-03-31T11:19:34Z</time>
      </trkpt>
      <trkpt lat="41.634288361" lon="2.522913735">
        <ele>277.00</ele>
        <time>2013-03-31T11:19:44Z</time>
      </trkpt>
      <trkpt lat="41.634210158" lon="2.522818852">
        <ele>277.48</ele>
        <time>2013-03-31T11:19:51Z</time>
      </trkpt>
      <trkpt lat="41.634110162" lon="2.522718940">
        <ele>278.44</ele>
        <time>2013-03-31T11:19:59Z</time>
      </trkpt>
      <trkpt lat="41.633995498" lon="2.522618273">
        <ele>279.88</ele>
        <time>2013-03-31T11:20:08Z</time>
      </trkpt>
      <trkpt lat="41.633903381" lon="2.522505453">
        <ele>280.36</ele>
        <time>2013-03-31T11:20:16Z</time>
      </trkpt>
      <trkpt lat="41.633828027" lon="2.522358267">
        <ele>281.32</ele>
        <time>2013-03-31T11:20:24Z</time>
      </trkpt>
      <trkpt lat="41.633775557" lon="2.522186019">
        <ele>283.25</ele>
        <time>2013-03-31T11:20:32Z</time>
      </trkpt>
      <trkpt lat="41.633756446" lon="2.522061631">
        <ele>283.73</ele>
        <time>2013-03-31T11:20:37Z</time>
      </trkpt>
      <trkpt lat="41.633698359" lon="2.521902207">
        <ele>284.69</ele>
        <time>2013-03-31T11:20:46Z</time>
      </trkpt>
      <trkpt lat="41.633673297" lon="2.521847138">
        <ele>285.17</ele>
        <time>2013-03-31T11:20:49Z</time>
      </trkpt>
      <trkpt lat="41.633560645" lon="2.521627113">
        <ele>286.13</ele>
        <time>2013-03-31T11:21:01Z</time>
      </trkpt>
      <trkpt lat="41.633489315" lon="2.521446400">
        <ele>287.57</ele>
        <time>2013-03-31T11:21:10Z</time>
      </trkpt>
      <trkpt lat="41.633418571" lon="2.521205420">
        <ele>288.53</ele>
        <time>2013-03-31T11:21:20Z</time>
      </trkpt>
      <trkpt lat="41.633353947" lon="2.520961674">
        <ele>289.01</ele>
        <time>2013-03-31T11:21:31Z</time>
      </trkpt>
      <trkpt lat="41.633331148" lon="2.520910293">
        <ele>289.49</ele>
        <time>2013-03-31T11:21:34Z</time>
      </trkpt>
      <trkpt lat="41.633234672" lon="2.520777440">
        <ele>289.49</ele>
        <time>2013-03-31T11:21:41Z</time>
      </trkpt>
      <trkpt lat="41.633111375" lon="2.520602677">
        <ele>289.49</ele>
        <time>2013-03-31T11:21:52Z</time>
      </trkpt>
      <trkpt lat="41.633030573" lon="2.520541908">
        <ele>289.49</ele>
        <time>2013-03-31T11:21:58Z</time>
      </trkpt>
      <trkpt lat="41.632915406" lon="2.520556744">
        <ele>289.49</ele>
        <time>2013-03-31T11:22:05Z</time>
      </trkpt>
      <trkpt lat="41.632836113" lon="2.520586081">
        <ele>289.97</ele>
        <time>2013-03-31T11:22:11Z</time>
      </trkpt>
      <trkpt lat="41.632747013" lon="2.520576693">
        <ele>290.94</ele>
        <time>2013-03-31T11:22:19Z</time>
      </trkpt>
      <trkpt lat="41.632638132" lon="2.520511817">
        <ele>293.34</ele>
        <time>2013-03-31T11:22:28Z</time>
      </trkpt>
      <trkpt lat="41.632523049" lon="2.520413581">
        <ele>295.26</ele>
        <time>2013-03-31T11:22:37Z</time>
      </trkpt>
      <trkpt lat="41.632437051" lon="2.520354070">
        <ele>296.70</ele>
        <time>2013-03-31T11:22:45Z</time>
      </trkpt>
      <trkpt lat="41.632342084" lon="2.520305371">
        <ele>298.63</ele>
        <time>2013-03-31T11:22:54Z</time>
      </trkpt>
      <trkpt lat="41.632225407" lon="2.520272514">
        <ele>300.07</ele>
        <time>2013-03-31T11:23:02Z</time>
      </trkpt>
      <trkpt lat="41.632128596" lon="2.520233790">
        <ele>300.55</ele>
        <time>2013-03-31T11:23:08Z</time>
      </trkpt>
      <trkpt lat="41.632024661" lon="2.520154078">
        <ele>301.99</ele>
        <time>2013-03-31T11:23:18Z</time>
      </trkpt>
      <trkpt lat="41.631999767" lon="2.520138655">
        <ele>302.47</ele>
        <time>2013-03-31T11:23:20Z</time>
      </trkpt>
      <trkpt lat="41.631891053" lon="2.520079143">
        <ele>303.91</ele>
        <time>2013-03-31T11:23:29Z</time>
      </trkpt>
      <trkpt lat="41.631790806" lon="2.520034384">
        <ele>305.36</ele>
        <time>2013-03-31T11:23:36Z</time>
      </trkpt>
      <trkpt lat="41.631684942" lon="2.519981578">
        <ele>306.80</ele>
        <time>2013-03-31T11:23:45Z</time>
      </trkpt>
      <trkpt lat="41.631580420" lon="2.519920558">
        <ele>308.72</ele>
        <time>2013-03-31T11:23:54Z</time>
      </trkpt>
      <trkpt lat="41.631481011" lon="2.519850485">
        <ele>309.68</ele>
        <time>2013-03-31T11:24:02Z</time>
      </trkpt>
      <trkpt lat="41.631470701" lon="2.519844283">
        <ele>309.68</ele>
        <time>2013-03-31T11:24:03Z</time>
      </trkpt>
      <trkpt lat="41.631372800" lon="2.519747807">
        <ele>310.64</ele>
        <time>2013-03-31T11:24:13Z</time>
      </trkpt>
      <trkpt lat="41.631294178" lon="2.519665245">
        <ele>312.57</ele>
        <time>2013-03-31T11:24:21Z</time>
      </trkpt>
      <trkpt lat="41.631204492" lon="2.519580504">
        <ele>314.01</ele>
        <time>2013-03-31T11:24:29Z</time>
      </trkpt>
      <trkpt lat="41.631138610" lon="2.519480340">
        <ele>314.97</ele>
        <time>2013-03-31T11:24:36Z</time>
      </trkpt>
      <trkpt lat="41.631057473" lon="2.519353941">
        <ele>317.37</ele>
        <time>2013-03-31T11:24:45Z</time>
      </trkpt>
      <trkpt lat="41.630977845" lon="2.519236930">
        <ele>318.33</ele>
        <time>2013-03-31T11:24:53Z</time>
      </trkpt>
      <trkpt lat="41.630923949" lon="2.519170126">
        <ele>319.78</ele>
        <time>2013-03-31T11:25:00Z</time>
      </trkpt>
      <trkpt lat="41.630794197" lon="2.519101646">
        <ele>320.74</ele>
        <time>2013-03-31T11:25:09Z</time>
      </trkpt>
      <trkpt lat="41.630668469" lon="2.519168282">
        <ele>323.14</ele>
        <time>2013-03-31T11:25:18Z</time>
      </trkpt>
      <trkpt lat="41.630554643" lon="2.519228883">
        <ele>324.10</ele>
        <time>2013-03-31T11:25:27Z</time>
      </trkpt>
      <trkpt lat="41.630409636" lon="2.519195439">
        <ele>324.58</ele>
        <time>2013-03-31T11:25:37Z</time>
      </trkpt>
      <trkpt lat="41.630277369" lon="2.519122433">
        <ele>325.54</ele>
        <time>2013-03-31T11:25:47Z</time>
      </trkpt>
      <trkpt lat="41.630205117" lon="2.519028807">
        <ele>326.99</ele>
        <time>2013-03-31T11:25:54Z</time>
      </trkpt>
      <trkpt lat="41.630123645" lon="2.518958064">
        <ele>329.39</ele>
        <time>2013-03-31T11:26:02Z</time>
      </trkpt>
      <trkpt lat="41.630063715" lon="2.518907186">
        <ele>330.83</ele>
        <time>2013-03-31T11:26:09Z</time>
      </trkpt>
      <trkpt lat="41.629993810" lon="2.518842561">
        <ele>333.23</ele>
        <time>2013-03-31T11:26:17Z</time>
      </trkpt>
      <trkpt lat="41.629931867" lon="2.518736279">
        <ele>334.68</ele>
        <time>2013-03-31T11:26:25Z</time>
      </trkpt>
      <trkpt lat="41.629852994" lon="2.518654555">
        <ele>336.12</ele>
        <time>2013-03-31T11:26:34Z</time>
      </trkpt>
      <trkpt lat="41.629784597" lon="2.518565623">
        <ele>337.56</ele>
        <time>2013-03-31T11:26:42Z</time>
      </trkpt>
      <trkpt lat="41.629718380" lon="2.518478200">
        <ele>339.48</ele>
        <time>2013-03-31T11:26:50Z</time>
      </trkpt>
      <trkpt lat="41.629628610" lon="2.518374851">
        <ele>340.92</ele>
        <time>2013-03-31T11:27:00Z</time>
      </trkpt>
      <trkpt lat="41.629543031" lon="2.518268736">
        <ele>341.89</ele>
        <time>2013-03-31T11:27:09Z</time>
      </trkpt>
      <trkpt lat="41.629526267" lon="2.518240992">
        <ele>342.37</ele>
        <time>2013-03-31T11:27:11Z</time>
      </trkpt>
      <trkpt lat="41.629493158" lon="2.518181816">
        <ele>342.85</ele>
        <time>2013-03-31T11:27:16Z</time>
      </trkpt>
      <trkpt lat="41.629463570" lon="2.518149378">
        <ele>344.29</ele>
        <time>2013-03-31T11:27:20Z</time>
      </trkpt>
      <trkpt lat="41.629376231" lon="2.518138984">
        <ele>345.73</ele>
        <time>2013-03-31T11:27:29Z</time>
      </trkpt>
      <trkpt lat="41.629278330" lon="2.518092716">
        <ele>346.21</ele>
        <time>2013-03-31T11:27:37Z</time>
      </trkpt>
      <trkpt lat="41.629174479" lon="2.518009652">
        <ele>346.69</ele>
        <time>2013-03-31T11:27:46Z</time>
      </trkpt>
      <trkpt lat="41.629105160" lon="2.517911332">
        <ele>347.65</ele>
        <time>2013-03-31T11:27:53Z</time>
      </trkpt>
      <trkpt lat="41.629007008" lon="2.517857688">
        <ele>349.10</ele>
        <time>2013-03-31T11:28:02Z</time>
      </trkpt>
      <trkpt lat="41.628894355" lon="2.517816449">
        <ele>351.02</ele>
        <time>2013-03-31T11:28:11Z</time>
      </trkpt>
      <trkpt lat="41.628766280" lon="2.517742772">
        <ele>353.90</ele>
        <time>2013-03-31T11:28:21Z</time>
      </trkpt>
      <trkpt lat="41.628724454" lon="2.517705053">
        <ele>354.86</ele>
        <time>2013-03-31T11:28:25Z</time>
      </trkpt>
      <trkpt lat="41.628698554" lon="2.517728858">
        <ele>354.86</ele>
        <time>2013-03-31T11:28:28Z</time>
      </trkpt>
      <trkpt lat="41.628703164" lon="2.517770935">
        <ele>355.34</ele>
        <time>2013-03-31T11:28:31Z</time>
      </trkpt>
      <trkpt lat="41.628743230" lon="2.517869339">
        <ele>357.27</ele>
        <time>2013-03-31T11:28:41Z</time>
      </trkpt>
      <trkpt lat="41.628729232" lon="2.517887276">
        <ele>357.27</ele>
        <time>2013-03-31T11:28:51Z</time>
      </trkpt>
      <trkpt lat="41.628732417" lon="2.517908901">
        <ele>357.27</ele>
        <time>2013-03-31T11:29:04Z</time>
      </trkpt>
      <trkpt lat="41.628746163" lon="2.517964892">
        <ele>358.23</ele>
        <time>2013-03-31T11:29:11Z</time>
      </trkpt>
      <trkpt lat="41.628768543" lon="2.518019458">
        <ele>359.19</ele>
        <time>2013-03-31T11:29:18Z</time>
      </trkpt>
      <trkpt lat="41.628832162" lon="2.518148540">
        <ele>361.11</ele>
        <time>2013-03-31T11:29:27Z</time>
      </trkpt>
      <trkpt lat="41.628892344" lon="2.518274687">
        <ele>362.55</ele>
        <time>2013-03-31T11:29:36Z</time>
      </trkpt>
      <trkpt lat="41.628904581" lon="2.518301677">
        <ele>363.04</ele>
        <time>2013-03-31T11:29:38Z</time>
      </trkpt>
      <trkpt lat="41.628908102" lon="2.518464537">
        <ele>364.96</ele>
        <time>2013-03-31T11:29:49Z</time>
      </trkpt>
      <trkpt lat="41.628912376" lon="2.518607197">
        <ele>365.92</ele>
        <time>2013-03-31T11:29:58Z</time>
      </trkpt>
      <trkpt lat="41.628916232" lon="2.518732339">
        <ele>367.84</ele>
        <time>2013-03-31T11:30:06Z</time>
      </trkpt>
      <trkpt lat="41.628947748" lon="2.518820349">
        <ele>368.80</ele>
        <time>2013-03-31T11:30:14Z</time>
      </trkpt>
      <trkpt lat="41.628957303" lon="2.518866701">
        <ele>369.28</ele>
        <time>2013-03-31T11:30:21Z</time>
      </trkpt>
      <trkpt lat="41.628977001" lon="2.518926967">
        <ele>370.24</ele>
        <time>2013-03-31T11:30:27Z</time>
      </trkpt>
      <trkpt lat="41.628992759" lon="2.519021096">
        <ele>370.73</ele>
        <time>2013-03-31T11:30:32Z</time>
      </trkpt>
      <trkpt lat="41.628969373" lon="2.519153362">
        <ele>372.65</ele>
        <time>2013-03-31T11:30:41Z</time>
      </trkpt>
      <trkpt lat="41.628966943" lon="2.519239863">
        <ele>374.09</ele>
        <time>2013-03-31T11:30:47Z</time>
      </trkpt>
      <trkpt lat="41.628972642" lon="2.519360647">
        <ele>375.53</ele>
        <time>2013-03-31T11:30:56Z</time>
      </trkpt>
      <trkpt lat="41.629012373" lon="2.519508923">
        <ele>376.49</ele>
        <time>2013-03-31T11:31:06Z</time>
      </trkpt>
      <trkpt lat="41.629041206" lon="2.519642195">
        <ele>377.45</ele>
        <time>2013-03-31T11:31:14Z</time>
      </trkpt>
      <trkpt lat="41.629041625" lon="2.519674046">
        <ele>377.94</ele>
        <time>2013-03-31T11:31:16Z</time>
      </trkpt>
      <trkpt lat="41.629028633" lon="2.519794243">
        <ele>379.38</ele>
        <time>2013-03-31T11:31:25Z</time>
      </trkpt>
      <trkpt lat="41.629017821" lon="2.519938747">
        <ele>380.82</ele>
        <time>2013-03-31T11:31:34Z</time>
      </trkpt>
      <trkpt lat="41.629032573" lon="2.520097835">
        <ele>381.78</ele>
        <time>2013-03-31T11:31:44Z</time>
      </trkpt>
      <trkpt lat="41.629063586" lon="2.520207387">
        <ele>384.66</ele>
        <time>2013-03-31T11:31:54Z</time>
      </trkpt>
      <trkpt lat="41.629086888" lon="2.520375360">
        <ele>385.15</ele>
        <time>2013-03-31T11:32:04Z</time>
      </trkpt>
      <trkpt lat="41.629084373" lon="2.520506118">
        <ele>386.59</ele>
        <time>2013-03-31T11:32:13Z</time>
      </trkpt>
      <trkpt lat="41.629063167" lon="2.520607036">
        <ele>388.03</ele>
        <time>2013-03-31T11:32:22Z</time>
      </trkpt>
      <trkpt lat="41.629051432" lon="2.520692699">
        <ele>388.99</ele>
        <time>2013-03-31T11:32:30Z</time>
      </trkpt>
      <trkpt lat="41.629079512" lon="2.520753468">
        <ele>388.99</ele>
        <time>2013-03-31T11:32:36Z</time>
      </trkpt>
      <trkpt lat="41.629131144" lon="2.520820355">
        <ele>389.47</ele>
        <time>2013-03-31T11:32:44Z</time>
      </trkpt>
      <trkpt lat="41.629165678" lon="2.520859415">
        <ele>389.95</ele>
        <time>2013-03-31T11:32:49Z</time>
      </trkpt>
      <trkpt lat="41.629268272" lon="2.521022443">
        <ele>390.43</ele>
        <time>2013-03-31T11:32:57Z</time>
      </trkpt>
      <trkpt lat="41.629431049" lon="2.521190584">
        <ele>388.03</ele>
        <time>2013-03-31T11:33:03Z</time>
      </trkpt>
      <trkpt lat="41.629518975" lon="2.521276498">
        <ele>387.07</ele>
        <time>2013-03-31T11:33:06Z</time>
      </trkpt>
      <trkpt lat="41.629490812" lon="2.521356294">
        <ele>385.15</ele>
        <time>2013-03-31T11:33:10Z</time>
      </trkpt>
      <trkpt lat="41.629282521" lon="2.521399126">
        <ele>380.82</ele>
        <time>2013-03-31T11:33:14Z</time>
      </trkpt>
      <trkpt lat="41.629038692" lon="2.521289993">
        <ele>376.97</ele>
        <time>2013-03-31T11:33:19Z</time>
      </trkpt>
      <trkpt lat="41.628987227" lon="2.521236181">
        <ele>376.01</ele>
        <time>2013-03-31T11:33:20Z</time>
      </trkpt>
      <trkpt lat="41.628846495" lon="2.521063598">
        <ele>374.09</ele>
        <time>2013-03-31T11:33:23Z</time>
      </trkpt>
      <trkpt lat="41.628780948" lon="2.520973325">
        <ele>372.65</ele>
        <time>2013-03-31T11:33:25Z</time>
      </trkpt>
      <trkpt lat="41.628510799" lon="2.520866875">
        <ele>369.28</ele>
        <time>2013-03-31T11:33:30Z</time>
      </trkpt>
      <trkpt lat="41.628186671" lon="2.520833682">
        <ele>366.40</ele>
        <time>2013-03-31T11:33:35Z</time>
      </trkpt>
      <trkpt lat="41.628090028" lon="2.520885147">
        <ele>365.44</ele>
        <time>2013-03-31T11:33:37Z</time>
      </trkpt>
      <trkpt lat="41.628017944" lon="2.520975672">
        <ele>364.48</ele>
        <time>2013-03-31T11:33:39Z</time>
      </trkpt>
      <trkpt lat="41.627963377" lon="2.521264847">
        <ele>363.52</ele>
        <time>2013-03-31T11:33:44Z</time>
      </trkpt>
      <trkpt lat="41.628027247" lon="2.521481436">
        <ele>363.52</ele>
        <time>2013-03-31T11:33:51Z</time>
      </trkpt>
      <trkpt lat="41.628027080" lon="2.521577828">
        <ele>364.96</ele>
        <time>2013-03-31T11:33:56Z</time>
      </trkpt>
      <trkpt lat="41.628028840" lon="2.521781173">
        <ele>364.96</ele>
        <time>2013-03-31T11:34:06Z</time>
      </trkpt>
      <trkpt lat="41.628023895" lon="2.521824842">
        <ele>365.44</ele>
        <time>2013-03-31T11:34:08Z</time>
      </trkpt>
      <trkpt lat="41.628014088" lon="2.522006562">
        <ele>365.44</ele>
        <time>2013-03-31T11:34:16Z</time>
      </trkpt>
      <trkpt lat="41.627991624" lon="2.522229269">
        <ele>367.36</ele>
        <time>2013-03-31T11:34:25Z</time>
      </trkpt>
      <trkpt lat="41.627991121" lon="2.522253074">
        <ele>367.84</ele>
        <time>2013-03-31T11:34:26Z</time>
      </trkpt>
      <trkpt lat="41.627933789" lon="2.522373522">
        <ele>369.76</ele>
        <time>2013-03-31T11:34:34Z</time>
      </trkpt>
      <trkpt lat="41.627800014" lon="2.522442505">
        <ele>370.24</ele>
        <time>2013-03-31T11:34:43Z</time>
      </trkpt>
      <trkpt lat="41.627684931" lon="2.522484666">
        <ele>370.24</ele>
        <time>2013-03-31T11:34:48Z</time>
      </trkpt>
      <trkpt lat="41.627610415" lon="2.522531940">
        <ele>370.24</ele>
        <time>2013-03-31T11:34:54Z</time>
      </trkpt>
      <trkpt lat="41.627487872" lon="2.522639144">
        <ele>371.21</ele>
        <time>2013-03-31T11:35:01Z</time>
      </trkpt>
      <trkpt lat="41.627409585" lon="2.522685077">
        <ele>371.21</ele>
        <time>2013-03-31T11:35:03Z</time>
      </trkpt>
      <trkpt lat="41.627160894" lon="2.522734698">
        <ele>368.32</ele>
        <time>2013-03-31T11:35:08Z</time>
      </trkpt>
      <trkpt lat="41.626927290" lon="2.522839975">
        <ele>365.92</ele>
        <time>2013-03-31T11:35:13Z</time>
      </trkpt>
      <trkpt lat="41.626939444" lon="2.522929913">
        <ele>365.44</ele>
        <time>2013-03-31T11:35:16Z</time>
      </trkpt>
      <trkpt lat="41.626977498" lon="2.523001829">
        <ele>365.44</ele>
        <time>2013-03-31T11:35:19Z</time>
      </trkpt>
      <trkpt lat="41.626976660" lon="2.523127725">
        <ele>366.88</ele>
        <time>2013-03-31T11:35:24Z</time>
      </trkpt>
      <trkpt lat="41.626971798" lon="2.523172066">
        <ele>367.84</ele>
        <time>2013-03-31T11:35:26Z</time>
      </trkpt>
      <trkpt lat="41.626939612" lon="2.523373399">
        <ele>369.28</ele>
        <time>2013-03-31T11:35:34Z</time>
      </trkpt>
      <trkpt lat="41.626940785" lon="2.523602644">
        <ele>369.28</ele>
        <time>2013-03-31T11:35:41Z</time>
      </trkpt>
      <trkpt lat="41.627010858" lon="2.523774557">
        <ele>369.28</ele>
        <time>2013-03-31T11:35:47Z</time>
      </trkpt>
      <trkpt lat="41.627093839" lon="2.523949320">
        <ele>369.76</ele>
        <time>2013-03-31T11:35:54Z</time>
      </trkpt>
      <trkpt lat="41.627209593" lon="2.524099607">
        <ele>370.73</ele>
        <time>2013-03-31T11:36:02Z</time>
      </trkpt>
      <trkpt lat="41.627277654" lon="2.524203124">
        <ele>371.21</ele>
        <time>2013-03-31T11:36:08Z</time>
      </trkpt>
      <trkpt lat="41.627292657" lon="2.524331953">
        <ele>371.69</ele>
        <time>2013-03-31T11:36:14Z</time>
      </trkpt>
      <trkpt lat="41.627285365" lon="2.524377216">
        <ele>371.69</ele>
        <time>2013-03-31T11:36:16Z</time>
      </trkpt>
      <trkpt lat="41.627291903" lon="2.524454916">
        <ele>372.17</ele>
        <time>2013-03-31T11:36:19Z</time>
      </trkpt>
      <trkpt lat="41.627258459" lon="2.524687179">
        <ele>372.17</ele>
        <time>2013-03-31T11:36:27Z</time>
      </trkpt>
      <trkpt lat="41.627313780" lon="2.524941653">
        <ele>372.17</ele>
        <time>2013-03-31T11:36:34Z</time>
      </trkpt>
      <trkpt lat="41.627382847" lon="2.525074087">
        <ele>371.21</ele>
        <time>2013-03-31T11:36:37Z</time>
      </trkpt>
      <trkpt lat="41.627443196" lon="2.525305260">
        <ele>370.73</ele>
        <time>2013-03-31T11:36:41Z</time>
      </trkpt>
      <trkpt lat="41.627470941" lon="2.525525117">
        <ele>370.24</ele>
        <time>2013-03-31T11:36:45Z</time>
      </trkpt>
      <trkpt lat="41.627516370" lon="2.525894089">
        <ele>369.76</ele>
        <time>2013-03-31T11:36:54Z</time>
      </trkpt>
      <trkpt lat="41.627542187" lon="2.525978159">
        <ele>369.76</ele>
        <time>2013-03-31T11:36:57Z</time>
      </trkpt>
      <trkpt lat="41.627621815" lon="2.525994169">
        <ele>369.76</ele>
        <time>2013-03-31T11:37:02Z</time>
      </trkpt>
      <trkpt lat="41.627742011" lon="2.525883779">
        <ele>369.76</ele>
        <time>2013-03-31T11:37:07Z</time>
      </trkpt>
      <trkpt lat="41.627842510" lon="2.525723182">
        <ele>369.76</ele>
        <time>2013-03-31T11:37:11Z</time>
      </trkpt>
      <trkpt lat="41.627981650" lon="2.525785878">
        <ele>368.32</ele>
        <time>2013-03-31T11:37:15Z</time>
      </trkpt>
      <trkpt lat="41.627956672" lon="2.525950331">
        <ele>367.84</ele>
        <time>2013-03-31T11:37:18Z</time>
      </trkpt>
      <trkpt lat="41.627928928" lon="2.526003221">
        <ele>367.36</ele>
        <time>2013-03-31T11:37:19Z</time>
      </trkpt>
      <trkpt lat="41.627802529" lon="2.526272113">
        <ele>365.92</ele>
        <time>2013-03-31T11:37:23Z</time>
      </trkpt>
      <trkpt lat="41.627598345" lon="2.526563970">
        <ele>363.04</ele>
        <time>2013-03-31T11:37:27Z</time>
      </trkpt>
      <trkpt lat="41.627406316" lon="2.526953142">
        <ele>358.71</ele>
        <time>2013-03-31T11:37:32Z</time>
      </trkpt>
      <trkpt lat="41.627246389" lon="2.527094796">
        <ele>358.71</ele>
        <time>2013-03-31T11:37:37Z</time>
      </trkpt>
      <trkpt lat="41.627034746" lon="2.527101670">
        <ele>358.71</ele>
        <time>2013-03-31T11:37:45Z</time>
      </trkpt>
      <trkpt lat="41.626824612" lon="2.527116338">
        <ele>358.23</ele>
        <time>2013-03-31T11:37:51Z</time>
      </trkpt>
      <trkpt lat="41.626774488" lon="2.527112231">
        <ele>357.75</ele>
        <time>2013-03-31T11:37:52Z</time>
      </trkpt>
      <trkpt lat="41.626512218" lon="2.527117595">
        <ele>355.34</ele>
        <time>2013-03-31T11:37:59Z</time>
      </trkpt>
      <trkpt lat="41.626317004" lon="2.527138969">
        <ele>353.42</ele>
        <time>2013-03-31T11:38:06Z</time>
      </trkpt>
      <trkpt lat="41.626105528" lon="2.527152129">
        <ele>352.94</ele>
        <time>2013-03-31T11:38:11Z</time>
      </trkpt>
      <trkpt lat="41.625991032" lon="2.527160091">
        <ele>352.46</ele>
        <time>2013-03-31T11:38:13Z</time>
      </trkpt>
      <trkpt lat="41.625663551" lon="2.527192781">
        <ele>350.06</ele>
        <time>2013-03-31T11:38:18Z</time>
      </trkpt>
      <trkpt lat="41.625549557" lon="2.527406436">
        <ele>348.13</ele>
        <time>2013-03-31T11:38:22Z</time>
      </trkpt>
      <trkpt lat="41.625664137" lon="2.527566027">
        <ele>347.17</ele>
        <time>2013-03-31T11:38:25Z</time>
      </trkpt>
      <trkpt lat="41.625968652" lon="2.527859561">
        <ele>344.77</ele>
        <time>2013-03-31T11:38:31Z</time>
      </trkpt>
      <trkpt lat="41.626108714" lon="2.528068438">
        <ele>342.85</ele>
        <time>2013-03-31T11:38:34Z</time>
      </trkpt>
      <trkpt lat="41.626181552" lon="2.528447887">
        <ele>340.92</ele>
        <time>2013-03-31T11:38:38Z</time>
      </trkpt>
      <trkpt lat="41.626283476" lon="2.528939402">
        <ele>338.52</ele>
        <time>2013-03-31T11:38:43Z</time>
      </trkpt>
      <trkpt lat="41.626478775" lon="2.529188931">
        <ele>336.60</ele>
        <time>2013-03-31T11:38:46Z</time>
      </trkpt>
      <trkpt lat="41.626514314" lon="2.529444495">
        <ele>335.16</ele>
        <time>2013-03-31T11:38:48Z</time>
      </trkpt>
      <trkpt lat="41.626564019" lon="2.530116137">
        <ele>331.31</ele>
        <time>2013-03-31T11:38:53Z</time>
      </trkpt>
      <trkpt lat="41.626746996" lon="2.530555768">
        <ele>328.91</ele>
        <time>2013-03-31T11:38:57Z</time>
      </trkpt>
      <trkpt lat="41.627033321" lon="2.530621566">
        <ele>326.99</ele>
        <time>2013-03-31T11:39:00Z</time>
      </trkpt>
      <trkpt lat="41.627132982" lon="2.530597091">
        <ele>326.50</ele>
        <time>2013-03-31T11:39:01Z</time>
      </trkpt>
      <trkpt lat="41.627505055" lon="2.530546799">
        <ele>323.62</ele>
        <time>2013-03-31T11:39:05Z</time>
      </trkpt>
      <trkpt lat="41.627686104" lon="2.530663895">
        <ele>321.22</ele>
        <time>2013-03-31T11:39:09Z</time>
      </trkpt>
      <trkpt lat="41.627606644" lon="2.530714857">
        <ele>320.26</ele>
        <time>2013-03-31T11:39:11Z</time>
      </trkpt>
      <trkpt lat="41.627475299" lon="2.530694321">
        <ele>319.78</ele>
        <time>2013-03-31T11:39:13Z</time>
      </trkpt>
      <trkpt lat="41.626946150" lon="2.530808147">
        <ele>316.41</ele>
        <time>2013-03-31T11:39:20Z</time>
      </trkpt>
      <trkpt lat="41.626456982" lon="2.530988945">
        <ele>313.53</ele>
        <time>2013-03-31T11:39:26Z</time>
      </trkpt>
      <trkpt lat="41.626316333" lon="2.531036219">
        <ele>312.09</ele>
        <time>2013-03-31T11:39:28Z</time>
      </trkpt>
      <trkpt lat="41.626152719" lon="2.531093383">
        <ele>310.16</ele>
        <time>2013-03-31T11:39:31Z</time>
      </trkpt>
      <trkpt lat="41.626101170" lon="2.531106208">
        <ele>309.20</ele>
        <time>2013-03-31T11:39:32Z</time>
      </trkpt>
      <trkpt lat="41.625898831" lon="2.531050049">
        <ele>307.76</ele>
        <time>2013-03-31T11:39:37Z</time>
      </trkpt>
      <trkpt lat="41.625854323" lon="2.530997411">
        <ele>306.80</ele>
        <time>2013-03-31T11:39:39Z</time>
      </trkpt>
      <trkpt lat="41.625803780" lon="2.531066980">
        <ele>306.80</ele>
        <time>2013-03-31T11:39:43Z</time>
      </trkpt>
      <trkpt lat="41.625753824" lon="2.531323383">
        <ele>304.39</ele>
        <time>2013-03-31T11:39:47Z</time>
      </trkpt>
      <trkpt lat="41.625601525" lon="2.531782962">
        <ele>301.51</ele>
        <time>2013-03-31T11:39:52Z</time>
      </trkpt>
      <trkpt lat="41.625518711" lon="2.531990666">
        <ele>300.07</ele>
        <time>2013-03-31T11:39:54Z</time>
      </trkpt>
      <trkpt lat="41.625367753" lon="2.532225443">
        <ele>297.67</ele>
        <time>2013-03-31T11:39:57Z</time>
      </trkpt>
      <trkpt lat="41.625176814" lon="2.532389309">
        <ele>297.18</ele>
        <time>2013-03-31T11:40:00Z</time>
      </trkpt>
      <trkpt lat="41.624910604" lon="2.532500202">
        <ele>295.26</ele>
        <time>2013-03-31T11:40:04Z</time>
      </trkpt>
      <trkpt lat="41.624640204" lon="2.532598941">
        <ele>294.30</ele>
        <time>2013-03-31T11:40:08Z</time>
      </trkpt>
      <trkpt lat="41.624376426" lon="2.532681503">
        <ele>293.82</ele>
        <time>2013-03-31T11:40:12Z</time>
      </trkpt>
      <trkpt lat="41.624173835" lon="2.532867162">
        <ele>292.86</ele>
        <time>2013-03-31T11:40:16Z</time>
      </trkpt>
      <trkpt lat="41.624062272" lon="2.533034129">
        <ele>291.42</ele>
        <time>2013-03-31T11:40:19Z</time>
      </trkpt>
      <trkpt lat="41.624026481" lon="2.533083247">
        <ele>291.42</ele>
        <time>2013-03-31T11:40:20Z</time>
      </trkpt>
      <trkpt lat="41.623940399" lon="2.533315342">
        <ele>288.53</ele>
        <time>2013-03-31T11:40:24Z</time>
      </trkpt>
      <trkpt lat="41.623879463" lon="2.533669477">
        <ele>282.77</ele>
        <time>2013-03-31T11:40:29Z</time>
      </trkpt>
      <trkpt lat="41.623781311" lon="2.533898974">
        <ele>279.40</ele>
        <time>2013-03-31T11:40:32Z</time>
      </trkpt>
      <trkpt lat="41.623748453" lon="2.533967789">
        <ele>278.44</ele>
        <time>2013-03-31T11:40:33Z</time>
      </trkpt>
      <trkpt lat="41.623654576" lon="2.534189239">
        <ele>275.56</ele>
        <time>2013-03-31T11:40:37Z</time>
      </trkpt>
      <trkpt lat="41.623528261" lon="2.534384621">
        <ele>271.71</ele>
        <time>2013-03-31T11:40:40Z</time>
      </trkpt>
      <trkpt lat="41.623403287" lon="2.534558965">
        <ele>269.79</ele>
        <time>2013-03-31T11:40:43Z</time>
      </trkpt>
      <trkpt lat="41.623367328" lon="2.534635492">
        <ele>268.83</ele>
        <time>2013-03-31T11:40:44Z</time>
      </trkpt>
      <trkpt lat="41.623251323" lon="2.534949646">
        <ele>265.94</ele>
        <time>2013-03-31T11:40:48Z</time>
      </trkpt>
      <trkpt lat="41.623172198" lon="2.535101693">
        <ele>265.46</ele>
        <time>2013-03-31T11:40:50Z</time>
      </trkpt>
      <trkpt lat="41.623030124" lon="2.535508299">
        <ele>263.06</ele>
        <time>2013-03-31T11:40:54Z</time>
      </trkpt>
      <trkpt lat="41.622995172" lon="2.535619192">
        <ele>261.62</ele>
        <time>2013-03-31T11:40:55Z</time>
      </trkpt>
      <trkpt lat="41.622780679" lon="2.535970897">
        <ele>258.73</ele>
        <time>2013-03-31T11:40:59Z</time>
      </trkpt>
      <trkpt lat="41.622630391" lon="2.536405247">
        <ele>257.29</ele>
        <time>2013-03-31T11:41:05Z</time>
      </trkpt>
      <trkpt lat="41.622542298" lon="2.536734404">
        <ele>256.33</ele>
        <time>2013-03-31T11:41:09Z</time>
      </trkpt>
      <trkpt lat="41.622286901" lon="2.536998769">
        <ele>254.89</ele>
        <time>2013-03-31T11:41:14Z</time>
      </trkpt>
      <trkpt lat="41.621939639" lon="2.537227092">
        <ele>254.41</ele>
        <time>2013-03-31T11:41:20Z</time>
      </trkpt>
      <trkpt lat="41.621577876" lon="2.537547281">
        <ele>253.44</ele>
        <time>2013-03-31T11:41:28Z</time>
      </trkpt>
      <trkpt lat="41.621534290" lon="2.537594304">
        <ele>252.48</ele>
        <time>2013-03-31T11:41:29Z</time>
      </trkpt>
      <trkpt lat="41.621397246" lon="2.537820866">
        <ele>248.16</ele>
        <time>2013-03-31T11:41:33Z</time>
      </trkpt>
      <trkpt lat="41.621340333" lon="2.537952211">
        <ele>245.75</ele>
        <time>2013-03-31T11:41:35Z</time>
      </trkpt>
      <trkpt lat="41.621327592" lon="2.538417658">
        <ele>241.91</ele>
        <time>2013-03-31T11:41:40Z</time>
      </trkpt>
      <trkpt lat="41.621333711" lon="2.538521091">
        <ele>240.95</ele>
        <time>2013-03-31T11:41:41Z</time>
      </trkpt>
      <trkpt lat="41.621246539" lon="2.538896013">
        <ele>239.99</ele>
        <time>2013-03-31T11:41:45Z</time>
      </trkpt>
      <trkpt lat="41.621139838" lon="2.538994081">
        <ele>239.99</ele>
        <time>2013-03-31T11:41:47Z</time>
      </trkpt>
      <trkpt lat="41.620766172" lon="2.539233552">
        <ele>240.47</ele>
        <time>2013-03-31T11:41:55Z</time>
      </trkpt>
      <trkpt lat="41.620473560" lon="2.539438574">
        <ele>242.39</ele>
        <time>2013-03-31T11:42:03Z</time>
      </trkpt>
      <trkpt lat="41.620208105" lon="2.539697994">
        <ele>242.87</ele>
        <time>2013-03-31T11:42:12Z</time>
      </trkpt>
      <trkpt lat="41.620110875" lon="2.539893460">
        <ele>242.87</ele>
        <time>2013-03-31T11:42:18Z</time>
      </trkpt>
      <trkpt lat="41.620111043" lon="2.539988846">
        <ele>242.87</ele>
        <time>2013-03-31T11:42:20Z</time>
      </trkpt>
      <trkpt lat="41.620083969" lon="2.540273495">
        <ele>239.02</ele>
        <time>2013-03-31T11:42:25Z</time>
      </trkpt>
      <trkpt lat="41.620068798" lon="2.540402828">
        <ele>237.10</ele>
        <time>2013-03-31T11:42:27Z</time>
      </trkpt>
      <trkpt lat="41.620004174" lon="2.540753108">
        <ele>233.26</ele>
        <time>2013-03-31T11:42:31Z</time>
      </trkpt>
      <trkpt lat="41.619977771" lon="2.540814296">
        <ele>232.30</ele>
        <time>2013-03-31T11:42:32Z</time>
      </trkpt>
      <trkpt lat="41.619927228" lon="2.540917477">
        <ele>231.81</ele>
        <time>2013-03-31T11:42:34Z</time>
      </trkpt>
      <trkpt lat="41.619811557" lon="2.541208832">
        <ele>228.45</ele>
        <time>2013-03-31T11:42:40Z</time>
      </trkpt>
      <trkpt lat="41.619740982" lon="2.541419385">
        <ele>226.53</ele>
        <time>2013-03-31T11:42:46Z</time>
      </trkpt>
      <trkpt lat="41.619748861" lon="2.541710153">
        <ele>223.16</ele>
        <time>2013-03-31T11:42:52Z</time>
      </trkpt>
      <trkpt lat="41.619831925" lon="2.541863542">
        <ele>222.20</ele>
        <time>2013-03-31T11:42:56Z</time>
      </trkpt>
      <trkpt lat="41.619856903" lon="2.541959599">
        <ele>219.32</ele>
        <time>2013-03-31T11:42:59Z</time>
      </trkpt>
      <trkpt lat="41.619918846" lon="2.542102175">
        <ele>215.47</ele>
        <time>2013-03-31T11:43:05Z</time>
      </trkpt>
      <trkpt lat="41.619944662" lon="2.542182976">
        <ele>213.07</ele>
        <time>2013-03-31T11:43:08Z</time>
      </trkpt>
      <trkpt lat="41.619874589" lon="2.542349357">
        <ele>208.74</ele>
        <time>2013-03-31T11:43:13Z</time>
      </trkpt>
      <trkpt lat="41.619841732" lon="2.542395542">
        <ele>207.78</ele>
        <time>2013-03-31T11:43:14Z</time>
      </trkpt>
      <trkpt lat="41.619791608" lon="2.542473745">
        <ele>206.34</ele>
        <time>2013-03-31T11:43:16Z</time>
      </trkpt>
      <trkpt lat="41.619691109" lon="2.542551026">
        <ele>204.42</ele>
        <time>2013-03-31T11:43:21Z</time>
      </trkpt>
      <trkpt lat="41.619564040" lon="2.542625038">
        <ele>201.05</ele>
        <time>2013-03-31T11:43:25Z</time>
      </trkpt>
      <trkpt lat="41.619538559" lon="2.542652112">
        <ele>200.57</ele>
        <time>2013-03-31T11:43:31Z</time>
      </trkpt>
      <trkpt lat="41.619535793" lon="2.542681532">
        <ele>200.57</ele>
        <time>2013-03-31T11:43:46Z</time>
      </trkpt>
      <trkpt lat="41.619525986" lon="2.542682370">
        <ele>200.57</ele>
        <time>2013-03-31T11:44:04Z</time>
      </trkpt>
      <trkpt lat="41.619526740" lon="2.542681867">
        <ele>200.57</ele>
        <time>2013-03-31T11:44:18Z</time>
      </trkpt>
      <trkpt lat="41.619532859" lon="2.542694105">
        <ele>200.57</ele>
        <time>2013-03-31T11:44:30Z</time>
      </trkpt>
      <trkpt lat="41.619531937" lon="2.542699637">
        <ele>200.57</ele>
        <time>2013-03-31T11:44:47Z</time>
      </trkpt>
      <trkpt lat="41.619518694" lon="2.542718580">
        <ele>200.57</ele>
        <time>2013-03-31T11:44:53Z</time>
      </trkpt>
      <trkpt lat="41.619483071" lon="2.542737439">
        <ele>200.57</ele>
        <time>2013-03-31T11:45:01Z</time>
      </trkpt>
      <trkpt lat="41.619484328" lon="2.542729728">
        <ele>200.09</ele>
        <time>2013-03-31T11:45:12Z</time>
      </trkpt>
      <trkpt lat="41.619479885" lon="2.542715227">
        <ele>200.09</ele>
        <time>2013-03-31T11:45:22Z</time>
      </trkpt>
      <trkpt lat="41.619473851" lon="2.542707097">
        <ele>200.09</ele>
        <time>2013-03-31T11:45:37Z</time>
      </trkpt>
      <trkpt lat="41.619473934" lon="2.542724280">
        <ele>200.09</ele>
        <time>2013-03-31T11:45:59Z</time>
      </trkpt>
      <trkpt lat="41.619475359" lon="2.542736936">
        <ele>200.09</ele>
        <time>2013-03-31T11:46:17Z</time>
      </trkpt>
      <trkpt lat="41.619471084" lon="2.542739786">
        <ele>200.09</ele>
        <time>2013-03-31T11:46:35Z</time>
      </trkpt>
      <trkpt lat="41.619467564" lon="2.542743977">
        <ele>200.09</ele>
        <time>2013-03-31T11:46:53Z</time>
      </trkpt>
      <trkpt lat="41.619466139" lon="2.542735847">
        <ele>200.57</ele>
        <time>2013-03-31T11:47:07Z</time>
      </trkpt>
      <trkpt lat="41.619466474" lon="2.542739367">
        <ele>200.57</ele>
        <time>2013-03-31T11:47:30Z</time>
      </trkpt>
      <trkpt lat="41.619463457" lon="2.542740038">
        <ele>200.57</ele>
        <time>2013-03-31T11:47:43Z</time>
      </trkpt>
      <trkpt lat="41.619447028" lon="2.542739451">
        <ele>200.57</ele>
        <time>2013-03-31T11:47:46Z</time>
      </trkpt>
      <trkpt lat="41.619357426" lon="2.542727213">
        <ele>200.57</ele>
        <time>2013-03-31T11:47:52Z</time>
      </trkpt>
      <trkpt lat="41.619135725" lon="2.542735763">
        <ele>199.61</ele>
        <time>2013-03-31T11:47:59Z</time>
      </trkpt>
      <trkpt lat="41.619047379" lon="2.542720508">
        <ele>198.65</ele>
        <time>2013-03-31T11:48:01Z</time>
      </trkpt>
      <trkpt lat="41.618956771" lon="2.542672228">
        <ele>198.65</ele>
        <time>2013-03-31T11:48:03Z</time>
      </trkpt>
      <trkpt lat="41.618676480" lon="2.542405265">
        <ele>195.77</ele>
        <time>2013-03-31T11:48:09Z</time>
      </trkpt>
      <trkpt lat="41.618571203" lon="2.542282134">
        <ele>194.80</ele>
        <time>2013-03-31T11:48:11Z</time>
      </trkpt>
      <trkpt lat="41.618390992" lon="2.541984828">
        <ele>193.36</ele>
        <time>2013-03-31T11:48:15Z</time>
      </trkpt>
      <trkpt lat="41.618312119" lon="2.541803276">
        <ele>191.92</ele>
        <time>2013-03-31T11:48:17Z</time>
      </trkpt>
      <trkpt lat="41.618068122" lon="2.541228110">
        <ele>188.56</ele>
        <time>2013-03-31T11:48:23Z</time>
      </trkpt>
      <trkpt lat="41.618033672" lon="2.541126521">
        <ele>187.59</ele>
        <time>2013-03-31T11:48:24Z</time>
      </trkpt>
      <trkpt lat="41.618069463" lon="2.540682029">
        <ele>184.71</ele>
        <time>2013-03-31T11:48:28Z</time>
      </trkpt>
      <trkpt lat="41.618138027" lon="2.540384136">
        <ele>182.79</ele>
        <time>2013-03-31T11:48:31Z</time>
      </trkpt>
      <trkpt lat="41.618140625" lon="2.540219767">
        <ele>180.87</ele>
        <time>2013-03-31T11:48:33Z</time>
      </trkpt>
      <trkpt lat="41.618084634" lon="2.540038047">
        <ele>179.90</ele>
        <time>2013-03-31T11:48:37Z</time>
      </trkpt>
      <trkpt lat="41.617972233" lon="2.540117592">
        <ele>179.42</ele>
        <time>2013-03-31T11:48:40Z</time>
      </trkpt>
      <trkpt lat="41.617939208" lon="2.540182551">
        <ele>178.46</ele>
        <time>2013-03-31T11:48:41Z</time>
      </trkpt>
      <trkpt lat="41.617707700" lon="2.540698039">
        <ele>175.10</ele>
        <time>2013-03-31T11:48:47Z</time>
      </trkpt>
      <trkpt lat="41.617510222" lon="2.541166335">
        <ele>170.77</ele>
        <time>2013-03-31T11:48:52Z</time>
      </trkpt>
      <trkpt lat="41.617413914" lon="2.541365154">
        <ele>169.33</ele>
        <time>2013-03-31T11:48:54Z</time>
      </trkpt>
      <trkpt lat="41.617165055" lon="2.541695234">
        <ele>167.89</ele>
        <time>2013-03-31T11:48:58Z</time>
      </trkpt>
      <trkpt lat="41.616904127" lon="2.541955911">
        <ele>166.93</ele>
        <time>2013-03-31T11:49:02Z</time>
      </trkpt>
      <trkpt lat="41.616531300" lon="2.542072838">
        <ele>166.45</ele>
        <time>2013-03-31T11:49:07Z</time>
      </trkpt>
      <trkpt lat="41.616215889" lon="2.541926155">
        <ele>165.00</ele>
        <time>2013-03-31T11:49:11Z</time>
      </trkpt>
      <trkpt lat="41.615630832" lon="2.541530445">
        <ele>161.16</ele>
        <time>2013-03-31T11:49:18Z</time>
      </trkpt>
      <trkpt lat="41.615541145" lon="2.541475041">
        <ele>160.20</ele>
        <time>2013-03-31T11:49:19Z</time>
      </trkpt>
      <trkpt lat="41.615247863" lon="2.541362137">
        <ele>158.27</ele>
        <time>2013-03-31T11:49:22Z</time>
      </trkpt>
      <trkpt lat="41.614853662" lon="2.541260967">
        <ele>155.39</ele>
        <time>2013-03-31T11:49:26Z</time>
      </trkpt>
      <trkpt lat="41.614356615" lon="2.541116715">
        <ele>151.54</ele>
        <time>2013-03-31T11:49:31Z</time>
      </trkpt>
      <trkpt lat="41.614254439" lon="2.541089390">
        <ele>151.54</ele>
        <time>2013-03-31T11:49:32Z</time>
      </trkpt>
      <trkpt lat="41.613736773" lon="2.540938096">
        <ele>148.66</ele>
        <time>2013-03-31T11:49:37Z</time>
      </trkpt>
      <trkpt lat="41.613405101" lon="2.540888727">
        <ele>147.22</ele>
        <time>2013-03-31T11:49:40Z</time>
      </trkpt>
      <trkpt lat="41.612960860" lon="2.540855786">
        <ele>143.37</ele>
        <time>2013-03-31T11:49:44Z</time>
      </trkpt>
      <trkpt lat="41.612509662" lon="2.540838855">
        <ele>140.01</ele>
        <time>2013-03-31T11:49:48Z</time>
      </trkpt>
      <trkpt lat="41.611737438" lon="2.540810272">
        <ele>137.13</ele>
        <time>2013-03-31T11:49:55Z</time>
      </trkpt>
      <trkpt lat="41.611262016" lon="2.540963493">
        <ele>135.20</ele>
        <time>2013-03-31T11:50:00Z</time>
      </trkpt>
      <trkpt lat="41.610913078" lon="2.541099699">
        <ele>132.32</ele>
        <time>2013-03-31T11:50:04Z</time>
      </trkpt>
      <trkpt lat="41.610355262" lon="2.541329363">
        <ele>130.40</ele>
        <time>2013-03-31T11:50:11Z</time>
      </trkpt>
      <trkpt lat="41.610280495" lon="2.541357108">
        <ele>129.92</ele>
        <time>2013-03-31T11:50:12Z</time>
      </trkpt>
      <trkpt lat="41.610129872" lon="2.541389797">
        <ele>128.95</ele>
        <time>2013-03-31T11:50:14Z</time>
      </trkpt>
      <trkpt lat="41.610050496" lon="2.541401867">
        <ele>128.95</ele>
        <time>2013-03-31T11:50:15Z</time>
      </trkpt>
      <trkpt lat="41.609796021" lon="2.541378398">
        <ele>127.03</ele>
        <time>2013-03-31T11:50:18Z</time>
      </trkpt>
      <trkpt lat="41.609709855" lon="2.541382672">
        <ele>126.55</ele>
        <time>2013-03-31T11:50:19Z</time>
      </trkpt>
      <trkpt lat="41.609215323" lon="2.541465066">
        <ele>123.67</ele>
        <time>2013-03-31T11:50:25Z</time>
      </trkpt>
      <trkpt lat="41.608832270" lon="2.541492643">
        <ele>122.71</ele>
        <time>2013-03-31T11:50:30Z</time>
      </trkpt>
      <trkpt lat="41.608489869" lon="2.541335398">
        <ele>121.74</ele>
        <time>2013-03-31T11:50:35Z</time>
      </trkpt>
      <trkpt lat="41.608315610" lon="2.541181255">
        <ele>120.30</ele>
        <time>2013-03-31T11:50:38Z</time>
      </trkpt>
      <trkpt lat="41.608023752" lon="2.541056784">
        <ele>118.86</ele>
        <time>2013-03-31T11:50:43Z</time>
      </trkpt>
      <trkpt lat="41.607816551" lon="2.541001883">
        <ele>118.38</ele>
        <time>2013-03-31T11:50:47Z</time>
      </trkpt>
      <trkpt lat="41.607671544" lon="2.540973133">
        <ele>116.94</ele>
        <time>2013-03-31T11:50:52Z</time>
      </trkpt>
      <trkpt lat="41.607687889" lon="2.540969025">
        <ele>117.42</ele>
        <time>2013-03-31T11:51:02Z</time>
      </trkpt>
      <trkpt lat="41.607688392" lon="2.540986460">
        <ele>117.42</ele>
        <time>2013-03-31T11:51:14Z</time>
      </trkpt>
      <trkpt lat="41.607680680" lon="2.540988052">
        <ele>117.42</ele>
        <time>2013-03-31T11:51:19Z</time>
      </trkpt>
      <trkpt lat="41.607559646" lon="2.541002134">
        <ele>117.42</ele>
        <time>2013-03-31T11:51:26Z</time>
      </trkpt>
      <trkpt lat="41.607540703" lon="2.540998027">
        <ele>116.94</ele>
        <time>2013-03-31T11:51:31Z</time>
      </trkpt>
      <trkpt lat="41.607523436" lon="2.541002134">
        <ele>116.94</ele>
        <time>2013-03-31T11:51:42Z</time>
      </trkpt>
      <trkpt lat="41.607424278" lon="2.540996518">
        <ele>116.94</ele>
        <time>2013-03-31T11:51:48Z</time>
      </trkpt>
      <trkpt lat="41.607171228" lon="2.540954692">
        <ele>115.98</ele>
        <time>2013-03-31T11:51:55Z</time>
      </trkpt>
      <trkpt lat="41.606810974" lon="2.540867018">
        <ele>115.01</ele>
        <time>2013-03-31T11:52:03Z</time>
      </trkpt>
      <trkpt lat="41.606657501" lon="2.540806836">
        <ele>114.05</ele>
        <time>2013-03-31T11:52:09Z</time>
      </trkpt>
      <trkpt lat="41.606658843" lon="2.540801220">
        <ele>113.57</ele>
        <time>2013-03-31T11:52:16Z</time>
      </trkpt>
      <trkpt lat="41.606663285" lon="2.540806752">
        <ele>114.05</ele>
        <time>2013-03-31T11:52:31Z</time>
      </trkpt>
      <trkpt lat="41.606589105" lon="2.540941449">
        <ele>114.05</ele>
        <time>2013-03-31T11:52:37Z</time>
      </trkpt>
      <trkpt lat="41.606596230" lon="2.540975312">
        <ele>114.05</ele>
        <time>2013-03-31T11:52:38Z</time>
      </trkpt>
      <trkpt lat="41.606664961" lon="2.541213861">
        <ele>115.50</ele>
        <time>2013-03-31T11:52:45Z</time>
      </trkpt>
      <trkpt lat="41.606761689" lon="2.541601021">
        <ele>117.90</ele>
        <time>2013-03-31T11:52:55Z</time>
      </trkpt>
      <trkpt lat="41.606859254" lon="2.541923724">
        <ele>119.82</ele>
        <time>2013-03-31T11:53:04Z</time>
      </trkpt>
      <trkpt lat="41.606956484" lon="2.542134278">
        <ele>121.26</ele>
        <time>2013-03-31T11:53:10Z</time>
      </trkpt>
      <trkpt lat="41.607034771" lon="2.542298814">
        <ele>122.22</ele>
        <time>2013-03-31T11:53:17Z</time>
      </trkpt>
      <trkpt lat="41.607069304" lon="2.542355728">
        <ele>122.71</ele>
        <time>2013-03-31T11:53:23Z</time>
      </trkpt>
      <trkpt lat="41.607101575" lon="2.542367797">
        <ele>123.67</ele>
        <time>2013-03-31T11:53:31Z</time>
      </trkpt>
      <trkpt lat="41.607094534" lon="2.542374503">
        <ele>123.67</ele>
        <time>2013-03-31T11:53:42Z</time>
      </trkpt>
      <trkpt lat="41.607064024" lon="2.542399816">
        <ele>124.15</ele>
        <time>2013-03-31T11:53:57Z</time>
      </trkpt>
      <trkpt lat="41.607057402" lon="2.542371234">
        <ele>124.15</ele>
        <time>2013-03-31T11:54:10Z</time>
      </trkpt>
    </trkseg>
  </trk>
</gpx>
